[[{"header":{"parameterUnit":"m.s-1","parameterCategory":1,"la1":30.6,"la2":28.766,"lo1":-90.7593,"lo2":-88.6598,"dy":0.0162,"dx":0.0183,"nx":116,"ny":114,"refTime":"2023-06-29T12:00:00:Z","depth":0,"parameterNumber":2,"parameterNumberName":"U-component_of_WINDS"},"data":[0.0,0.0,0.0,0.0,0.0,0.0,0.0,0.0,0.0,0.0,0.0,0.0,0.0,0.0,0.0,0.0,0.0,0.0,0.0,0.0,0.0,0.0,0.0,0.0,0.0,0.0,0.0,0.0,0.0,0.0,0.0,0.0,0.0,0.0,0.0,0.0,0.0,0.0,0.0,0.0,0.0,0.0,0.0,0.0,0.0,0.0,0.0,0.0,0.0,0.0,0.0,0.0,0.0,0.0,0.0,0.0,0.0,0.0,0.0,0.0,0.0,0.0,0.0,0.0,0.0,0.0,0.0,0.0,0.0,0.0,0.0,0.0,0.0,0.0,0.0,0.0,0.0,0.0,0.0,0.0,0.0,0.0,0.0,0.0,0.0,0.0,0.0,0.0,0.0,0.0,0.0,0.0,0.0,0.0,0.0,0.0,0.0,0.0,0.0,0.0,0.0,0.0,0.0,0.0,0.0,0.0,0.0,0.0,0.0,0.0,0.0,0.0,0.0,0.0,0.0,0.0,0.0,0.0,0.0,0.0,0.0,0.0,0.0,0.0,0.0,0.0,0.0,0.0,0.0,0.0,0.0,0.0,0.0,0.0,0.0,0.0,0.0,0.0,0.0,0.0,0.0,0.0,0.0,0.0,0.0,0.0,0.0,0.0,0.0,0.0,0.0,0.0,0.0,0.0,0.0,0.0,0.0,0.0,0.0,0.0,0.0,0.0,0.0,0.0,0.0,0.0,0.0,0.0,0.0,0.0,0.0,0.0,0.0,0.0,0.0,0.0,0.0,0.0,0.0,0.0,0.0,0.0,0.0,0.0,0.0,0.0,0.0,0.0,0.0,0.0,0.0,0.0,0.0,0.0,0.0,0.0,0.0,0.0,0.0,0.0,0.0,0.0,0.0,0.0,0.0,0.0,0.0,0.0,0.0,0.0,0.0,0.0,0.0,0.0,0.0,0.0,0.0,0.0,0.0,0.0,0.0,0.0,0.0,0.0,0.0,0.0,0.0,0.0,0.0,0.0,0.0,0.0,0.0,0.0,0.0,0.0,0.0,0.0,0.0,0.0,0.0,0.0,0.0,0.0,0.0,0.0,0.0,0.0,0.0,0.0,0.0,0.0,0.0,0.0,0.0,0.0,0.0,0.0,0.0,0.0,0.0,0.0,0.0,0.0,0.0,0.0,0.0,0.0,0.0,0.0,0.0,0.0,0.0,0.0,0.0,0.0,0.0,0.0,0.0,0.0,0.0,0.0,0.0,0.0,0.0,0.0,0.0,0.0,0.0,0.0,0.0,0.0,0.0,0.0,0.0,0.0,0.0,0.0,0.0,0.0,0.0,0.0,0.0,0.0,0.0,0.0,0.0,0.0,0.0,0.0,0.0,0.0,0.0,0.0,0.0,0.0,0.0,0.0,0.0,0.0,0.0,0.0,0.0,0.0,0.0,0.0,0.0,0.0,0.0,0.0,0.0,0.0,0.0,0.0,0.0,0.0,0.0,0.0,0.0,0.0,0.0,0.0,0.0,0.0,0.0,0.0,0.0,0.0,0.0,0.0,0.0,0.0,0.0,0.0,0.0,0.0,0.0,0.0,0.0,0.0,0.0,0.0,0.0,0.0,0.0,0.0,0.0,0.0,0.0,0.0,0.0,0.0,0.0,0.0,0.0,0.0,0.0,0.0,0.0,0.0,0.0,0.0,0.0,0.0,0.0,0.0,0.0,0.0,0.0,0.0,0.0,0.0,0.0,0.0,0.0,0.0,0.0,0.0,0.0,0.0,0.0,0.0,0.0,0.0,0.0,0.0,0.0,0.0,0.0,0.0,0.0,0.0,0.0,0.0,0.0,0.0,0.0,0.0,0.0,0.0,0.0,0.0,0.0,0.0,0.0,0.0,0.0,0.0,0.0,0.0,0.0,0.0,0.0,0.0,0.0,0.0,0.0,0.0,0.0,0.0,0.0,0.0,0.0,0.0,0.0,0.0,0.0,0.0,0.0,0.0,0.0,0.0,0.0,0.0,0.0,0.0,0.0,0.0,0.0,0.0,0.0,0.0,0.0,0.0,0.0,0.0,0.0,0.0,0.0,0.0,0.0,0.0,0.0,0.0,0.0,0.0,0.0,0.0,0.0,0.0,0.0,0.0,0.0,0.0,0.0,0.0,0.0,0.0,0.0,0.0,0.0,0.0,0.0,0.0,0.0,0.0,0.0,0.0,0.0,0.0,0.0,0.0,0.0,0.0,0.0,0.0,0.0,0.0,0.0,0.0,0.0,0.0,0.0,0.0,0.0,0.0,0.0,0.0,0.0,0.0,0.0,0.0,0.0,0.0,0.0,0.0,0.0,0.0,0.0,0.0,0.0,0.0,0.0,0.0,0.0,0.0,0.0,0.0,0.0,0.0,0.0,0.0,0.0,0.0,0.0,0.0,0.0,0.0,0.0,0.0,0.0,0.0,0.0,0.0,0.0,0.0,0.0,0.0,0.0,0.0,0.0,0.0,0.0,0.0,0.0,0.0,0.0,0.0,0.0,0.0,0.0,0.0,0.0,0.0,0.0,0.0,0.0,0.0,0.0,0.0,0.0,0.0,0.0,0.0,0.0,0.0,0.0,0.0,0.0,0.0,0.0,0.0,0.0,0.0,0.0,0.0,0.0,0.0,0.0,0.0,0.0,0.0,0.0,0.0,0.0,0.0,0.0,0.0,0.0,0.0,0.0,0.0,0.0,0.0,0.0,0.0,0.0,0.0,0.0,0.0,0.0,0.0,0.0,0.0,0.0,0.0,0.0,0.0,0.0,0.0,0.0,0.0,0.0,0.0,0.0,0.0,0.0,0.0,0.0,0.0,0.0,0.0,0.0,0.0,0.0,0.0,0.0,0.0,0.0,0.0,0.0,0.0,0.0,0.0,0.0,0.0,0.0,0.0,0.0,0.0,0.0,0.0,0.0,0.0,0.0,0.0,0.0,0.0,0.0,0.0,0.0,0.0,0.0,0.0,0.0,0.0,0.0,0.0,0.0,0.0,0.0,0.0,0.0,0.0,0.0,0.0,0.0,0.0,0.0,0.0,0.0,0.0,0.0,0.0,0.0,0.0,0.0,0.0,0.0,0.0,0.0,0.0,0.0,0.0,0.0,0.0,0.0,0.0,0.0,0.0,0.0,0.0,0.0,0.0,0.0,0.0,0.0,0.0,0.0,0.0,0.0,0.0,0.0,0.0,0.0,0.0,0.0,0.0,0.0,0.0,0.0,0.0,0.0,0.0,0.0,0.0,0.0,0.0,0.0,0.0,0.0,0.0,0.0,0.0,0.0,0.0,0.0,0.0,0.0,0.0,0.0,0.0,0.0,0.0,0.0,0.0,0.0,0.0,0.0,0.0,0.0,0.0,0.0,0.0,0.0,0.0,0.0,0.0,0.0,0.0,0.0,0.0,0.0,0.0,0.0,0.0,0.0,0.0,0.0,0.0,0.0,0.0,0.0,0.0,0.0,0.0,0.0,0.0,0.0,0.0,0.0,0.0,0.0,0.0,0.0,0.0,0.0,0.0,0.0,0.0,0.0,0.0,0.0,0.0,0.0,0.0,0.0,0.0,0.0,0.0,0.0,0.0,0.0,0.0,0.0,0.0,0.0,0.0,0.0,0.0,0.0,0.0,0.0,0.0,0.0,0.0,0.0,0.0,0.0,0.0,0.0,0.0,0.0,0.0,0.0,0.0,0.0,0.0,0.0,0.0,0.0,0.0,0.0,0.0,0.0,0.0,0.0,0.0,0.0,0.0,0.0,0.0,0.0,0.0,0.0,0.0,0.0,0.0,0.0,0.0,0.0,0.0,0.0,0.0,0.0,0.0,0.0,0.0,0.0,0.0,0.0,0.0,0.0,0.0,0.0,0.0,0.0,0.0,0.0,0.0,0.0,0.0,0.0,0.0,0.0,0.0,0.0,0.0,0.0,0.0,0.0,0.0,0.0,0.0,0.0,0.0,0.0,0.0,0.0,0.0,0.0,0.0,0.0,0.0,0.0,0.0,0.0,0.0,0.0,0.0,0.0,0.0,0.0,0.0,0.0,0.0,0.0,0.0,0.0,0.0,0.0,0.0,0.0,0.0,0.0,0.0,0.0,0.0,0.0,0.0,0.0,0.0,0.0,0.0,0.0,0.0,0.0,0.0,0.0,0.0,0.0,0.0,0.0,0.0,0.0,0.0,0.0,0.0,0.0,0.0,0.0,0.0,0.0,0.0,0.0,0.0,0.0,0.0,0.0,0.0,0.0,0.0,0.0,0.0,0.0,0.0,0.0,0.0,0.0,0.0,0.0,0.0,0.0,0.0,0.0,0.0,0.0,0.0,0.0,0.0,0.0,0.0,0.0,0.0,0.0,0.0,0.0,0.0,0.0,0.0,0.0,0.0,0.0,0.0,0.0,0.0,0.0,0.0,0.0,0.0,0.0,0.0,0.0,0.0,0.0,0.0,0.0,0.0,0.0,0.0,0.0,0.0,0.0,0.0,0.0,0.0,0.0,0.0,0.0,0.0,0.0,0.0,0.0,0.0,0.0,0.0,0.0,0.0,0.0,0.0,0.0,0.0,0.0,0.0,0.0,0.0,0.0,0.0,0.0,0.0,0.0,0.0,0.0,0.0,0.0,0.0,0.0,0.0,0.0,0.0,0.0,0.0,0.0,0.0,0.0,0.0,0.0,0.0,0.0,0.0,0.0,0.0,0.0,0.0,0.0,0.0,0.0,0.0,0.0,0.0,0.0,0.0,0.0,0.0,0.0,0.0,0.0,0.0,0.0,0.0,0.0,0.0,0.0,0.0,0.0,0.0,0.0,0.0,0.0,0.0,0.0,0.0,0.0,0.0,0.0,0.0,0.0,0.0,0.0,0.0,0.0,0.0,0.0,0.0,0.0,0.0,0.0,0.0,0.0,0.0,0.0,0.0,0.0,0.0,0.0,0.0,0.0,0.0,0.0,0.0,0.0,0.0,0.0,0.0,0.0,0.0,0.0,0.0,0.0,0.0,0.0,0.0,0.0,0.0,0.0,0.0,0.0,0.0,0.0,0.0,0.0,0.0,0.0,0.0,0.0,0.0,0.0,0.0,0.0,0.0,0.0,0.0,0.0,0.0,0.0,0.0,0.0,0.0,0.0,0.0,0.0,0.0,0.0,0.0,0.0,0.0,0.0,0.0,0.0,0.0,0.0,0.0,0.0,0.0,0.0,0.0,0.0,0.0,0.0,0.0,0.0,0.0,0.0,0.0,0.0,0.0,0.0,0.0,0.0,0.0,0.0,0.0,0.0,0.0,0.0,0.0,0.0,0.0,0.0,0.0,0.0,0.0,0.0,0.0,0.0,0.0,0.0,0.0,0.0,0.0,0.0,0.0,0.0,0.0,0.0,0.0,0.0,0.0,0.0,0.0,0.0,0.0,0.0,0.0,0.0,0.0,0.0,0.0,0.0,0.0,0.0,0.0,0.0,0.0,0.0,0.0,0.0,0.0,0.0,0.0,0.0,0.0,0.0,0.0,0.0,0.0,0.0,0.0,0.0,0.0,0.0,0.0,0.0,0.0,0.0,0.0,0.0,0.0,0.0,0.0,0.0,0.0,0.0,0.0,0.0,0.0,0.0,0.0,0.0,0.0,0.0,0.0,0.0,0.0,0.0,0.0,0.0,0.0,0.0,0.0,0.0,0.0,0.0,0.0,0.0,0.0,0.0,0.0,0.0,0.0,0.0,0.0,0.0,0.0,0.0,0.0,0.0,0.0,0.0,0.0,0.0,0.0,0.0,0.0,0.0,0.0,0.0,0.0,0.0,0.0,0.0,0.0,0.0,0.0,0.0,0.0,0.0,0.0,0.0,0.0,0.0,0.0,0.0,0.0,0.0,0.0,0.0,0.0,0.0,0.0,0.0,0.0,0.0,0.0,0.0,0.0,0.0,0.0,0.0,0.0,0.0,0.0,0.0,0.0,0.0,0.0,0.0,0.0,0.0,0.0,0.0,0.0,0.0,0.0,0.0,0.0,0.0,0.0,0.0,0.0,0.0,0.0,0.0,0.0,0.0,0.0,0.0,0.0,0.0,0.0,0.0,0.0,0.0,0.0,0.0,0.0,0.0,0.0,0.0,0.0,-0.7629,0.0,0.0,0.0,0.0,0.0,0.0,0.0,0.0,0.0,0.0,0.0,0.0,0.0,0.0,0.0,0.0,0.0,0.0,0.0,0.0,0.0,0.0,0.0,0.0,0.0,0.0,0.0,0.0,0.0,0.0,0.0,0.0,0.0,0.0,0.0,0.0,0.0,0.0,0.0,0.0,0.0,0.0,0.0,0.0,0.0,0.0,0.0,0.0,0.0,0.0,0.0,0.0,0.0,0.0,0.0,0.0,0.0,0.0,0.0,0.0,0.0,0.0,0.0,0.0,0.0,0.0,0.0,0.0,0.0,0.0,0.0,0.0,0.0,0.0,0.0,0.0,0.0,0.0,0.0,0.0,0.0,0.0,0.0,0.0,0.0,0.0,0.0,0.0,0.0,0.0,0.0,0.0,0.0,0.0,0.0,0.0,0.0,0.0,0.0,0.0,0.0,0.0,0.0,0.0,0.0,0.0,0.0,0.0,0.0,0.0,0.0,0.0,0.0,0.0,0.0,0.0,-0.7658,0.0,0.0,0.0,0.0,0.0,0.0,0.0,0.0,0.0,0.0,0.0,0.0,0.0,0.0,0.0,0.0,0.0,0.0,0.0,0.0,0.0,0.0,0.0,0.0,0.0,0.0,0.0,0.0,0.0,0.0,0.0,0.0,0.0,0.0,0.0,0.0,0.0,0.0,0.0,0.0,0.0,0.0,0.0,0.0,0.0,0.0,0.0,0.0,0.0,0.0,0.0,0.0,0.0,0.0,0.0,0.0,0.0,0.0,0.0,0.0,0.0,0.0,0.0,0.0,0.0,0.0,0.0,0.0,0.0,0.0,0.0,0.0,0.0,0.0,0.0,0.0,0.0,0.0,0.0,0.0,0.0,0.0,0.0,0.0,0.0,0.0,0.0,0.0,0.0,0.0,0.0,0.0,0.0,0.0,0.0,0.0,0.0,0.0,0.0,0.0,0.0,0.0,0.0,0.0,0.0,0.0,0.0,0.0,-0.767,-0.7566,-0.7435,-0.7435,-0.7059,-0.64,-0.6726,-0.6673,-0.6515,-0.78,0.0,0.0,0.0,0.0,0.0,0.0,0.0,0.0,0.0,0.0,0.0,0.0,0.0,0.0,0.0,0.0,0.0,0.0,0.0,0.0,0.0,0.0,-1.8627,-1.8555,-1.8585,0.0,0.0,0.0,0.0,0.0,0.0,0.0,0.0,0.0,0.0,0.0,0.0,0.0,-1.63,-1.6777,-1.6466,-1.5659,-1.7363,0.0,0.0,0.0,0.0,0.0,0.0,0.0,0.0,0.0,0.0,0.0,0.0,0.0,0.0,0.0,0.0,0.0,0.0,0.0,0.0,0.0,0.0,0.0,0.0,0.0,0.0,0.0,0.0,0.0,0.0,0.0,0.0,0.0,0.0,0.0,0.0,0.0,0.0,0.0,0.0,0.0,0.0,0.0,-0.8167,-0.8479,0.0,0.0,0.0,0.0,0.0,0.0,0.0,0.0,0.0,0.0,0.0,0.0,0.0,-0.834,-0.796,-0.7335,-0.695,-0.6773,-0.6065,-0.5752,-0.5752,-0.5752,-0.5636,-0.5588,-0.5585,0.0,-0.6754,-0.6974,0.0,0.0,0.0,0.0,0.0,0.0,0.0,0.0,0.0,0.0,0.0,0.0,0.0,0.0,0.0,0.0,0.0,0.0,0.0,0.0,0.0,0.0,-1.8623,-1.8321,-1.8194,-1.8086,0.0,0.0,0.0,0.0,0.0,0.0,0.0,0.0,0.0,0.0,-1.6029,-1.5443,-1.4823,-1.4699,-1.4358,-1.3896,-1.4586,-1.5733,-1.7165,-1.8124,0.0,0.0,0.0,0.0,0.0,0.0,0.0,0.0,0.0,0.0,0.0,0.0,0.0,0.0,0.0,0.0,0.0,0.0,0.0,0.0,0.0,0.0,0.0,0.0,0.0,0.0,0.0,0.0,0.0,0.0,0.0,0.0,0.0,0.0,0.0,0.0,0.0,0.0,0.0,-0.9795,-0.9387,-0.9613,-0.9963,-1.0473,0.0,0.0,0.0,0.0,0.0,0.0,0.0,0.0,0.0,-0.7395,-0.7456,-0.7149,-0.653,-0.6173,-0.5963,-0.5902,-0.5588,-0.5428,-0.5428,-0.5428,-0.5428,-0.5428,-0.5428,-0.5647,-0.6081,-0.6602,-0.7299,-0.8164,0.0,0.0,0.0,0.0,-0.8947,-0.8808,0.0,0.0,0.0,0.0,0.0,0.0,0.0,0.0,0.0,0.0,0.0,0.0,-1.7559,-1.8108,-1.8356,-1.7979,-1.772,-1.7625,-1.7771,0.0,0.0,0.0,0.0,0.0,0.0,0.0,0.0,-1.584,-1.5307,-1.4656,-1.3779,-1.3334,-1.3065,-1.2881,-1.2881,-1.4085,-1.609,-1.6703,-1.7479,0.0,0.0,0.0,0.0,0.0,0.0,0.0,0.0,0.0,0.0,0.0,0.0,0.0,0.0,0.0,0.0,0.0,0.0,0.0,0.0,0.0,0.0,0.0,0.0,0.0,0.0,0.0,0.0,0.0,0.0,0.0,0.0,0.0,0.0,0.0,0.0,0.0,0.0,-1.0179,-0.9731,-1.0113,-0.9814,-0.9955,0.0,0.0,0.0,0.0,0.0,0.0,-0.7941,-0.8001,-0.7573,-0.6502,-0.6442,-0.6133,-0.5425,-0.5428,-0.5428,-0.5428,-0.5428,-0.5428,-0.5428,-0.5428,-0.5449,-0.542,-0.542,-0.544,-0.5525,-0.6161,-0.6602,-0.6848,-0.7597,-0.808,-0.827,-0.8038,-0.7941,-0.78,0.0,0.0,0.0,0.0,0.0,0.0,0.0,0.0,0.0,0.0,0.0,-1.7418,-1.7417,-1.7743,-1.7924,-1.7815,-1.7442,-1.7356,-1.7693,0.0,0.0,0.0,0.0,0.0,0.0,0.0,0.0,-1.5879,-1.566,-1.4971,-1.3815,-1.3768,-1.3467,-1.2881,-1.2881,-1.2589,-1.2201,-1.4339,-1.4894,-1.467,0.0,0.0,0.0,0.0,0.0,0.0,0.0,0.0,0.0,0.0,0.0,0.0,0.0,0.0,0.0,0.0,0.0,0.0,0.0,0.0,0.0,0.0,0.0,0.0,0.0,0.0,0.0,0.0,0.0,0.0,0.0,0.0,0.0,0.0,0.0,0.0,0.0,0.0,0.0,-0.8858,-0.7936,0.0,0.0,0.0,0.0,-0.8416,-0.8705,-0.8304,-0.6968,-0.7208,-0.6811,-0.5543,-0.5481,-0.5418,-0.5428,-0.5428,-0.5428,-0.5428,-0.5428,-0.5428,-0.5428,-0.5428,-0.544,-0.5579,-0.5579,-0.5654,-0.5759,-0.5535,-0.6028,-0.68,-0.6848,-0.7451,-0.8176,-0.7201,-0.6848,-0.6751,0.0,0.0,0.0,0.0,0.0,0.0,0.0,0.0,0.0,-1.8596,-1.8448,-1.8197,-1.7936,-1.7795,-1.7512,-1.7003,-1.6465,-1.6253,-1.6397,0.0,0.0,0.0,0.0,0.0,0.0,0.0,-1.7495,-1.63,-1.5437,-1.4789,-1.4376,-1.3563,-1.3104,-1.2881,-1.2881,-1.2764,-1.255,-1.3348,-1.4063,-1.4861,-1.6095,-1.8018,0.0,0.0,0.0,0.0,0.0,0.0,0.0,0.0,0.0,0.0,0.0,0.0,0.0,0.0,0.0,0.0,0.0,0.0,0.0,0.0,0.0,0.0,0.0,0.0,0.0,0.0,0.0,0.0,0.0,0.0,0.0,0.0,0.0,0.0,0.0,0.0,0.0,-0.8914,-0.7854,0.0,-0.8504,-0.7979,-0.7532,-0.7471,-0.694,-0.6423,-0.5917,-0.6036,-0.5877,-0.5425,-0.5428,-0.541,-0.5508,-0.5508,-0.5555,-0.5644,-0.5644,-0.5644,-0.5644,-0.5644,-0.5674,-0.5725,-0.5725,-0.5752,-0.5793,-0.5688,-0.5827,-0.6015,-0.6015,-0.6171,-0.64,-0.6024,-0.592,-0.5959,0.0,0.0,0.0,0.0,0.0,0.0,0.0,0.0,0.0,-1.9017,-1.8789,-1.8489,-1.8035,-1.7597,-1.7101,-1.6491,-1.5805,-1.5754,-1.6471,0.0,0.0,0.0,0.0,0.0,0.0,-1.8341,-1.7301,-1.5876,-1.5107,-1.4479,-1.4071,-1.3296,-1.2881,-1.2881,-1.2881,-1.2881,-1.2891,-1.3037,-1.3587,-1.4383,-1.4832,-1.6519,-1.8701,0.0,0.0,0.0,0.0,0.0,0.0,0.0,0.0,0.0,0.0,0.0,0.0,0.0,0.0,0.0,0.0,0.0,0.0,0.0,0.0,0.0,0.0,0.0,0.0,0.0,0.0,0.0,0.0,0.0,0.0,0.0,0.0,0.0,0.0,0.0,-0.7786,-0.8926,-0.7502,-0.6876,-0.8039,-0.7145,-0.6459,-0.6459,-0.5814,-0.5428,-0.5428,-0.541,-0.544,-0.544,-0.5484,-0.5559,-0.5661,-0.5661,-0.5708,-0.58,-0.58,-0.58,-0.58,-0.58,-0.583,-0.5878,-0.5878,-0.5908,-0.5956,-0.5956,-0.5871,-0.5732,-0.5681,-0.5599,-0.5508,-0.5508,-0.5576,-0.5661,0.0,0.0,0.0,0.0,0.0,0.0,0.0,0.0,0.0,-1.8824,-1.8563,-1.8187,-1.7653,-1.7126,-1.6659,-1.6328,-1.5565,-1.5977,-1.8029,-1.849,0.0,0.0,0.0,0.0,-1.8135,-1.7981,-1.6892,-1.4755,-1.4744,-1.4118,-1.2978,-1.2929,-1.2929,-1.2881,-1.2881,-1.2891,-1.293,-1.334,-1.3281,-1.3046,-1.4496,-1.5098,-1.548,0.0,0.0,0.0,0.0,0.0,0.0,0.0,0.0,0.0,0.0,0.0,0.0,0.0,0.0,0.0,0.0,0.0,0.0,0.0,0.0,0.0,0.0,0.0,0.0,0.0,0.0,0.0,0.0,0.0,0.0,0.0,0.0,0.0,-0.9279,-0.8089,-0.7624,-0.8725,-0.6786,-0.5814,-0.6822,-0.6036,-0.5428,-0.5435,-0.5435,-0.5439,-0.5439,-0.5583,-0.5596,-0.5596,-0.5728,-0.5803,-0.581,-0.5813,-0.5817,-0.5823,-0.5827,-0.583,-0.583,-0.583,-0.5911,-0.6051,-0.6051,-0.6135,-0.6274,-0.6274,-0.6186,-0.6034,-0.5871,-0.5803,-0.58,-0.58,-0.5803,-0.581,0.0,0.0,0.0,0.0,0.0,0.0,0.0,0.0,-1.917,-1.8984,-1.866,-1.8177,-1.7386,-1.7215,-1.6834,-1.6011,-1.5651,-1.5976,-1.7236,0.0,0.0,0.0,0.0,0.0,-1.8021,-1.7287,-1.66,-1.602,-1.5555,-1.496,-1.4201,-1.3742,-1.3324,-1.2881,-1.2881,-1.3047,-1.334,-1.3457,-1.3613,-1.3789,-1.4226,-1.5322,-1.6725,0.0,0.0,0.0,0.0,0.0,0.0,0.0,0.0,0.0,0.0,0.0,0.0,0.0,0.0,0.0,0.0,0.0,0.0,0.0,0.0,0.0,0.0,0.0,0.0,0.0,0.0,0.0,0.0,0.0,0.0,0.0,0.0,-0.9847,-0.9781,-0.8121,-0.693,-0.7243,-0.6205,-0.554,-0.5814,-0.5595,-0.5737,-0.6591,-0.5931,-0.591,-0.6708,-0.6139,-0.5742,-0.5742,-0.5779,-0.5854,-0.5966,-0.6078,-0.6186,-0.6288,-0.64,-0.6454,-0.6454,-0.6454,-0.6478,-0.6515,-0.6515,-0.6539,-0.658,-0.658,-0.6552,-0.6481,-0.6112,-0.5898,-0.58,-0.58,-0.5871,-0.5983,0.0,0.0,0.0,0.0,0.0,0.0,0.0,0.0,-1.9202,-1.9018,-1.8715,-1.8217,-1.7501,-1.7342,-1.696,-1.608,-1.6233,-1.6871,-1.7915,0.0,0.0,0.0,0.0,-1.7838,-1.7369,-1.6811,-1.638,-1.6139,-1.5511,-1.4915,-1.4329,-1.3695,-1.3238,-1.2891,-1.3066,-1.3281,-1.3525,-1.3887,-1.418,-1.4424,-1.46,-1.5175,-1.5989,-1.6214,-1.7002,-1.7962,-1.7352,-1.669,-1.628,-1.7313,0.0,0.0,0.0,0.0,0.0,0.0,0.0,0.0,0.0,0.0,0.0,0.0,0.0,0.0,0.0,0.0,0.0,0.0,0.0,0.0,0.0,0.0,0.0,0.0,-1.0226,-0.9476,-1.0192,-0.8175,-0.6588,-0.6203,-0.6009,-0.5973,-0.6116,-0.6451,-0.6789,-0.7181,-0.6646,-0.6409,-0.6643,-0.6147,-0.5925,-0.5993,-0.6051,-0.6156,-0.6308,-0.64,-0.6485,-0.6569,-0.6658,-0.6702,-0.6702,-0.6702,-0.6702,-0.6702,-0.6702,-0.6702,-0.6702,-0.6702,-0.6702,-0.6675,0.0,0.0,0.0,0.0,-0.6234,-0.6322,0.0,0.0,0.0,0.0,0.0,0.0,0.0,0.0,-1.9152,-1.9018,-1.8715,-1.831,-1.7759,-1.7452,-1.7052,-1.6394,-1.7101,-1.8108,0.0,0.0,0.0,-1.7475,-1.7713,-1.7451,-1.6522,-1.6522,-1.6238,-1.572,-1.5152,-1.4606,-1.4003,-1.3467,-1.3182,-1.3106,-1.3431,-1.3606,-1.3701,-1.4463,-1.4814,-1.4893,-1.5264,-1.4961,-1.4365,-1.572,-1.6132,-1.6182,-1.7302,-1.7313,-1.6855,-1.7551,0.0,0.0,0.0,0.0,0.0,0.0,0.0,0.0,0.0,0.0,0.0,0.0,0.0,0.0,0.0,0.0,0.0,0.0,0.0,0.0,0.0,0.0,0.0,0.0,-0.9681,-0.8807,-1.0238,-0.8495,-0.6753,-0.5977,-0.6494,-0.7025,-0.73,-0.7991,-0.8211,-0.758,-0.7548,-0.714,-0.6089,0.0,0.0,0.0,0.0,-0.6644,-0.6861,-0.6881,-0.6892,-0.6725,-0.6909,-0.6916,-0.6749,-0.6749,-0.6749,-0.6749,-0.6749,-0.6749,-0.6749,-0.6749,-0.6749,-0.6746,-0.6712,-0.6702,-0.6702,-0.6702,-0.6702,-0.6702,0.0,0.0,0.0,0.0,0.0,0.0,0.0,0.0,-1.9212,-1.9014,-1.8717,-1.8298,-1.7759,-1.7452,-1.715,-1.6738,-1.7549,-1.8434,0.0,0.0,-1.8054,-1.7798,-1.717,-1.6697,-1.6509,-1.6522,-1.6423,-1.6337,-1.6207,-1.5832,-1.5264,-1.5129,-1.4749,-1.4128,-1.4171,-1.4326,-1.4551,-1.4717,-1.498,-1.5293,-1.5381,-1.5312,-1.5166,-1.5469,-1.5562,-1.5522,-1.5468,-1.4992,-1.4636,-1.5947,-1.5775,-1.5131,-1.6172,0.0,0.0,0.0,0.0,0.0,0.0,0.0,0.0,0.0,0.0,0.0,0.0,0.0,0.0,0.0,0.0,0.0,0.0,0.0,0.0,-1.1662,-1.0759,-0.9977,-0.9594,-0.9313,-0.9036,-0.8909,-0.843,-0.8175,-0.8463,-0.8623,-0.872,-0.8732,-0.8985,-0.8633,-0.7647,-0.7823,-0.7938,-0.7975,-0.7126,-0.7155,-0.8078,-0.8225,-0.7804,-0.6885,0.0,0.0,-0.7054,-0.7054,-0.7054,-0.7054,-0.7054,-0.7054,-0.7054,-0.7054,-0.7054,-0.7031,-0.6793,-0.6702,-0.6702,-0.6702,-0.6702,-0.6702,0.0,0.0,0.0,0.0,0.0,0.0,0.0,0.0,-1.9274,-1.9214,-1.8877,-1.8551,-1.834,-1.8031,-1.7856,-1.7911,-1.8476,0.0,0.0,-1.8065,-1.7239,-1.6413,-1.6388,-1.643,-1.6509,-1.6522,-1.6522,-1.6522,-1.6194,-1.5908,-1.5588,-1.5276,-1.4959,-1.4547,-1.4785,-1.4903,-1.507,-1.5593,-1.5708,-1.5552,-1.583,-1.5748,-1.541,-1.541,-1.541,-1.5381,-1.5176,-1.4869,-1.4697,-1.543,-1.5144,-1.4635,-1.5236,-1.538,-1.5406,0.0,0.0,0.0,0.0,0.0,0.0,0.0,0.0,0.0,0.0,0.0,0.0,0.0,0.0,-1.2832,0.0,0.0,-1.1562,-1.1199,-1.0441,-1.0027,-1.0101,-0.9904,-0.9516,-0.9103,-0.9146,-0.938,-0.9695,-1.0188,-1.044,-1.0185,-1.0429,-1.0142,-0.9143,-0.9242,-0.9346,-0.9363,-0.8875,-0.884,-0.9522,-0.9625,-0.9393,-0.8973,-0.968,-0.9424,-0.8257,-0.8257,-0.7993,-0.737,-0.737,-0.737,-0.737,-0.737,-0.737,-0.7356,-0.7207,-0.7058,-0.6919,-0.6919,-0.6919,-0.6919,0.0,0.0,0.0,0.0,0.0,0.0,0.0,0.0,0.0,-1.9405,-1.9084,-1.886,-1.8895,-1.869,-1.8826,0.0,0.0,0.0,0.0,-1.7777,-1.6694,-1.5359,-1.5958,-1.641,-1.6667,-1.6552,-1.6522,-1.6522,-1.5996,-1.5764,-1.5764,-1.5287,-1.5028,-1.5005,-1.5353,-1.5482,-1.547,-1.6309,-1.6286,-1.5816,-1.6324,-1.6131,-1.5466,-1.5545,-1.5526,-1.541,-1.541,-1.541,-1.541,-1.541,-1.4991,-1.4451,-1.4451,-1.4322,-1.446,-1.5914,-1.5841,0.0,0.0,0.0,0.0,0.0,0.0,0.0,0.0,0.0,-1.4114,-1.2931,-1.2595,-1.2321,-1.1606,-1.1488,-1.1277,-1.0703,-1.0021,-0.9941,-1.089,-1.0482,-0.9864,-0.9168,-0.9904,-1.0584,-1.0979,-1.1877,-1.2054,-1.1331,-1.175,-1.1491,-1.0264,-1.0468,-1.0656,-1.0747,-1.0631,-1.066,-1.1018,-1.1065,-1.1097,-1.1184,-1.1189,-1.0553,-0.952,-0.9245,-0.8606,-0.76,-0.76,-0.76,-0.76,-0.76,-0.76,-0.76,-0.76,-0.7448,-0.7231,-0.7231,-0.7231,-0.7231,0.0,0.0,0.0,0.0,0.0,0.0,0.0,0.0,0.0,-1.9501,-1.9202,-1.8966,-1.8913,-1.9037,0.0,0.0,0.0,0.0,-1.9382,-1.7029,-1.5901,-1.6634,-1.6429,-1.6612,-1.7175,-1.6752,-1.6522,-1.6522,-1.6423,-1.638,-1.638,-1.6337,-1.6244,-1.6103,-1.6162,-1.6084,-1.5936,-1.6047,-1.6041,-1.5983,-1.6572,-1.6299,-1.5708,-1.6223,-1.5979,-1.541,-1.541,-1.541,-1.541,-1.541,-1.5352,-1.5294,-1.5294,-1.5245,-1.5515,-1.6869,0.0,-1.7296,-1.8571,-1.7602,-1.5893,-1.4662,-1.4255,-1.3622,0.0,0.0,-1.22,-1.1095,-1.0878,-1.0829,-1.0746,-1.069,-1.0703,-1.0618,-1.071,-1.0824,-1.0989,-1.1374,-1.1622,-1.1552,-1.1655,-1.1893,-1.2516,-1.2679,-1.2428,-1.1677,-1.2768,-1.2499,-1.0486,-1.1438,-1.2082,-1.2111,-1.1374,-1.1497,-1.2581,-1.282,-1.2405,-1.1415,-1.1334,-1.061,-0.9427,-0.8333,-0.7691,-0.76,-0.76,-0.76,-0.76,-0.76,-0.76,-0.76,-0.76,-0.758,-0.755,-0.755,-0.755,-0.755,0.0,0.0,0.0,0.0,0.0,0.0,0.0,0.0,0.0,0.0,0.0,-1.9219,-1.9135,0.0,0.0,0.0,0.0,0.0,-1.9521,-1.7252,-1.6003,-1.6246,-1.6501,-1.6811,-1.718,-1.7059,-1.6951,-1.6951,-1.6637,-1.6522,-1.6522,-1.6522,-1.6461,-1.6418,-1.6418,-1.6348,-1.6323,-1.6645,-1.6586,-1.6247,-1.6781,-1.6519,-1.5911,-1.6493,-1.6503,-1.6261,-1.6663,-1.6794,0.0,0.0,-1.6794,-1.6637,-1.5718,-1.5338,-1.5691,-1.7438,-1.7286,0.0,-1.6607,-1.6599,0.0,0.0,-1.4045,-1.3367,-1.2421,-1.2196,-1.1842,-1.0795,-1.0624,-1.0624,-1.0624,-1.0624,-1.0678,0.0,-1.0915,-1.1116,-1.145,-1.1717,-1.1997,-1.2412,-1.2452,-1.2553,-1.2795,-1.306,-1.3154,-1.2787,-1.348,-1.3471,-1.2608,-1.3205,-1.362,-1.362,-1.3447,-1.3588,-1.404,-1.4167,-1.4119,-1.3805,-1.2957,-1.1911,-1.0805,-0.9577,-0.8527,-0.7855,-0.7855,-0.7855,-0.7855,-0.7855,-0.7855,-0.7855,-0.7855,-0.7855,-0.7834,-0.7662,-0.76,-0.76,0.0,0.0,0.0,0.0,0.0,0.0,0.0,0.0,0.0,0.0,0.0,0.0,0.0,0.0,0.0,0.0,0.0,0.0,0.0,-1.7886,-1.6648,-1.6241,-1.675,-1.7141,-1.7306,-1.7435,-1.7504,-1.7504,-1.7105,-1.6879,-1.671,-1.671,-1.6637,-1.6522,-1.6522,-1.6522,-1.6547,-1.6974,-1.6856,-1.6392,-1.6943,-1.6761,-1.6119,-1.6667,-1.7048,-1.737,-1.8037,-1.8055,0.0,0.0,-1.8108,-1.7664,-1.6504,-1.602,-1.6343,-1.8178,-1.8079,-1.7161,-1.6202,0.0,0.0,-1.4775,-1.3666,-1.2831,-1.2647,-1.2134,-1.1518,-1.1058,-1.0744,-1.0688,-1.0863,-1.0812,-1.0748,-1.0962,-1.1129,-1.1383,-1.181,-1.1937,-1.2178,-1.2761,-1.2896,-1.2906,-1.2986,-1.3387,-1.3674,-1.3761,-1.3968,-1.4122,-1.4202,-1.4402,-1.4556,-1.4636,-1.493,-1.5084,-1.5084,-1.5164,-1.5304,-1.5518,-1.4172,-1.3121,-1.2431,-1.0779,-0.9312,-0.8038,-0.8038,-0.8038,-0.8038,-0.8038,-0.8038,-0.8038,-0.8038,-0.8038,-0.8014,-0.7801,-0.7723,-0.7723,0.0,0.0,0.0,0.0,0.0,0.0,0.0,0.0,0.0,0.0,0.0,0.0,0.0,0.0,0.0,0.0,0.0,0.0,0.0,-1.8902,-1.7883,-1.7264,-1.7407,-1.7607,-1.7856,-1.8033,-1.8066,-1.8066,-1.8066,-1.7787,-1.7271,-1.7271,-1.6993,-1.6522,-1.6522,-1.6522,-1.6522,-1.6534,-1.6504,-1.6554,-1.7174,-1.6978,-1.6362,-1.6894,-1.7642,-1.851,-1.9146,0.0,0.0,0.0,-1.8891,-1.8058,-1.7958,-1.7809,0.0,-1.9181,-2.0231,0.0,0.0,0.0,-1.6376,-1.4164,-1.2705,-1.1633,-1.085,-1.0667,-1.085,-1.1586,-1.117,-1.0863,-1.1648,-1.1347,-1.0982,-1.0995,-1.147,-1.185,-1.1864,-1.2111,-1.2405,-1.2788,-1.3013,-1.3307,0.0,-1.3552,-1.3761,-1.4048,-1.4082,-1.4208,-1.4489,-1.4516,-1.4656,-1.4943,-1.5231,-1.5384,-1.5384,-1.5665,-1.5805,-1.5818,-1.4447,-1.3866,-1.3776,-1.1161,-0.9312,-0.8038,-0.8038,-0.8038,-0.8038,-0.8038,-0.8038,-0.8038,-0.8038,-0.8038,-0.8038,-0.8028,-0.8024,-0.8024,0.0,0.0,0.0,0.0,0.0,0.0,0.0,0.0,0.0,0.0,0.0,0.0,0.0,0.0,0.0,0.0,0.0,0.0,0.0,-1.9579,-1.8687,-1.8317,-1.8092,-1.7999,-1.8117,-1.8238,-1.8432,-1.8612,-1.8263,-1.7827,-1.7312,-1.7312,-1.7188,-1.7034,-1.668,-1.671,-1.6993,-1.6637,-1.6522,-1.6534,-1.6735,-1.6666,-1.6571,-1.7839,-1.8764,-1.9704,0.0,0.0,0.0,0.0,0.0,0.0,-1.8559,0.0,-1.9604,-2.1211,-2.1483,-2.0988,0.0,0.0,-1.6754,-1.5221,-1.4078,-1.3295,-1.3053,-1.2573,-1.2274,-1.2512,-1.2785,-1.307,-1.3627,-1.3082,-1.268,-1.3132,-1.2472,-1.1937,-1.2131,-1.2238,-1.2485,-1.2993,-1.3146,0.0,0.0,0.0,0.0,-1.4082,-1.4262,-1.4416,-1.4516,-1.489,-1.515,-1.5251,-1.5531,-1.5685,-1.5685,-1.5778,-1.5832,-1.5825,-1.4555,-1.3392,-1.2528,-1.1653,-1.0583,-0.9316,-0.9316,-0.8821,-0.8038,-0.8038,-0.8038,-0.8038,-0.8038,-0.8038,-0.8038,-0.8038,-0.8038,-0.8038,0.0,0.0,0.0,0.0,0.0,0.0,0.0,0.0,0.0,0.0,0.0,0.0,0.0,0.0,0.0,0.0,0.0,0.0,0.0,0.0,-1.98,-1.9464,-1.9433,-1.9349,-1.9187,-1.9499,-1.976,-1.9959,-1.9337,-1.8749,-1.8278,-1.7985,-1.7787,-1.7544,-1.7034,-1.6993,-1.7271,-1.6909,-1.6954,-1.7206,-1.7383,-1.7571,-1.7915,-1.9194,-2.0152,0.0,0.0,0.0,0.0,0.0,0.0,0.0,0.0,-1.9849,-2.0944,-2.1741,-2.1674,-2.1,-1.9175,-1.7986,-1.6937,-1.5371,-1.4569,-1.4145,-1.3846,-1.3364,-1.307,-1.3373,-1.3959,-1.4523,-1.505,-1.4256,-1.3955,-1.5025,-1.3815,-1.2792,-1.3172,-1.315,-1.3103,-1.3212,-1.3213,-1.344,0.0,0.0,0.0,-1.4235,-1.4416,-1.4609,-1.4823,-1.519,-1.5444,-1.5545,-1.5732,-1.5832,-1.5832,-1.5832,-1.5832,-1.5825,-1.4949,-1.3878,-1.2624,-1.2624,-1.1945,-1.0681,-1.0681,-0.9899,-0.8726,-0.8726,-0.8432,-0.8038,-0.8038,-0.8038,-0.8038,-0.8038,-0.8038,-0.8038,0.0,0.0,0.0,0.0,0.0,0.0,0.0,0.0,0.0,0.0,0.0,0.0,0.0,0.0,0.0,0.0,0.0,0.0,0.0,0.0,0.0,-2.0723,-2.1276,-2.1405,-2.1045,-2.1579,-2.1887,-2.1894,-2.1126,-2.051,-2.0053,-1.9352,-1.8736,-1.8221,-1.7666,-1.7477,-1.7477,-1.7477,-1.7836,-1.8524,-1.8987,-1.9515,-2.0158,-2.091,0.0,0.0,0.0,0.0,0.0,0.0,0.0,0.0,0.0,0.0,-2.1744,-2.0803,-2.0885,-2.0647,-1.8028,-1.7258,-1.6714,-1.4777,-1.4273,-1.4085,-1.3312,-1.313,-1.3364,-1.4145,-1.4708,-1.5322,0.0,0.0,-1.4802,-1.659,-1.5288,-1.4226,-1.4765,-1.4609,-1.4175,0.0,0.0,0.0,0.0,0.0,0.0,-1.4603,0.0,-1.4796,-1.5364,-1.5411,-1.5545,-1.5818,-1.5832,-1.5832,-1.5832,-1.5832,-1.5832,-1.5832,-1.5832,-1.5146,-1.3974,-1.3974,-1.3295,-1.2042,-1.2042,-1.1263,-1.0096,-1.0096,-0.932,-0.8247,-0.8247,-0.8155,-0.8161,-0.8161,-0.8062,-0.8062,0.0,0.0,0.0,0.0,0.0,0.0,0.0,0.0,0.0,0.0,0.0,0.0,0.0,0.0,0.0,0.0,0.0,0.0,0.0,0.0,0.0,0.0,0.0,0.0,0.0,0.0,0.0,0.0,-2.1725,-2.1341,-2.0821,-2.0623,-2.048,-2.0319,-1.9728,-1.966,-2.0009,-1.9626,-1.958,-1.9734,0.0,-1.9947,-2.0256,0.0,0.0,0.0,0.0,0.0,0.0,0.0,0.0,0.0,0.0,0.0,-1.9615,-1.9846,-1.927,-1.8325,-1.7662,-1.6669,-1.5776,-1.5216,-1.5108,-1.505,-1.4805,-1.4815,-1.5031,-1.5881,-1.6854,-1.7919,0.0,0.0,0.0,-1.8102,-1.5606,0.0,-1.4956,-1.4442,0.0,0.0,0.0,-1.3748,-1.5155,-1.4573,0.0,0.0,-1.5273,-1.501,-1.5378,-1.5605,-1.5752,-1.5825,-1.5832,-1.5832,-1.5832,-1.5832,-1.5832,-1.5832,-1.5832,-1.5635,-1.5343,-1.5343,-1.4657,-1.3392,-1.3392,-1.2619,-1.1463,-1.1463,-1.1358,-1.1302,-1.1302,-1.0786,-0.9994,-0.9994,-0.9286,-0.8367,0.0,0.0,0.0,0.0,0.0,0.0,0.0,0.0,0.0,0.0,0.0,0.0,0.0,0.0,0.0,0.0,0.0,0.0,0.0,0.0,0.0,0.0,0.0,0.0,0.0,0.0,0.0,0.0,0.0,0.0,-2.1939,-2.1597,-2.1441,-2.1441,-2.0835,-2.0758,-2.1035,-2.0728,0.0,0.0,0.0,0.0,0.0,0.0,0.0,0.0,0.0,0.0,0.0,0.0,0.0,-1.9545,-1.9944,-1.9473,-1.8745,-1.88,0.0,-1.7346,-1.6725,-1.5985,-1.541,-1.541,-1.541,-1.5566,-1.6308,-1.6263,-1.6452,-1.7864,-1.8874,0.0,0.0,0.0,0.0,0.0,0.0,0.0,-1.5875,-1.5242,-1.4832,0.0,-1.4491,0.0,-1.6211,-1.5511,-1.5462,0.0,-1.5569,-1.515,-1.5565,-1.5738,-1.5832,-1.5832,-1.5832,-1.5832,-1.5832,-1.5832,-1.5832,-1.5832,-1.5832,-1.5899,-1.6025,-1.6025,-1.5693,-1.5108,-1.5108,-1.4416,-1.3127,-1.3127,-1.2909,-1.2526,-1.1914,-1.1271,-1.0642,-0.9924,-0.9205,-0.8482,0.0,0.0,0.0,0.0,0.0,0.0,0.0,0.0,0.0,0.0,0.0,0.0,0.0,0.0,0.0,0.0,0.0,0.0,0.0,0.0,0.0,0.0,0.0,0.0,0.0,0.0,0.0,0.0,0.0,0.0,0.0,0.0,0.0,0.0,0.0,0.0,0.0,0.0,0.0,0.0,0.0,0.0,0.0,0.0,0.0,0.0,0.0,0.0,0.0,0.0,-2.0784,-1.935,-1.9794,-1.9352,-1.8486,-1.7771,-1.7455,-1.7092,-1.5786,-1.541,-1.541,-1.541,-1.541,-1.5848,-1.747,-1.7372,-1.7533,-1.9771,0.0,-2.0958,-2.1401,0.0,-1.8874,-2.0396,0.0,-1.6645,-1.7012,-1.6474,-1.6191,-1.6363,-1.5549,-1.5678,-1.7349,-1.6659,-1.6324,-1.674,-1.5693,-1.5257,-1.5798,-1.5832,-1.5832,-1.5832,-1.5832,-1.5832,-1.5832,-1.5832,-1.5845,-1.5885,-1.5885,-1.6046,-1.6333,-1.6333,-1.6466,-1.6707,-1.6707,-1.6085,-1.5052,-1.5052,-1.4361,-1.327,-1.1817,-1.1209,-1.0819,-0.9373,-0.8751,-0.8543,0.0,0.0,0.0,0.0,0.0,0.0,0.0,0.0,0.0,0.0,0.0,0.0,0.0,0.0,0.0,0.0,0.0,0.0,0.0,0.0,0.0,0.0,0.0,0.0,0.0,0.0,0.0,0.0,0.0,0.0,0.0,0.0,0.0,0.0,0.0,0.0,0.0,0.0,0.0,0.0,0.0,0.0,0.0,0.0,0.0,0.0,0.0,0.0,0.0,0.0,-2.0498,-1.8549,-1.8869,-1.8419,-1.7682,-1.6925,-1.6687,-1.6461,-1.5633,-1.541,-1.541,-1.541,-1.541,-1.5848,-1.7633,-1.7429,0.0,0.0,0.0,-2.1343,-2.2629,-2.1362,0.0,-2.0247,0.0,0.0,0.0,0.0,-1.6714,0.0,0.0,0.0,0.0,0.0,0.0,0.0,0.0,-1.5471,-1.5812,-1.5832,-1.5832,-1.5832,-1.5832,-1.5832,-1.5832,-1.5832,-1.5952,-1.6192,-1.6192,-1.6346,-1.6627,-1.6627,-1.666,-1.6707,-1.6707,0.0,-1.6393,-1.6393,-1.6436,-1.6337,-1.4861,-1.3725,-1.2719,-1.122,-0.9825,-0.8859,0.0,0.0,0.0,0.0,0.0,0.0,0.0,0.0,0.0,0.0,0.0,0.0,0.0,0.0,0.0,0.0,0.0,0.0,0.0,0.0,0.0,0.0,0.0,0.0,0.0,0.0,0.0,0.0,0.0,0.0,0.0,0.0,0.0,0.0,0.0,0.0,0.0,0.0,0.0,0.0,0.0,0.0,0.0,0.0,0.0,0.0,0.0,0.0,0.0,0.0,-2.0491,-1.8845,-1.8761,-1.8167,-1.7523,-1.7202,-1.681,-1.6436,-1.6093,-1.569,-1.541,-1.541,-1.541,-1.6073,-1.8725,0.0,0.0,0.0,0.0,-2.215,-2.305,0.0,0.0,0.0,0.0,0.0,0.0,0.0,0.0,0.0,0.0,0.0,0.0,0.0,0.0,0.0,0.0,-1.705,-1.5818,-1.5832,-1.5832,-1.5832,-1.5832,-1.5832,-1.5832,-1.5985,-1.6132,-1.6279,-1.6426,-1.6653,-1.6934,-1.6934,-1.7021,-1.7161,-1.7161,-1.7161,-1.7161,-1.7161,-1.7248,-1.7264,-1.5767,-1.4881,-1.4126,-1.186,-1.0672,-0.9915,0.0,0.0,0.0,0.0,0.0,0.0,0.0,0.0,0.0,0.0,0.0,0.0,0.0,0.0,0.0,0.0,0.0,0.0,0.0,0.0,0.0,0.0,0.0,0.0,0.0,0.0,0.0,0.0,0.0,0.0,0.0,0.0,0.0,0.0,0.0,0.0,0.0,0.0,0.0,0.0,0.0,0.0,0.0,0.0,0.0,0.0,0.0,0.0,0.0,0.0,-2.085,-1.9954,-1.9431,-1.8835,-1.8305,-1.8174,-1.7709,-1.718,-1.681,-1.6197,-1.569,-1.5853,-1.5748,-1.6519,-1.9939,-1.9752,0.0,0.0,-2.342,-2.2856,-2.3231,0.0,0.0,0.0,0.0,0.0,0.0,0.0,0.0,0.0,0.0,0.0,0.0,0.0,0.0,0.0,0.0,-1.8672,-1.6655,-1.656,-1.6473,-1.6197,-1.6204,-1.6109,-1.5832,-1.6126,-1.6306,-1.6373,-1.666,-1.6954,-1.7241,-1.7241,-1.7368,-1.7582,-1.7582,-1.7582,-1.7582,-1.7582,-1.7582,-1.747,-1.5956,-1.5417,-1.5097,-1.2512,-1.1538,-1.1433,0.0,0.0,0.0,0.0,0.0,0.0,0.0,0.0,0.0,0.0,0.0,0.0,0.0,0.0,0.0,0.0,0.0,0.0,0.0,0.0,0.0,0.0,0.0,0.0,0.0,0.0,0.0,0.0,0.0,0.0,0.0,0.0,0.0,0.0,0.0,0.0,0.0,0.0,0.0,0.0,0.0,0.0,0.0,0.0,0.0,0.0,0.0,0.0,0.0,0.0,0.0,-2.1926,-2.1384,-2.1008,-2.0594,-2.0128,0.0,0.0,-1.7884,-1.6978,-1.6539,-1.7246,-1.6922,-1.7318,-2.0871,0.0,0.0,0.0,-2.3702,-2.3098,-2.3577,-2.3681,0.0,0.0,0.0,0.0,0.0,0.0,0.0,0.0,0.0,0.0,0.0,0.0,0.0,0.0,0.0,-1.9405,-1.9123,-1.9131,-1.868,-1.7598,-1.7505,-1.6943,-1.5832,-1.6126,-1.6406,-1.6667,-1.6967,-1.7261,-1.7542,-1.7542,-1.7555,-1.7582,-1.7582,-1.7582,-1.7582,-1.7582,-1.7582,-1.747,-1.5956,-1.5417,-1.5198,-1.3696,-1.3053,-1.3048,0.0,0.0,0.0,0.0,0.0,0.0,0.0,0.0,0.0,0.0,0.0,0.0,0.0,0.0,0.0,0.0,0.0,0.0,0.0,0.0,0.0,0.0,0.0,0.0,0.0,0.0,0.0,0.0,0.0,0.0,0.0,0.0,0.0,0.0,0.0,0.0,0.0,0.0,0.0,0.0,0.0,0.0,0.0,0.0,0.0,0.0,0.0,0.0,0.0,0.0,0.0,0.0,-2.3088,-2.2978,0.0,0.0,-2.033,-1.9647,-1.8584,-1.7743,-1.7246,-1.7523,-1.7599,-1.8363,-2.1146,0.0,0.0,-2.3634,-2.3601,-2.3151,-2.3286,-2.3612,-2.3682,0.0,0.0,0.0,0.0,0.0,0.0,0.0,0.0,0.0,0.0,0.0,0.0,0.0,-2.1766,-2.1676,-2.1676,-2.0314,-1.9314,-1.8772,-1.8772,-1.8226,-1.6943,-1.7445,-1.7267,-1.6714,-1.7188,-1.7468,-1.7582,-1.7582,-1.7582,-1.7582,-1.7582,-1.7582,-1.7582,-1.7582,-1.7582,-1.7582,-1.6935,-1.6717,-1.6499,-1.5097,-1.4556,-1.4449,0.0,0.0,0.0,0.0,0.0,0.0,0.0,0.0,0.0,0.0,0.0,0.0,0.0,0.0,0.0,0.0,0.0,0.0,0.0,0.0,0.0,0.0,0.0,0.0,0.0,0.0,0.0,0.0,0.0,0.0,0.0,0.0,0.0,0.0,0.0,0.0,0.0,0.0,0.0,0.0,0.0,0.0,0.0,0.0,0.0,0.0,0.0,0.0,0.0,0.0,0.0,0.0,0.0,0.0,0.0,0.0,-2.126,-2.038,-1.9569,-1.865,-1.7961,-1.8178,-1.8507,-1.9332,0.0,0.0,-2.1903,-2.39,-2.3868,-2.3499,-2.3339,-2.3616,-2.3891,-2.3747,0.0,-2.2201,0.0,0.0,0.0,0.0,0.0,0.0,0.0,0.0,0.0,0.0,-2.3135,-2.3135,-2.3135,-2.1498,-2.0404,-2.0034,-2.0034,-1.9314,-1.7692,-1.8238,-1.7874,-1.6714,-1.7301,-1.7582,-1.7582,-1.7582,-1.7582,-1.7582,-1.7582,-1.7582,-1.7582,-1.7582,-1.7582,-1.7582,-1.7582,-1.7582,-1.747,-1.6393,-1.6062,-1.5956,0.0,0.0,0.0,0.0,0.0,0.0,0.0,0.0,0.0,0.0,0.0,0.0,0.0,0.0,0.0,0.0,0.0,0.0,0.0,0.0,0.0,0.0,0.0,0.0,0.0,0.0,0.0,-2.4284,-2.4247,-2.417,0.0,0.0,0.0,0.0,0.0,0.0,0.0,0.0,0.0,0.0,0.0,0.0,0.0,0.0,0.0,0.0,0.0,0.0,0.0,0.0,0.0,0.0,0.0,0.0,0.0,0.0,-2.301,-2.1997,-2.121,-1.9851,-1.8874,-1.9579,-1.9606,-2.0128,0.0,0.0,-2.33,-2.4869,-2.4702,-2.4272,-2.4109,-2.4006,-2.3949,-2.4054,-2.3688,0.0,0.0,0.0,0.0,0.0,0.0,0.0,0.0,0.0,0.0,0.0,-2.3135,0.0,-2.3135,-2.3047,-2.2492,-2.1293,-2.1293,-2.0124,-1.7692,-1.8238,-1.7874,-1.6714,-1.7301,-1.7582,-1.7582,-1.7582,-1.7582,-1.7582,-1.7582,-1.7582,-1.7582,-1.7582,-1.7582,-1.7582,-1.7582,-1.7582,-1.7582,-1.7582,-1.7582,-1.7582,0.0,0.0,0.0,0.0,0.0,0.0,0.0,0.0,0.0,0.0,0.0,0.0,0.0,0.0,0.0,0.0,0.0,0.0,0.0,0.0,0.0,0.0,0.0,0.0,0.0,0.0,-2.4394,-2.4376,-2.4303,-2.4266,-2.4247,-2.4172,0.0,0.0,0.0,0.0,0.0,0.0,0.0,0.0,0.0,0.0,0.0,0.0,0.0,0.0,0.0,0.0,0.0,0.0,0.0,0.0,0.0,0.0,0.0,0.0,0.0,0.0,-2.209,-2.1431,-2.1046,-2.1073,-2.128,-2.1849,-2.3414,-2.3597,-2.3855,-2.5163,-2.5123,-2.4662,-2.4286,-2.4388,-2.439,-2.4008,-2.37,0.0,0.0,0.0,0.0,0.0,0.0,0.0,0.0,0.0,0.0,-2.2676,-2.2978,-2.3135,-2.3135,-2.3135,-2.295,-2.258,-2.2492,-2.1765,-2.0215,-1.9678,-1.8893,-1.798,-1.7503,-1.7388,-1.7582,-1.7582,-1.7582,-1.7582,-1.7582,-1.7582,-1.7582,-1.7582,-1.7582,-1.7582,-1.7582,-1.7582,-1.7582,-1.7582,-1.7582,-1.7582,0.0,0.0,0.0,0.0,0.0,0.0,0.0,0.0,0.0,0.0,0.0,0.0,0.0,0.0,0.0,0.0,0.0,0.0,0.0,0.0,0.0,0.0,0.0,0.0,0.0,-2.4447,-2.443,-2.4394,-2.4358,-2.4321,-2.4284,-2.4266,-2.4247,-2.4247,0.0,0.0,0.0,0.0,0.0,0.0,0.0,0.0,-2.3743,0.0,0.0,0.0,0.0,0.0,0.0,0.0,0.0,0.0,0.0,0.0,0.0,0.0,-2.4342,0.0,0.0,-2.2381,-2.2025,-2.1744,-2.2283,0.0,0.0,-2.4361,-2.4843,-2.5901,-2.574,-2.5264,-2.4887,-2.4859,-2.4734,-2.4229,-2.3923,0.0,0.0,0.0,0.0,0.0,0.0,0.0,0.0,0.0,-2.206,-2.248,-2.29,-2.3135,-2.3135,-2.3135,-2.3135,-2.3135,-2.3135,-2.2492,-2.1293,-2.0867,-1.9865,-1.8379,-1.8046,-1.775,-1.7422,-1.7528,-1.7582,-1.7582,-1.7582,-1.7582,0.0,-1.7582,-1.7582,-1.7582,-1.7582,-1.7582,-1.7582,-1.7582,-1.7582,-1.7582,0.0,0.0,0.0,0.0,0.0,0.0,0.0,0.0,0.0,0.0,0.0,0.0,0.0,0.0,0.0,0.0,0.0,0.0,0.0,0.0,0.0,0.0,0.0,0.0,0.0,-2.45,-2.4465,-2.4412,-2.4412,-2.4394,-2.4303,-2.4321,-2.4321,-2.4321,-2.4303,0.0,0.0,0.0,0.0,0.0,0.0,0.0,0.0,0.0,0.0,0.0,0.0,0.0,0.0,0.0,0.0,0.0,0.0,0.0,0.0,0.0,0.0,0.0,0.0,0.0,0.0,0.0,0.0,0.0,0.0,-2.5185,0.0,-2.6857,-2.6525,-2.6014,-2.577,-2.5342,-2.4948,-2.4677,0.0,0.0,0.0,0.0,0.0,0.0,0.0,0.0,0.0,0.0,-2.2041,-2.2441,-2.2881,-2.3135,-2.3135,-2.3135,-2.3135,-2.3135,-2.3135,-2.258,-2.148,-2.169,-2.0585,-1.8369,-1.879,-1.8405,-1.736,-1.7533,-1.7562,0.0,-1.7582,-1.7582,-1.7582,-1.7582,-1.7582,-1.7582,-1.7582,-1.7582,-1.7582,-1.7582,-1.7582,-1.7582,0.0,0.0,0.0,0.0,0.0,0.0,0.0,0.0,0.0,0.0,0.0,0.0,0.0,0.0,0.0,0.0,0.0,0.0,0.0,0.0,0.0,0.0,0.0,0.0,0.0,-2.4482,-2.45,-2.4482,-2.4482,-2.4465,-2.4446,-2.4412,-2.4376,-2.4358,-2.4321,0.0,0.0,0.0,0.0,0.0,0.0,0.0,0.0,0.0,0.0,0.0,-2.2893,-2.2993,0.0,0.0,0.0,0.0,0.0,0.0,0.0,0.0,-2.5033,-2.5224,-2.4614,0.0,-2.3709,-2.3406,0.0,0.0,0.0,0.0,0.0,0.0,0.0,0.0,0.0,0.0,0.0,0.0,0.0,0.0,0.0,0.0,0.0,0.0,0.0,0.0,0.0,0.0,-2.1924,-2.2031,-2.2715,-2.3135,-2.3135,-2.3135,-2.3135,-2.3135,-2.3135,-2.296,-2.2677,-2.1857,-2.1236,-2.0898,-1.9184,-1.8368,-1.8557,-1.7723,-1.7375,-1.7582,-1.7582,-1.7582,-1.7582,-1.7582,-1.7582,-1.7582,-1.7582,-1.7582,-1.7582,-1.7582,-1.7582,-1.7582,0.0,0.0,0.0,0.0,0.0,0.0,0.0,0.0,0.0,0.0,0.0,0.0,0.0,0.0,0.0,0.0,0.0,0.0,0.0,0.0,0.0,0.0,0.0,0.0,-2.4358,-2.443,-2.4447,-2.4447,-2.4482,-2.4482,-2.4447,-2.4412,-2.4394,-2.4358,-2.4321,0.0,0.0,0.0,0.0,0.0,-2.3678,0.0,0.0,0.0,0.0,0.0,-2.2868,-2.289,0.0,-2.3169,-2.3405,-2.3699,0.0,0.0,0.0,0.0,-2.535,-2.5355,-2.4966,-2.4645,-2.4317,-2.3925,-2.455,-2.5273,0.0,0.0,0.0,0.0,0.0,0.0,0.0,0.0,0.0,0.0,0.0,0.0,0.0,0.0,0.0,0.0,0.0,0.0,0.0,-2.1541,-2.1885,-2.1885,-2.2666,-2.3135,-2.3135,-2.3135,-2.3135,-2.3135,-2.3135,-2.3135,-2.3135,-2.2492,-2.1965,-2.1554,-2.034,-1.9399,-1.861,-1.8218,-1.7839,-1.7388,-1.7522,-1.7582,-1.7582,-1.7582,-1.7582,-1.7582,-1.7582,-1.7582,-1.7582,-1.7582,-1.7582,-1.7582,0.0,0.0,0.0,0.0,0.0,0.0,0.0,0.0,0.0,0.0,0.0,0.0,0.0,0.0,0.0,0.0,0.0,0.0,0.0,0.0,0.0,0.0,0.0,-2.4284,-2.4284,-2.4339,-2.4394,-2.4358,-2.4447,-2.4447,-2.4358,-2.4358,-2.4339,-2.4266,-2.4266,-2.4247,0.0,0.0,0.0,0.0,-2.3634,0.0,0.0,0.0,0.0,0.0,0.0,0.0,0.0,-2.3253,-2.3463,-2.376,-2.4863,0.0,0.0,0.0,0.0,0.0,-2.5084,-2.4686,-2.4291,-2.4046,-2.4986,-2.5893,0.0,0.0,0.0,0.0,0.0,0.0,0.0,0.0,0.0,0.0,0.0,0.0,0.0,0.0,0.0,0.0,0.0,0.0,-2.0688,-2.1399,-2.1885,-2.1885,-2.2666,-2.3135,-2.3135,-2.3135,-2.3135,-2.3135,-2.3135,-2.3135,-2.3135,-2.3135,-2.2589,-2.1578,-2.1662,-2.0653,-1.8663,-1.8844,-1.8333,-1.7395,-1.7492,-1.7515,-1.7522,-1.7562,-1.7582,-1.7582,-1.7582,-1.7582,-1.7582,-1.7582,-1.7582,-1.7582,0.0,0.0,0.0,0.0,0.0,0.0,0.0,0.0,0.0,0.0,0.0,0.0,0.0,0.0,0.0,0.0,0.0,0.0,0.0,0.0,0.0,0.0,-2.421,-2.421,-2.421,-2.4284,-2.4284,-2.4229,-2.4303,-2.4284,-2.4229,-2.4229,-2.4247,-2.4209,-2.4209,-2.4152,-2.4036,-2.3896,-2.3792,-2.3682,-2.3585,0.0,0.0,0.0,0.0,0.0,0.0,0.0,0.0,-2.3592,-2.4613,-2.605,-2.5547,0.0,0.0,0.0,0.0,0.0,-2.5084,-2.4323,-2.3885,-2.4767,-2.5424,-2.5967,0.0,0.0,0.0,0.0,0.0,0.0,0.0,0.0,0.0,0.0,0.0,0.0,0.0,0.0,0.0,0.0,0.0,-2.0302,-2.1007,-2.161,-2.1885,-2.1885,-2.2666,-2.3135,-2.3135,-2.3135,-2.3135,-2.3135,-2.3135,-2.3135,-2.3135,-2.3135,-2.3047,-2.2775,-2.182,-2.1309,-2.1186,-1.9129,-1.8274,-1.8258,-1.7585,-1.7215,-1.7235,-1.7482,-1.7582,-1.7582,-1.7582,-1.7582,-1.7582,-1.7582,-1.7582,-1.7582,0.0,0.0,0.0,0.0,0.0,0.0,0.0,0.0,0.0,0.0,0.0,0.0,0.0,0.0,0.0,0.0,0.0,0.0,0.0,0.0,0.0,-2.4153,-2.419,-2.4209,-2.4209,-2.4228,-2.4228,-2.4209,-2.4228,-2.4209,-2.4153,-2.4153,-2.4171,-2.419,-2.419,-2.4151,-2.4036,-2.3876,-2.3771,-2.3739,0.0,0.0,0.0,0.0,0.0,0.0,0.0,0.0,0.0,0.0,-2.5365,-2.6067,-2.6084,0.0,0.0,0.0,0.0,0.0,-2.5005,-2.4492,-2.4131,-2.4551,-2.4425,-2.4293,0.0,0.0,0.0,0.0,0.0,0.0,0.0,0.0,0.0,0.0,0.0,0.0,0.0,0.0,0.0,0.0,0.0,-2.0656,-2.0823,-2.1263,-2.1631,-2.1865,-2.2451,-2.29,-2.3125,-2.3135,-2.3135,-2.3135,-2.3135,-2.3135,-2.3135,-2.3135,-2.3135,-2.3047,-2.258,-2.2045,-2.15,-2.0517,-1.9478,-1.8312,-1.8052,-1.7597,-1.7161,-1.7295,-1.7442,-1.7582,-1.7582,-1.7582,-1.7582,-1.7582,-1.7582,-1.7582,0.0,0.0,0.0,0.0,0.0,0.0,0.0,0.0,0.0,0.0,0.0,0.0,0.0,0.0,0.0,0.0,0.0,0.0,0.0,0.0,-2.3327,-2.4154,-2.419,-2.419,-2.419,-2.417,-2.417,-2.4151,-2.4151,-2.4132,-2.4074,-2.4074,-2.4094,-2.4151,-2.4151,-2.4132,-2.4036,-2.3876,-2.3789,-2.3761,0.0,0.0,0.0,0.0,0.0,0.0,0.0,0.0,0.0,0.0,0.0,0.0,0.0,0.0,0.0,-2.5793,-2.5623,-2.546,-2.4815,-2.448,-2.4284,-2.4134,0.0,-2.3496,-2.3055,0.0,0.0,0.0,0.0,0.0,0.0,0.0,0.0,0.0,0.0,0.0,0.0,0.0,0.0,0.0,-2.141,-2.1025,-2.0672,-2.0967,-2.1367,-2.1709,-2.2217,-2.2656,-2.2969,-2.3086,-2.3135,-2.3135,-2.3135,-2.3135,-2.3135,-2.3135,-2.3135,-2.3135,-2.3135,-2.2589,-2.1765,-2.1726,-2.066,-1.8816,-1.887,-1.8291,-1.7447,-1.7516,-1.7524,-1.7482,-1.7482,-1.7522,-1.7582,-1.7582,-1.7582,-1.7582,0.0,0.0,0.0,0.0,0.0,0.0,0.0,0.0,0.0,0.0,0.0,0.0,0.0,0.0,0.0,0.0,0.0,0.0,0.0,0.0,-2.329,-2.4155,-2.419,-2.419,-2.419,-2.4151,-2.4074,-2.4016,-2.4016,-2.4016,-2.4016,-2.4016,-2.4016,-2.4016,-2.4016,-2.3976,-2.3896,-2.3828,-2.3765,-2.37,-2.3544,0.0,0.0,0.0,0.0,0.0,0.0,0.0,0.0,0.0,0.0,0.0,0.0,0.0,-2.6282,-2.5184,-2.5232,-2.5384,-2.4419,-2.394,-2.3749,-2.3752,0.0,0.0,-2.4085,0.0,0.0,0.0,0.0,0.0,0.0,0.0,0.0,0.0,0.0,0.0,0.0,0.0,0.0,-2.0822,-2.1,-2.1025,-2.0672,-2.0967,-2.125,-2.1279,-2.2051,-2.2519,-2.2559,-2.293,-2.3135,-2.3135,-2.3135,-2.3135,-2.3135,-2.3135,-2.3135,-2.3135,-2.3135,-2.3047,-2.296,-2.1882,-2.1248,-2.0997,-2.018,-1.9146,-1.8075,-1.8272,-1.7895,-1.7181,-1.7181,-1.7341,-1.7582,-1.7582,-1.7582,-1.7582,0.0,0.0,0.0,0.0,0.0,0.0,0.0,0.0,0.0,0.0,0.0,0.0,0.0,0.0,0.0,0.0,0.0,0.0,0.0,0.0,-2.3364,-2.4229,-2.4229,-2.4191,-2.4191,-2.4095,-2.3996,-2.3937,-2.3896,-2.3876,-2.3876,-2.3876,-2.3896,-2.3937,-2.3937,-2.3896,-2.3855,-2.3807,-2.3739,-2.3629,-2.3494,-2.3407,0.0,0.0,0.0,0.0,0.0,0.0,0.0,0.0,-2.68,-2.6909,-2.6842,-2.6623,-2.6162,-2.5155,-2.5203,-2.5368,-2.4264,-2.3798,-2.3591,-2.3591,0.0,0.0,0.0,0.0,0.0,0.0,0.0,0.0,0.0,0.0,0.0,0.0,0.0,0.0,0.0,0.0,-2.2437,-2.2332,-2.1625,-2.1238,-2.1476,-2.1093,-2.0937,-2.1211,-2.1533,-2.1836,-2.2109,-2.2519,-2.2754,-2.2754,-2.2998,-2.3135,-2.3135,-2.3135,-2.3135,-2.3135,-2.3135,-2.3135,-2.3047,-2.2589,-2.2031,-2.1302,-2.0905,-2.0189,-1.9202,-1.849,-1.816,-1.7974,-1.7374,-1.7328,-1.7582,-1.7582,-1.7582,-1.7582,0.0,0.0,0.0,0.0,0.0,0.0,0.0,0.0,0.0,0.0,0.0,0.0,0.0,0.0,0.0,0.0,0.0,0.0,0.0,-2.3235,-2.3658,-2.4266,-2.4247,-2.4192,-2.4191,-2.4075,-2.3976,-2.3896,-2.3837,-2.3795,-2.3792,-2.3792,-2.3813,-2.3852,0.0,0.0,0.0,-2.3765,-2.3696,-2.3585,-2.3522,-2.3476,0.0,0.0,0.0,0.0,0.0,0.0,0.0,0.0,-2.7087,-2.6926,-2.6893,-2.6674,-2.6232,-2.5328,-2.5275,-2.5277,-2.4011,-2.3782,-2.3803,0.0,0.0,0.0,0.0,0.0,0.0,0.0,0.0,0.0,0.0,0.0,0.0,0.0,0.0,0.0,0.0,-2.2874,-2.2843,-2.3261,-2.2466,-2.1865,-2.1964,-2.1451,-2.1063,-2.0996,-2.1152,-2.1367,-2.167,-2.208,-2.2314,-2.2314,-2.2725,-2.2939,-2.2939,-2.3076,-2.3135,-2.3135,-2.3135,-2.3135,-2.3135,-2.3135,-2.2677,-2.1845,-2.1845,-2.1275,-2.0315,-1.9487,-1.9043,-1.8911,-1.8367,-1.8186,-1.806,-1.806,-1.7809,-1.7582,0.0,0.0,0.0,0.0,0.0,0.0,0.0,0.0,0.0,0.0,0.0,0.0,0.0,0.0,0.0,0.0,0.0,0.0,0.0,-2.375,-2.4228,-2.4303,-2.4247,-2.4191,-2.419,-2.4074,-2.3976,-2.3896,-2.3837,-2.3792,-2.3804,-2.3804,-2.3743,-2.37,0.0,0.0,0.0,0.0,-2.3674,-2.3607,-2.3656,-2.3611,-2.3494,0.0,0.0,0.0,0.0,0.0,0.0,0.0,-2.7233,-2.6975,-2.6926,-2.6759,-2.6437,-2.5648,-2.5398,-2.5077,-2.3616,-2.399,0.0,0.0,0.0,0.0,0.0,0.0,0.0,0.0,0.0,0.0,0.0,0.0,0.0,0.0,0.0,0.0,-2.2975,-2.3078,-2.3158,-2.328,-2.3278,-2.2983,-2.2083,-2.2027,-2.1593,-2.0634,-2.0977,-2.123,-2.123,-2.1641,-2.1875,-2.1875,-2.2285,-2.251,-2.251,-2.292,-2.3125,-2.3135,-2.3135,-2.3135,-2.3135,-2.3135,-2.3135,-2.3135,-2.3135,-2.2403,-2.1293,-2.1293,-2.0793,-1.9964,-2.0238,-1.9823,-1.9048,-1.9048,-1.8437,-1.7681,0.0,0.0,0.0,0.0,0.0,0.0,0.0,0.0,0.0,0.0,0.0,0.0,0.0,0.0,0.0,0.0,0.0,0.0,0.0,-2.4004,-2.4228,-2.4303,-2.4247,-2.421,-2.4266,-2.4095,-2.3937,-2.3816,-2.381,-2.3786,-2.3721,-2.3674,-2.3652,-2.3629,0.0,0.0,0.0,0.0,-2.3674,-2.3607,-2.3607,-2.3562,-2.3448,0.0,0.0,0.0,0.0,0.0,0.0,0.0,0.0,0.0,-2.7023,-2.6875,-2.6522,-2.5762,-2.5661,-2.5575,-2.4535,0.0,0.0,0.0,0.0,0.0,0.0,0.0,0.0,0.0,0.0,0.0,0.0,0.0,0.0,-2.2923,-2.227,-2.187,-2.2975,-2.3078,-2.328,-2.3751,-2.3472,-2.3062,-2.2573,-2.2211,-2.1593,-2.0634,-2.0684,-2.0762,-2.0762,-2.1191,-2.1426,-2.1426,-2.1846,-2.207,-2.207,-2.2197,-2.2402,-2.2705,-2.2705,-2.2852,-2.3135,-2.3135,-2.3135,-2.3135,-2.3135,-2.2862,-2.2492,-2.1658,-2.0793,-1.9939,-2.0046,-2.003,-1.9955,-1.9955,-1.9831,-1.946,0.0,0.0,0.0,0.0,0.0,0.0,0.0,0.0,0.0,0.0,0.0,0.0,0.0,0.0,0.0,0.0,0.0,0.0,0.0,0.0,-2.4075,-2.4172,-2.4135,-2.4115,-2.4135,-2.4018,-2.406,-2.4241,-2.3912,-2.3747,-2.3721,-2.3607,-2.3562,-2.3562,0.0,-2.3585,0.0,0.0,-2.3629,-2.3607,-2.3629,-2.3522,-2.3442,0.0,0.0,0.0,0.0,0.0,0.0,0.0,0.0,0.0,-2.7215,0.0,-2.669,-2.5731,-2.5957,-2.6024,-2.4021,0.0,0.0,0.0,0.0,0.0,0.0,0.0,0.0,0.0,0.0,0.0,0.0,0.0,0.0,-2.2279,-2.1975,-2.187,-2.2975,-2.3078,-2.3351,-2.3929,-2.3735,-2.3478,-2.3293,-2.2683,-2.1988,-2.1211,-2.0789,-2.0566,-2.0566,-2.082,-2.0967,-2.0967,-2.1396,-2.1621,-2.1621,-2.1797,-2.2012,-2.2266,-2.2266,-2.248,-2.2891,-2.3066,-2.3135,-2.3135,-2.3135,-2.3135,-2.3047,-2.2306,-2.1715,-2.1198,-2.1198,-2.1076,-2.0942,-2.0942,-2.0741,-2.0313,0.0,0.0,0.0,0.0,0.0,0.0,0.0,0.0,0.0,0.0,0.0,0.0,0.0,0.0,0.0,0.0,0.0,0.0,0.0,0.0,-2.3855,-2.3976,-2.3996,-2.3958,-2.3917,-2.3917,-2.4254,-2.4937,-2.418,-2.3873,-2.3999,0.0,-2.3718,-2.3647,0.0,-2.3593,0.0,-2.3679,-2.3715,-2.3755,-2.3876,-2.3804,-2.3732,-2.4534,0.0,0.0,0.0,0.0,0.0,0.0,0.0,0.0,-2.7404,-2.7261,-2.6889,-2.5799,-2.6253,-2.633,0.0,0.0,0.0,0.0,0.0,0.0,0.0,0.0,0.0,0.0,0.0,0.0,0.0,0.0,0.0,-2.1415,-2.1493,-2.187,-2.2975,-2.3078,-2.3265,-2.3853,-2.3966,-2.3986,-2.4062,-2.3259,-2.249,-2.2008,-2.1171,-2.0672,-2.0634,-2.0566,-2.0566,-2.0566,-2.0957,-2.1172,-2.1172,-2.1572,-2.1787,-2.1826,-2.1826,-2.2051,-2.2471,-2.2891,-2.3105,-2.3135,-2.3135,-2.3135,-2.3135,-2.3135,-2.3135,-2.3135,-2.3135,-2.265,-2.1879,-2.1879,-2.1342,-2.067,0.0,0.0,0.0,0.0,0.0,0.0,0.0,0.0,0.0,0.0,0.0,0.0,0.0,0.0,0.0,0.0,0.0,0.0,0.0,0.0,-2.3728,-2.3774,-2.3917,-2.4016,-2.4054,-2.4113,-2.4496,-2.5218,-2.4864,-2.5005,0.0,0.0,0.0,-2.4604,0.0,-2.4284,0.0,-2.4418,-2.4685,-2.4753,-2.533,-2.5512,-2.547,-2.5697,-2.6086,0.0,0.0,0.0,0.0,0.0,0.0,0.0,-2.7526,-2.7355,-2.7053,-2.6855,-2.6452,-2.5905,0.0,0.0,0.0,0.0,0.0,0.0,0.0,0.0,0.0,0.0,0.0,0.0,0.0,0.0,-2.0319,-2.136,-2.1493,-2.187,-2.2975,-2.3078,-2.3175,-2.3314,-2.3715,-2.3689,-2.2959,-2.3073,-2.2684,-2.145,-2.1207,-2.0933,-2.0624,-2.0566,-2.0566,-2.0566,-2.0654,-2.0713,-2.0713,-2.0801,-2.1025,-2.1377,-2.1377,-2.1602,-2.2031,-2.2461,-2.2822,-2.3135,-2.3135,-2.3135,-2.3135,-2.3135,-2.3135,-2.3135,-2.3135,-2.3018,-2.2821,-2.2821,-2.2691,-2.2447,0.0,0.0,0.0,0.0,0.0,0.0,0.0,0.0,0.0,0.0,0.0,0.0,0.0,0.0,0.0,0.0,0.0,0.0,0.0,0.0,0.0,-2.3598,-2.3789,-2.3915,-2.3955,-2.4379,-2.496,-2.5739,-2.6027,0.0,0.0,0.0,0.0,-2.5474,0.0,-2.5211,0.0,-2.5288,-2.551,-2.5564,-2.5984,-2.6099,-2.6056,-2.6464,-2.6708,-2.6853,-2.7307,0.0,0.0,0.0,0.0,0.0,0.0,0.0,-2.725,-2.6962,-2.7142,-2.7031,0.0,0.0,0.0,0.0,0.0,0.0,0.0,0.0,0.0,0.0,0.0,0.0,0.0,-1.9798,-2.0087,-2.0953,-2.1317,-2.1782,-2.2623,-2.2915,-2.3078,-2.3078,-2.3401,-2.3492,-2.3225,-2.303,-2.2712,-2.2243,-2.1368,-2.0938,-2.0888,-2.0473,-2.0352,-2.0557,-2.0566,-2.0566,-2.0566,-2.0566,-2.0684,-2.0918,-2.0918,-2.1143,-2.1592,-2.2227,-2.2627,-2.2852,-2.3057,-2.3135,-2.3135,-2.3135,-2.3135,-2.3135,-2.3135,-2.3135,-2.3135,-2.3135,-2.3135,-2.3076,0.0,0.0,0.0,0.0,0.0,0.0,0.0,0.0,0.0,0.0,0.0,0.0,0.0,0.0,0.0,0.0,0.0,0.0,0.0,0.0,0.0,0.0,-2.3678,-2.384,-2.3991,-2.4686,-2.5502,-2.6421,0.0,0.0,0.0,0.0,0.0,-2.6315,0.0,0.0,0.0,-2.6182,-2.6285,-2.6333,-2.6525,-2.6555,-2.6536,-2.7191,-2.7271,-2.7138,-2.7895,-2.8071,-2.8014,-2.8014,0.0,0.0,0.0,0.0,-2.7365,-2.6911,-2.7774,-2.8209,0.0,0.0,0.0,0.0,0.0,0.0,0.0,0.0,0.0,0.0,0.0,0.0,0.0,-1.9798,-1.9987,-2.0618,-2.1054,-2.1568,-2.2221,-2.2711,-2.3025,-2.3065,-2.3078,-2.3326,-2.3803,-2.3103,-2.2786,-2.3112,-2.1776,-2.096,-2.1063,-2.0444,-2.0151,-2.0439,-2.0449,-2.0488,-2.0566,-2.0566,-2.0566,-2.0566,-2.0566,-2.0762,-2.1143,-2.1934,-2.2334,-2.2432,-2.2852,-2.3027,-2.3037,-2.3105,-2.3135,-2.3135,-2.3135,-2.3135,-2.3135,-2.3135,-2.3135,-2.3135,0.0,0.0,0.0,0.0,0.0,0.0,0.0,0.0,0.0,0.0,0.0,0.0,0.0,0.0,0.0,0.0,0.0,0.0,-2.3656,0.0,0.0,-2.3494,-2.3634,-2.4028,-2.4735,-2.5038,-2.5841,-2.7254,0.0,0.0,0.0,0.0,0.0,-2.723,0.0,0.0,0.0,0.0,0.0,-2.7211,-2.7915,-2.8229,-2.8254,-2.8312,-2.8244,-2.813,-2.8237,-2.8164,-2.8014,-2.8014,-2.7882,0.0,0.0,0.0,-2.7336,-2.7827,-2.7754,0.0,0.0,0.0,0.0,0.0,0.0,0.0,0.0,0.0,0.0,0.0,0.0,0.0,-1.9798,-1.9798,-1.9987,-2.0618,-2.0781,-2.1142,-2.2171,-2.2372,-2.2598,-2.3015,-2.3078,-2.3103,-2.3238,-2.3117,-2.2898,-2.2633,-2.2409,-2.1756,-2.0736,-2.0554,-2.0337,-1.999,-2.0,-2.0185,-2.0634,-2.0566,-2.0566,-2.0566,-2.0566,-2.0596,-2.0674,-2.1182,-2.1611,-2.1992,-2.2412,-2.2598,-2.2627,-2.2988,-2.3135,-2.3135,-2.3135,-2.3135,-2.3135,-2.3135,-2.3135,-2.3135,0.0,0.0,0.0,0.0,0.0,0.0,0.0,0.0,0.0,0.0,0.0,0.0,0.0,0.0,0.0,-2.3768,-2.3743,-2.3718,-2.3652,-2.3539,-2.3494,-2.3562,-2.4001,-2.4446,-2.4897,-2.5827,-2.6687,0.0,0.0,0.0,0.0,-2.8562,-2.8363,0.0,0.0,0.0,0.0,0.0,0.0,0.0,0.0,0.0,0.0,-2.97,-2.9143,-2.8116,-2.8783,-2.8621,-2.8126,-2.8154,-2.8035,-2.7864,-2.7789,0.0,0.0,0.0,0.0,0.0,0.0,0.0,0.0,0.0,0.0,0.0,0.0,0.0,0.0,0.0,0.0,0.0,-2.0396,-2.0055,-1.9886,-2.0137,-2.0504,-2.084,-2.133,-2.1656,-2.2058,-2.2611,-2.2673,-2.2799,-2.304,-2.3078,-2.3044,-2.2836,-2.2399,-2.204,-2.1677,-2.1226,-2.0764,-2.0327,-2.0265,-2.0266,-2.0195,-2.0195,-2.0322,-2.0566,-2.0566,-2.0566,-2.0576,-2.0771,-2.1103,-2.1543,-2.1973,-2.2158,-2.2197,-2.2617,-2.2783,-2.2812,-2.3047,-2.3135,-2.3135,-2.3135,-2.3135,-2.3135,0.0,0.0,0.0,0.0,0.0,0.0,0.0,0.0,0.0,0.0,0.0,0.0,0.0,0.0,0.0,0.0,-2.3743,-2.3768,-2.3848,-2.382,-2.3891,-2.4129,-2.4688,-2.5153,-2.544,-2.6608,0.0,0.0,0.0,0.0,-2.8637,-2.8562,-2.8492,0.0,-2.8406,0.0,0.0,0.0,0.0,0.0,0.0,0.0,0.0,0.0,-2.9183,-2.7888,-2.8844,-2.8729,-2.8154,-2.8506,-2.8467,-2.8269,-2.8118,-2.797,0.0,0.0,0.0,0.0,0.0,0.0,0.0,0.0,0.0,0.0,0.0,0.0,0.0,0.0,0.0,-2.1819,-2.1369,-2.0597,-2.0003,-1.985,-2.0162,-2.0501,-2.0706,-2.1016,-2.1481,-2.2033,-2.2108,-2.2322,-2.2874,-2.2924,-2.2927,-2.3065,-2.2567,-2.2231,-2.236,-2.1717,-2.1219,-2.0754,-2.0764,-2.0512,-2.0108,-1.9928,-2.0078,-2.04,-2.0508,-2.0566,-2.0566,-2.0566,-2.0752,-2.1094,-2.1533,-2.1719,-2.1758,-2.2178,-2.2412,-2.2539,-2.2861,-2.3047,-2.3135,-2.3135,-2.3135,-2.3135,0.0,0.0,0.0,0.0,0.0,0.0,0.0,0.0,0.0,0.0,0.0,0.0,-2.3896,-2.3896,-2.3917,-2.3976,-2.3871,-2.4001,-2.4497,-2.4617,-2.4913,-2.5549,-2.5754,0.0,-2.6879,-2.7166,0.0,0.0,0.0,0.0,-2.8804,-2.8587,-2.8518,-2.8587,-2.8518,-2.8492,-2.8492,0.0,0.0,0.0,0.0,0.0,0.0,0.0,0.0,0.0,0.0,-2.8017,-2.8078,-2.9104,-2.9269,-2.9018,-2.8898,-2.8666,-2.8553,0.0,0.0,0.0,0.0,0.0,0.0,0.0,0.0,0.0,0.0,0.0,0.0,0.0,0.0,-2.2649,-2.2603,-2.1609,-2.0547,-1.9901,-1.9823,-2.0037,-2.0643,-2.0743,-2.097,-2.1468,-2.1531,-2.1744,-2.2297,-2.2347,-2.2573,-2.3027,-2.3078,-2.2702,-2.1975,-2.1925,-2.1632,-2.1197,-2.1141,-2.0978,-2.0563,-2.0142,-1.9922,-1.9951,-2.0371,-2.0566,-2.0566,-2.0566,-2.0576,-2.0625,-2.1074,-2.1269,-2.1299,-2.1738,-2.2158,-2.251,-2.2539,-2.2783,-2.3135,-2.3135,-2.3135,-2.3135,0.0,0.0,0.0,0.0,0.0,0.0,0.0,0.0,0.0,0.0,0.0,0.0,0.0,-2.5357,-2.529,-2.5285,-2.5117,-2.5098,-2.5283,-2.5326,-2.5501,-2.58,-2.6292,-2.6728,-2.7074,-2.7627,0.0,0.0,0.0,-2.8637,-2.8737,-2.8569,-2.8536,-2.8587,-2.8536,-2.8543,-2.8619,-2.8737,0.0,0.0,0.0,0.0,0.0,0.0,0.0,0.0,0.0,0.0,0.0,-2.935,-2.9482,-2.9343,-2.9672,-2.9708,-2.9677,-3.0093,0.0,0.0,0.0,0.0,0.0,0.0,0.0,0.0,0.0,0.0,0.0,0.0,0.0,-2.3143,-2.2785,-2.1974,-2.1293,-2.1037,-2.1037,-2.0983,-2.0783,-2.0771,-2.0836,-2.0945,-2.0966,-2.1179,-2.1732,-2.1782,-2.202,-2.2573,-2.2611,-2.2643,-2.2677,-2.2689,-2.2333,-2.1684,-2.1632,-2.1411,-2.0956,-2.0542,-2.0359,-2.0359,-2.0232,-2.0146,-2.0156,-2.0439,-2.0566,-2.0576,-2.0732,-2.0801,-2.084,-2.1279,-2.1562,-2.1719,-2.2002,-2.2363,-2.2734,-2.2734,-2.291,-2.3135,0.0,0.0,0.0,0.0,0.0,0.0,0.0,0.0,0.0,-2.6126,0.0,0.0,0.0,0.0,-2.5997,-2.5967,-2.5843,-2.5867,-2.6082,-2.6152,-2.631,-2.6655,-2.7139,-2.7459,-2.7564,-2.8058,0.0,0.0,0.0,0.0,0.0,-2.8619,-2.8594,-2.8662,-2.8644,-2.8839,0.0,0.0,0.0,-3.1613,0.0,0.0,-3.0856,0.0,0.0,0.0,0.0,0.0,0.0,0.0,-2.9265,-2.9248,-2.9947,0.0,0.0,0.0,0.0,0.0,0.0,0.0,0.0,0.0,0.0,0.0,0.0,0.0,0.0,0.0,-2.3595,-2.3465,-2.3054,-2.2665,-2.2225,-2.1744,-2.1697,-2.1568,-2.1161,-2.1113,-2.1027,-2.0732,-2.0731,-2.0856,-2.1209,-2.1204,-2.1443,-2.1995,-2.2033,-2.2284,-2.2824,-2.2862,-2.2698,-2.231,-2.2063,-2.1717,-2.1453,-2.1013,-2.0781,-2.0781,-2.0617,-2.0708,-2.0862,-2.1169,-2.1242,-2.1078,-2.1078,-2.0857,-2.0586,-2.0889,-2.1103,-2.126,-2.1553,-2.1924,-2.2314,-2.2461,-2.2685,-2.2949,0.0,0.0,0.0,0.0,0.0,0.0,0.0,0.0,-2.6117,-2.6086,0.0,0.0,0.0,0.0,0.0,-2.5965,-2.5965,-2.6254,-2.6863,-2.7049,-2.7441,-2.8164,-2.8318,-2.8406,-2.8492,-2.8362,-2.8432,0.0,0.0,0.0,0.0,0.0,-2.8737,-2.881,-2.8881,-2.9368,-3.0137,0.0,-3.1158,-3.2488,0.0,-3.0694,-3.1936,0.0,0.0,0.0,-2.9443,-2.9077,0.0,-2.8794,0.0,0.0,0.0,0.0,0.0,0.0,0.0,0.0,0.0,0.0,0.0,0.0,0.0,0.0,0.0,0.0,0.0,0.0,-2.3653,-2.3638,-2.3595,-2.3595,-2.3216,-2.1932,-2.1744,-2.1744,-2.1744,-2.1744,-2.152,-2.0894,-2.0795,-2.0781,-2.0683,-2.0693,-2.092,-2.143,-2.1468,-2.1707,-2.2259,-2.2297,-2.256,-2.3027,-2.231,-2.1939,-2.1939,-2.1441,-2.1219,-2.123,-2.1653,-2.2143,-2.267,-2.2704,-2.2466,-2.2006,-2.2027,-2.1517,-2.0712,-2.0644,-2.082,-2.1211,-2.1211,-2.1484,-2.1914,-2.2324,-2.249,-2.2568,0.0,0.0,0.0,0.0,0.0,0.0,-2.7536,-2.7288,-2.7193,0.0,0.0,0.0,-2.7942,-2.7767,-2.7584,-2.7423,-2.7441,-2.7429,-2.7501,-2.7593,-2.7773,-2.7957,-2.8071,-2.8136,-2.8191,-2.8273,-2.8702,0.0,0.0,0.0,0.0,0.0,0.0,0.0,-2.8929,-2.9769,-3.109,-3.0549,0.0,0.0,-3.0601,-3.056,0.0,0.0,0.0,0.0,0.0,-2.9857,-2.97,0.0,-3.0273,-3.1146,0.0,0.0,0.0,0.0,0.0,0.0,-3.1542,0.0,0.0,0.0,0.0,0.0,0.0,0.0,0.0,0.0,-2.4526,-2.4074,-2.3681,-2.3595,-2.3508,-2.3128,-2.3069,-2.2935,-2.2483,-2.2406,-2.2161,-2.152,-2.1077,-2.0762,-2.0781,-2.0348,-2.0275,0.0,-2.0891,-2.1142,-2.1681,-2.2096,-2.2385,-2.2535,-2.2673,-2.2763,-2.2763,-2.2071,-2.1701,-2.1701,-2.1472,-2.1442,-2.1677,-2.2391,-2.2639,-2.2495,-2.2919,-2.2925,-2.2563,-2.1155,-2.0635,-2.0752,-2.0752,-2.1025,-2.1426,-2.1543,-2.1982,-2.2529,0.0,0.0,0.0,0.0,0.0,0.0,-2.8288,-2.807,-2.7994,0.0,0.0,0.0,-2.9404,-2.9295,-2.9144,-2.9,-2.8699,-2.8457,-2.8382,-2.8202,-2.8126,-2.8154,-2.8219,-2.83,-2.838,-2.8353,-2.8701,0.0,0.0,0.0,-2.9558,-2.9125,0.0,0.0,0.0,0.0,0.0,0.0,0.0,0.0,-3.1362,0.0,0.0,-3.0662,-3.0057,0.0,0.0,0.0,-2.9777,-2.9268,-3.0076,0.0,0.0,0.0,0.0,0.0,0.0,0.0,0.0,0.0,0.0,0.0,0.0,0.0,-2.8836,-2.7713,-2.6486,0.0,-2.4684,-2.4241,-2.3724,-2.3595,-2.3595,-2.3595,-2.3595,-2.3465,-2.3098,-2.3054,-2.2815,-2.2193,-2.1785,-2.1369,-2.0845,-2.0683,-2.0614,-2.0733,-2.072,-2.087,-2.1171,-2.1669,-2.2071,-2.2297,-2.2623,-2.284,-2.3078,-2.2628,-2.2384,-2.2384,-2.21,-2.2092,-2.2403,-2.3015,-2.3247,-2.3303,-2.3672,-2.3697,-2.3441,-2.2264,-2.1527,-2.1155,-2.0789,-2.0723,-2.0977,-2.1172,-2.1553,-2.2031,0.0,0.0,0.0,-2.8821,-2.8764,-2.875,-2.8866,-2.8815,-2.8763,0.0,-2.9287,-2.9876,-3.0469,-3.0499,-3.0439,-3.0457,-2.9769,-2.939,-2.943,-2.8855,-2.8532,-2.8585,-2.8572,-2.8612,-2.8737,-2.8536,-2.8598,0.0,-2.8796,-2.8826,-2.9113,-2.9185,-2.9687,0.0,0.0,0.0,0.0,0.0,0.0,-3.3937,-3.2446,-3.2261,0.0,0.0,-3.0696,-3.109,-3.0006,-2.9634,-2.9529,-2.8584,-2.9136,0.0,0.0,0.0,0.0,0.0,-3.2039,0.0,0.0,0.0,0.0,0.0,0.0,0.0,-2.8718,-2.8174,-2.7486,-2.5309,-2.4792,-2.4539,-2.4021,-2.3906,-2.3863,-2.3863,-2.3803,-2.3684,-2.361,-2.3595,-2.3421,-2.2875,-2.274,-2.2267,-2.114,-2.1438,-2.1472,-2.093,-2.0845,-2.0781,-2.0699,-2.1146,-2.1619,-2.2121,-2.2246,-2.2548,-2.3037,-2.304,-2.3078,-2.3078,-2.3078,-2.3401,-2.3904,-2.3966,-2.407,-2.4202,-2.4321,-2.412,-2.3727,-2.3711,-2.2999,-2.1886,-2.1078,-2.0712,-2.0615,-2.1016,-2.1191,-2.1348,-2.85,0.0,0.0,0.0,-2.958,-2.9771,-3.0423,-3.0532,-3.0505,-3.0423,-3.054,-3.0674,-3.0818,-3.0808,-3.0779,-3.0722,-3.0521,-3.0344,-3.019,-2.9583,-2.9201,-2.9155,-2.864,-2.838,-2.8406,-2.8458,-2.8876,-2.9689,-2.9814,-3.0265,-3.107,-3.1232,0.0,0.0,0.0,0.0,0.0,0.0,0.0,-3.3194,-3.2925,0.0,-3.1848,-3.0794,-3.0014,-2.9457,-2.9203,-2.9521,-3.0068,-3.0377,-3.0225,-3.0071,0.0,0.0,0.0,-3.1882,0.0,0.0,0.0,0.0,0.0,0.0,0.0,0.0,-3.0446,-2.9769,-2.8975,0.0,-2.7237,-2.6562,-2.5962,-2.5771,-2.5681,-2.5531,-2.4987,-2.4341,-2.367,-2.3595,-2.3551,-2.3421,-2.3009,-2.2603,-2.236,-2.196,-2.1649,-2.152,-2.1077,-2.0799,-2.0767,-2.0832,-2.0878,-2.0991,-2.1845,-2.2359,-2.2472,-2.2852,-2.3078,-2.3078,-2.3078,-2.3128,-2.3314,-2.3791,-2.3979,-2.4101,-2.4946,-2.5301,-2.5154,-2.4814,-2.3672,-2.1952,-2.1811,-2.1298,-2.0576,-2.0664,-2.0918,-2.126,-2.9417,0.0,0.0,0.0,-3.044,-3.0514,-3.093,-3.0948,-3.0892,-3.0892,-3.115,-3.1516,-3.1912,-3.1936,-3.1906,-3.1906,-3.15,-3.1208,-3.11,-3.0503,-3.0148,-3.0158,-2.9873,-2.9745,-2.9849,-2.9442,-2.9544,-3.01,-3.0197,-3.0512,-3.1011,0.0,0.0,0.0,0.0,0.0,0.0,0.0,-3.3961,-3.3751,-3.3295,0.0,-3.1612,-3.1088,-3.0612,-3.021,-3.021,-3.0424,-3.0821,-3.1148,-3.1101,0.0,0.0,-3.1918,-3.1849,0.0,-3.2019,-3.1757,0.0,0.0,0.0,-3.119,0.0,0.0,0.0,-2.9916,-2.9294,-2.8156,-2.7566,-2.7089,-2.6512,-2.6259,-2.6077,-2.6016,-2.5557,-2.5026,-2.4462,-2.394,-2.3595,-2.3595,-2.3334,-2.3009,-2.274,-2.2665,-2.2515,-2.2193,-2.1927,-2.1465,-2.0845,-2.0796,-2.0719,-2.0706,-2.1204,-2.1757,-2.2297,-2.2585,-2.2862,-2.3078,-2.3078,-2.3078,-2.3078,-2.3439,-2.3728,-2.4042,-2.4858,-2.536,-2.5636,-2.5721,-2.485,-2.3452,-2.2925,-2.2188,-2.1298,-2.1298,-2.1151,-2.0937,-3.0373,0.0,0.0,0.0,-3.1356,-3.1356,-3.1474,-3.14,-3.1361,-3.139,-3.1711,-3.2205,-3.2871,-3.2793,-3.2733,-3.2792,-3.2177,-3.1859,-3.1923,-3.1317,-3.0994,-3.1048,-3.1074,-3.1133,-3.1195,-3.0595,-3.0357,-3.0525,-3.072,-3.0863,-3.095,0.0,0.0,0.0,0.0,0.0,0.0,0.0,0.0,-3.4236,0.0,-3.2776,-3.1936,-3.1795,-3.163,-3.1458,-3.1409,-3.1384,-3.1403,-3.1403,-3.1573,-3.1888,-3.2136,-3.239,0.0,0.0,0.0,0.0,0.0,0.0,0.0,0.0,0.0,-3.0864,0.0,0.0,0.0,-2.8091,-2.77,0.0,0.0,0.0,0.0,0.0,0.0,0.0,0.0,-2.4534,0.0,-2.3851,-2.3701,-2.3422,-2.3018,-2.3393,-2.3423,-2.2934,-2.2764,-2.2255,-2.1237,-2.0944,-2.0781,-2.0741,-2.0709,-2.1142,-2.2146,-2.2259,-2.2585,-2.3078,-2.3078,-2.3078,-2.3078,-2.3078,-2.3389,-2.3866,-2.4418,-2.4958,-2.5485,-2.6063,-2.5926,-2.5229,-2.4181,-2.3147,-2.2253,-2.2253,-2.1669,-2.0916,-3.1212,-3.113,0.0,0.0,0.0,0.0,-3.3204,-3.3341,-3.3332,-3.3237,-3.2793,-3.2548,-3.2658,0.0,0.0,0.0,0.0,0.0,-3.2386,0.0,-3.1268,-3.1268,-3.1144,-3.091,-3.0516,-3.098,-3.1256,-3.128,-3.2289,-3.2821,0.0,0.0,0.0,0.0,-3.4392,0.0,0.0,0.0,-3.4061,0.0,-3.3948,-3.3814,0.0,-3.2974,-3.2395,-3.1649,-3.1458,-3.1384,-3.1384,0.0,-3.1305,-3.1374,0.0,-3.1689,-3.15,-3.2066,0.0,0.0,0.0,0.0,0.0,0.0,-3.1213,0.0,0.0,0.0,-3.0236,-2.9789,0.0,0.0,0.0,0.0,0.0,0.0,0.0,0.0,-2.6307,-2.5553,-2.4919,-2.4713,-2.4044,-2.3688,-2.4011,-2.3853,-2.3712,-2.3509,-2.3059,-2.2704,-2.2495,-2.1417,-2.0785,-2.0801,-2.0705,-2.0966,-2.1581,-2.2071,-2.2585,-2.3078,-2.3078,-2.3078,-2.3078,-2.3078,-2.3115,-2.3263,-2.3841,-2.4406,-2.4946,-2.5473,-2.592,-2.6245,-2.5217,-2.4192,-2.3294,-2.3294,-2.2702,-2.1821,-3.2268,-3.2132,0.0,0.0,0.0,0.0,-3.3494,-3.352,-3.3462,-3.3286,-3.3107,-3.3002,0.0,0.0,0.0,0.0,0.0,-3.3099,0.0,0.0,-3.2808,-3.2637,-3.2674,-3.2588,-3.2441,-3.2256,-3.2151,-3.2151,-3.2799,-3.3105,0.0,0.0,0.0,0.0,-3.4376,0.0,-3.3799,0.0,-3.4244,0.0,0.0,0.0,0.0,-3.3677,-3.3253,-3.2907,-3.2805,-3.2779,-3.2797,0.0,-3.2611,0.0,0.0,0.0,0.0,0.0,0.0,0.0,0.0,0.0,0.0,0.0,0.0,0.0,-3.0935,0.0,-3.0359,0.0,0.0,0.0,0.0,0.0,0.0,0.0,-2.8,0.0,0.0,0.0,-2.5523,0.0,0.0,0.0,-2.4202,-2.4179,-2.401,-2.3625,-2.3673,-2.3422,-2.2754,-2.2175,-2.1561,-2.0795,-2.1106,-2.1224,-2.1058,-2.192,-2.2426,-2.2661,-2.2975,-2.3078,-2.3078,-2.3078,-2.3078,-2.3103,-2.3753,-2.4305,-2.4858,-2.5385,-2.5937,-2.6452,-2.6025,-2.5288,-2.4337,-2.4337,-2.3368,-2.2027,-3.3862,0.0,0.0,0.0,0.0,0.0,0.0,0.0,0.0,0.0,0.0,0.0,-3.3538,-3.346,0.0,0.0,-3.3564,-3.3698,0.0,0.0,-3.3746,0.0,0.0,0.0,0.0,-3.334,-3.308,-3.308,-3.3324,-3.3463,0.0,0.0,0.0,0.0,0.0,-3.4223,-3.3568,0.0,0.0,-3.4495,-3.4316,-3.4321,-3.4398,-3.403,-3.386,-3.3807,-3.3807,-3.3807,-3.3807,-3.378,-3.3633,-3.3481,-3.3671,-3.3502,-3.3208,0.0,0.0,0.0,-3.1966,0.0,0.0,0.0,0.0,0.0,0.0,0.0,0.0,0.0,0.0,0.0,0.0,0.0,-2.8444,-2.8444,0.0,-2.778,0.0,-2.6643,0.0,0.0,0.0,0.0,0.0,-2.4462,-2.4362,-2.3747,-2.418,-2.3973,-2.3024,-2.2785,-2.2267,-2.1369,-2.1582,-2.1529,-2.1211,-2.2247,-2.2773,-2.2902,-2.3262,-2.3424,-2.3424,-2.3198,-2.3078,-2.3103,-2.3577,-2.4167,-2.4845,-2.5222,-2.5812,-2.6533,-2.6533,-2.6025,-2.5441,-2.5441,-2.4325,-2.285,-3.6232,-3.5016,0.0,0.0,0.0,0.0,0.0,0.0,0.0,0.0,0.0,0.0,0.0,0.0,0.0,0.0,0.0,-3.3154,-3.3667,0.0,-3.3429,0.0,0.0,-3.3716,0.0,0.0,-3.4062,-3.4062,-3.4255,0.0,0.0,0.0,0.0,0.0,0.0,-3.4672,-3.4628,-3.4539,-3.4316,-3.4023,-3.4074,-3.3998,-3.3842,0.0,-3.3972,-3.3807,-3.3807,-3.3807,-3.3807,-3.3726,-3.3643,-3.3577,-3.352,-3.3549,0.0,0.0,0.0,0.0,0.0,-3.2283,-3.2179,-3.1711,0.0,0.0,0.0,0.0,-3.0359,0.0,0.0,0.0,0.0,-2.8748,-2.8573,-2.8573,-2.8268,0.0,0.0,0.0,0.0,0.0,0.0,0.0,0.0,-2.4897,-2.4761,-2.4046,-2.4312,-2.4237,-2.3581,-2.3024,-2.2694,-2.2649,-2.2053,-2.1952,-2.2537,-2.3234,-2.3826,-2.4352,-2.4273,-2.4234,-2.4234,-2.3484,-2.3078,-2.3078,-2.309,-2.3729,-2.482,-2.4845,-2.5485,-2.6533,-2.6533,-2.6452,-2.6465,-2.6465,-2.5804,-2.4933,0.0,0.0,0.0,0.0,0.0,0.0,0.0,-3.5721,0.0,0.0,0.0,0.0,0.0,-3.4231,-3.4131,0.0,0.0,-3.4337,-3.4611,-3.4869,0.0,0.0,0.0,-3.4568,0.0,0.0,0.0,0.0,0.0,0.0,0.0,0.0,0.0,0.0,0.0,-3.5459,0.0,0.0,0.0,0.0,0.0,-3.4124,-3.4049,0.0,-3.3842,-3.3807,-3.3807,-3.3807,-3.3807,-3.378,-3.3698,-3.3605,-3.3671,-3.3605,-3.3452,-3.328,-3.3202,-3.3111,-3.2716,-3.2781,-3.2813,-3.2197,-3.2162,-3.2039,-3.1027,0.0,0.0,0.0,0.0,0.0,0.0,-2.8716,-2.8525,-2.8381,-2.8235,-2.794,0.0,0.0,0.0,0.0,0.0,0.0,0.0,0.0,-2.4655,-2.4046,-2.4265,-2.4204,-2.3653,-2.3421,-2.3098,-2.2694,-2.286,-2.2661,-2.2014,-2.3449,-2.4095,-2.3854,-2.4155,-2.4292,-2.4292,-2.3484,-2.3078,-2.3078,-2.3078,-2.3778,-2.482,-2.482,-2.5473,-2.6533,-2.6533,-2.6533,-2.6533,-2.6533,-2.5873,-2.4933,-3.7008,0.0,0.0,0.0,0.0,0.0,0.0,0.0,0.0,0.0,-3.6203,0.0,-3.4955,0.0,-3.502,0.0,-3.5026,-3.5231,-3.5507,-3.5571,0.0,-3.5287,-3.5177,0.0,0.0,0.0,0.0,0.0,0.0,-3.5117,0.0,0.0,0.0,0.0,0.0,0.0,-3.5591,0.0,-3.4481,0.0,0.0,-3.4049,0.0,0.0,-3.3842,-3.3921,-3.3815,-3.3807,-3.3807,-3.3807,-3.3753,-3.3671,-3.378,-3.3671,-3.3549,-3.3484,-3.3408,-3.3273,-3.3063,-3.3124,-3.3154,-3.2636,-3.2603,-3.2401,-3.1304,-3.0971,-3.0707,0.0,0.0,0.0,0.0,-2.9104,-2.8653,-2.8654,-2.8415,-2.8039,0.0,-2.6945,0.0,0.0,0.0,0.0,0.0,-2.4893,-2.4578,-2.4046,-2.4113,-2.4017,-2.3638,-2.3595,-2.3421,-2.3009,-2.3377,-2.3216,-2.2363,-2.3811,-2.4476,-2.4312,-2.4583,-2.4691,-2.4681,-2.3884,-2.3365,-2.3078,-2.3078,-2.3778,-2.482,-2.482,-2.5473,-2.6533,-2.6533,-2.6533,-2.6533,-2.6533,-2.6094,-2.537,0.0,0.0,0.0,0.0,-3.6342,0.0,0.0,0.0,-3.7673,0.0,-3.7851,-3.7281,-3.5854,-3.6027,-3.5907,-3.5015,-3.5281,-3.5729,-3.623,-3.5581,0.0,0.0,-3.5363,-3.4964,-3.5209,0.0,0.0,0.0,0.0,0.0,0.0,0.0,0.0,0.0,-3.7527,0.0,-3.5754,-3.5716,-3.4971,-3.3807,-3.3807,-3.3807,-3.3815,-3.3807,-3.3972,-3.4173,-3.3895,-3.3807,-3.3807,-3.3807,-3.3807,-3.3807,-3.3807,-3.3807,-3.3807,-3.3807,-3.3807,-3.3734,-3.3408,-3.3321,-3.3243,-3.289,-3.2781,-3.2502,-3.1718,-3.1405,-3.1159,-3.0909,-3.0175,0.0,0.0,-2.995,-2.8982,-2.938,-2.8763,-2.8039,-2.7675,-2.7269,-2.6959,0.0,0.0,0.0,0.0,-2.4912,-2.4567,-2.4028,-2.3895,-2.3764,0.0,-2.3551,-2.3551,-2.3595,-2.3595,-2.3595,-2.3595,-2.4283,-2.4956,-2.5615,-2.5529,-2.5483,-2.5453,-2.4681,-2.3943,-2.3138,-2.3138,-2.3778,-2.482,-2.482,-2.5473,-2.6533,-2.6533,-2.6533,-2.6533,-2.6533,-2.6533,-2.6383,-3.8755,-3.8792,-3.8633,0.0,-3.7679,-3.7569,0.0,0.0,0.0,0.0,-3.6961,-3.6407,-3.5643,-3.5626,-3.5614,-3.5369,-3.5446,0.0,0.0,0.0,0.0,-3.5695,-3.5703,-3.5553,-3.5193,-3.5495,0.0,-3.6058,0.0,0.0,-3.7279,0.0,0.0,0.0,0.0,0.0,-3.6621,-3.596,-3.4971,-3.3807,-3.3807,-3.3921,-3.4074,-3.3868,-3.3972,-3.4173,-3.3895,-3.3807,-3.3807,-3.3807,-3.3807,-3.3807,-3.3807,-3.3807,-3.3807,-3.3807,-3.3807,-3.378,-3.3707,-3.368,-3.3578,-3.3262,-3.3154,-3.2952,-3.2246,-3.2057,-3.1899,-3.1558,-3.1298,-3.0992,-3.049,-3.0128,-2.962,-2.8826,-2.8301,-2.7955,-2.7625,0.0,0.0,-2.6616,0.0,0.0,-2.498,-2.4833,-2.4433,-2.3607,-2.3329,-2.3275,-2.3595,-2.329,-2.3246,-2.3595,-2.3595,-2.3595,-2.3595,-2.4283,-2.4956,-2.5615,-2.5529,-2.5759,-2.6176,-2.5453,-2.4724,-2.4002,-2.4002,-2.4304,-2.482,-2.482,-2.5473,-2.6533,-2.6533,-2.6533,-2.6533,-2.6533,-2.6533,-2.6452,-3.8822,0.0,0.0,-3.8792,0.0,0.0,-3.8395,-3.8414,0.0,-3.725,-3.7198,0.0,-3.6511,-3.6541,-3.6603,-3.6603,-3.6603,0.0,-3.6933,0.0,0.0,-3.6952,-3.6892,-3.6721,-3.6431,-3.6288,0.0,-3.7357,0.0,0.0,-3.8442,0.0,0.0,0.0,0.0,-3.8188,0.0,-3.6007,-3.5157,-3.4478,-3.4109,-3.4005,0.0,-3.4005,-3.4005,-3.3998,-3.3842,-3.3807,-3.3807,-3.3807,-3.3807,-3.3807,-3.3807,-3.3807,-3.3807,-3.3807,-3.3807,-3.3807,-3.3807,-3.3807,-3.3734,-3.3569,-3.3522,-3.3361,-3.2755,-3.2559,-3.2494,-3.2311,-3.1952,-3.1705,-3.1707,-3.093,-2.9891,-2.8716,-2.825,-2.7955,0.0,0.0,0.0,0.0,-2.6696,0.0,-2.5137,-2.476,-2.4374,-2.4028,-2.3533,-2.3441,-2.3795,-2.3593,-2.3493,-2.3568,-2.357,-2.3595,-2.3595,-2.4283,-2.4956,-2.5615,-2.5855,-2.6185,-2.651,-2.6068,-2.5287,-2.4292,-2.4292,-2.4486,-2.482,-2.482,-2.5473,-2.6533,-2.6533,-2.6533,-2.6533,-2.6533,-2.6533,-2.6533,-3.8851,0.0,0.0,0.0,0.0,0.0,0.0,-3.8585,0.0,-3.7548,0.0,-3.8249,-3.7789,-3.7897,-3.8007,-3.8007,0.0,-3.8201,-3.865,-3.8265,-3.8204,-3.8669,-3.8246,-3.8007,-3.8007,-3.7248,-3.7553,0.0,0.0,0.0,0.0,0.0,0.0,0.0,0.0,0.0,0.0,-3.5988,-3.5466,-3.5392,-3.4601,-3.4141,-3.3954,-3.4171,-3.4117,-3.3902,-3.3868,-3.3815,-3.3807,-3.3807,-3.3807,-3.3807,-3.3807,-3.3807,-3.3807,-3.3807,-3.3807,-3.3807,-3.3807,-3.3807,-3.3807,-3.3807,-3.3807,-3.3662,-3.3189,-3.3003,-3.2955,-3.3082,-3.2477,-3.2327,-3.3439,-3.1899,-3.0086,-2.9088,-2.8638,0.0,0.0,0.0,0.0,0.0,0.0,0.0,-2.563,-2.483,-2.4461,-2.4693,-2.412,-2.3812,-2.412,-2.4105,-2.3897,-2.3515,-2.3659,-2.3729,-2.3729,-2.4418,-2.5091,-2.5749,-2.6318,-2.6633,-2.6669,-2.6669,-2.5837,-2.4452,-2.4452,-2.4606,-2.482,-2.482,-2.5473,-2.6533,-2.6533,-2.6533,-2.6533,-2.6533,-2.6533,-2.6533,0.0,0.0,0.0,0.0,0.0,-3.9226,-3.852,-3.8698,-3.8822,-3.8556,-3.8263,-3.8051,-3.7963,-3.7973,-3.8007,-3.8007,-3.8007,0.0,0.0,0.0,0.0,-3.8139,-3.805,-3.8007,-3.8007,-3.8415,-3.8755,0.0,0.0,0.0,-3.8988,0.0,0.0,0.0,0.0,0.0,-3.7315,-3.6189,0.0,-3.5744,-3.4953,-3.4572,-3.4548,-3.4593,-3.4572,-3.4526,-3.4218,-3.3986,-3.3807,-3.3807,-3.3807,-3.3807,-3.3807,-3.3807,-3.3807,-3.3807,-3.3807,-3.3807,-3.3807,-3.3807,-3.3807,-3.3807,-3.3807,-3.378,-3.3689,-3.3634,-3.3616,-3.3662,-3.356,-3.3306,-3.2955,-3.1899,-3.0908,-3.0286,-3.0392,0.0,0.0,0.0,0.0,0.0,0.0,-2.7795,0.0,-2.5675,0.0,0.0,0.0,-2.3921,-2.4192,-2.3655,-2.3432,-2.3555,-2.4119,-2.4403,-2.4403,-2.5106,-2.5764,-2.6422,-2.6542,-2.6882,-2.7408,-2.7408,-2.6587,-2.5231,-2.5231,-2.5057,-2.482,-2.482,-2.5473,-2.6533,-2.6533,-2.6533,-2.6533,-2.6533,-2.6533,-2.6533,0.0,0.0,0.0,0.0,0.0,0.0,0.0,-4.0233,-4.0036,-3.8975,-3.9007,-3.9303,-3.9708,-3.9887,-3.9969,-3.9969,-3.9969,-3.9777,-3.9335,-3.9296,-3.9296,-3.9296,-3.9296,-3.9296,-3.9296,-3.9246,-3.9358,-3.9678,0.0,-3.9489,-3.9407,-3.8992,0.0,0.0,0.0,-3.7696,0.0,0.0,-3.7371,-3.7317,-3.6521,-3.5836,-3.5337,-3.5476,-3.5172,-3.4674,-3.4529,-3.4375,-3.4232,-3.3921,-3.3807,-3.3807,-3.3807,-3.3807,-3.3807,-3.3807,-3.3807,-3.3807,-3.3807,-3.3807,-3.3807,-3.3807,-3.3807,-3.3807,-3.3807,-3.3807,-3.3807,-3.3807,-3.3807,-3.3588,-3.2893,-3.202,-3.1362,-3.1057,-3.0752,0.0,0.0,0.0,0.0,0.0,0.0,0.0,0.0,0.0,0.0,0.0,0.0,0.0,-2.5018,-2.4595,-2.4431,-2.4593,-2.4936,-2.5136,-2.5136,-2.5794,-2.6273,-2.6587,-2.6931,-2.726,-2.7625,-2.7625,-2.7019,-2.5974,-2.6353,-2.6075,-2.5383,-2.562,-2.5988,-2.6533,-2.6533,-2.6533,-2.6533,-2.6533,-2.6533,-2.6533,0.0,-4.1315,0.0,0.0,-4.1192,-4.1565,-4.1647,-4.189,-4.1536,-3.9999,-4.0403,-4.1053,-4.1704,-4.1944,-4.2085,-4.2085,-4.2085,-4.172,-4.0835,-4.0777,-4.0681,-4.0508,-4.0489,-4.0489,-4.0489,-3.9873,-3.9826,0.0,0.0,-3.9452,-3.9773,-3.9127,-3.8404,0.0,0.0,0.0,-3.8123,-3.8649,-3.888,-3.884,-3.8016,-3.7146,-3.6369,-3.6571,-3.6023,-3.5116,-3.5058,-3.4925,-3.4714,-3.4184,-3.3954,-3.3895,-3.3815,-3.3807,-3.3807,-3.3807,-3.3807,-3.3807,-3.3807,-3.3807,-3.3807,-3.3807,-3.3807,-3.3807,-3.3807,-3.3807,-3.3807,-3.3807,-3.3807,-3.3588,-3.2924,-3.2391,-3.1986,-3.1812,-3.1271,-3.1049,-3.1441,0.0,0.0,0.0,0.0,0.0,-2.8738,-2.7527,0.0,0.0,0.0,-2.5632,-2.5903,-2.5727,-2.5561,-2.5487,-2.5575,-2.5604,-2.5556,-2.6419,-2.6797,-2.6811,-2.732,-2.7625,-2.7625,-2.7625,-2.7203,-2.6539,-2.7227,-2.6986,-2.612,-2.6362,-2.6533,-2.6533,-2.6533,-2.6533,-2.6533,-2.6533,-2.6533,-2.6546,0.0,0.0,0.0,0.0,0.0,-4.2545,-4.2506,-4.2774,-4.2912,-4.2742,-4.278,-4.2857,-4.2934,-4.2953,-4.2989,-4.2989,-4.2989,-4.2604,-4.1739,-4.1681,-4.1335,-4.0527,-4.0489,-4.0489,-4.0489,-4.0431,-4.0399,0.0,0.0,-3.9812,-3.9088,-3.8956,-3.8478,-3.7821,-3.8551,-3.8965,-3.908,-3.9073,-3.9144,-3.9169,-3.8304,-3.7901,-3.7809,-3.7824,-3.729,-3.6492,-3.6243,-3.568,-3.5016,-3.4714,-3.4401,-3.4123,-3.3876,-3.3807,-3.3807,-3.3807,-3.3807,-3.3807,-3.3807,-3.3807,-3.3807,-3.3807,-3.3807,-3.3807,-3.3807,-3.3807,-3.3807,-3.3807,-3.3807,-3.3588,-3.2924,-3.323,-3.3393,-3.2782,-3.3105,-3.3468,-3.3524,0.0,-3.3176,-3.2269,0.0,0.0,-3.0222,-2.9848,-2.9195,-2.7987,-2.7246,-2.6665,-2.6355,-2.6115,-2.5785,-2.5416,-2.5575,-2.5647,-2.5532,-2.6825,-2.7535,-2.7535,-2.7595,-2.7625,-2.7625,-2.7625,-2.7203,-2.6539,-2.7227,-2.7251,-2.6775,-2.6595,-2.6533,-2.6533,-2.6533,-2.6533,-2.6533,-2.6533,-2.6533,-2.6596,0.0,0.0,0.0,-4.2816,-4.3174,-4.3561,-4.3598,-4.3726,-4.4008,-4.4528,-4.372,-4.3278,-4.3778,-4.3816,-4.3816,-4.3816,-4.3816,-4.347,-4.2624,-4.2585,-4.22,-4.1316,-4.1277,-4.1046,-4.0508,-4.0489,-4.0492,0.0,0.0,-4.0135,-3.9718,-3.9239,-3.8605,-3.7907,-3.8731,-3.9164,-3.9231,-3.973,-3.9957,-3.9988,-3.9642,-3.92,-3.8777,-3.8777,-3.8238,-3.7473,-3.736,-3.6773,-3.6013,-3.5757,-3.5132,-3.4464,-3.4141,-3.4165,-3.4279,-3.3921,-3.391,-3.3993,-3.3842,-3.3807,-3.3807,-3.3807,-3.3807,-3.3807,-3.3807,-3.3807,-3.3807,-3.3807,-3.3807,-3.3734,-3.3439,-3.3354,-3.3325,-3.3382,-3.3354,-3.3429,-3.3762,0.0,0.0,-3.3252,0.0,0.0,0.0,-3.0487,-2.97,-2.9058,0.0,-2.7655,-2.6419,-2.7155,-2.7389,-2.6874,-2.7531,-2.7889,-2.7827,-2.8021,-2.814,-2.814,-2.776,-2.7625,-2.7625,-2.7625,-2.7906,-2.8375,-2.8536,-2.8412,-2.8102,-2.7446,-2.6905,-2.6533,-2.6533,-2.6533,-2.6533,-2.6533,-2.6533,-2.6647,-4.4197,-4.4452,-4.4522,-4.4096,-4.4308,-4.4556,-4.4664,-4.4682,-4.4893,-4.5509,-4.4566,-4.4047,-4.4624,-4.4682,-4.4682,-4.4682,-4.4682,-4.4335,-4.3508,-4.3451,-4.3066,-4.222,-4.195,-4.1508,-4.0893,-4.0623,-4.0492,-4.0499,-4.0447,-4.0379,-4.027,-3.975,-3.9191,-3.8684,-3.9311,-3.9576,-3.9611,-4.0239,-4.0489,-4.0489,-4.0489,-4.0162,-3.9642,-3.9642,-3.9123,-3.8373,-3.8373,-3.7815,-3.7036,-3.6859,-3.6134,-3.5173,-3.4542,-3.4508,-3.4612,-3.4184,-3.4189,-3.4311,-3.4111,-3.4062,-3.4062,-3.4062,-3.4062,-3.4062,-3.4062,-3.4005,-3.3902,-3.3815,-3.3807,-3.3807,-3.3807,-3.3504,-3.3372,-3.3734,-3.3458,-3.3372,-3.3734,-3.3807,0.0,-3.3375,-3.2577,-3.2015,-3.2015,-3.1158,0.0,0.0,0.0,-2.9264,-2.7581,-2.8523,-2.8853,-2.8213,-2.8825,-2.9132,-2.9071,-2.8717,-2.8511,-2.8511,-2.791,-2.7625,-2.7625,-2.7784,-2.8502,-2.9609,-2.9362,-2.9305,-2.9317,-2.8182,-2.7351,-2.685,-2.6589,-2.6533,-2.6533,-2.6533,-2.6634,-2.6841,-4.2795,-4.3522,-4.4154,-4.428,-4.5009,-4.5566,-4.5566,-4.5566,-4.5586,-4.5586,-4.5566,-4.5566,-4.5566,-4.5566,-4.5566,-4.5566,-4.5566,-4.5201,-4.4335,-4.4297,-4.3932,-4.3124,-4.2258,-4.1797,-4.1777,-4.0931,-4.0489,-4.0489,-4.0499,-4.0502,-4.0502,-4.0413,-4.0413,-4.0463,-4.0482,-4.0476,-4.0469,-4.0489,-4.0489,-4.0489,-4.0489,-4.0489,-4.0489,-4.0489,-3.9988,-3.9277,-3.9277,-3.8719,-3.7988,-3.7988,-3.7411,-3.6454,-3.5097,-3.4694,-3.4694,-3.4694,-3.4694,-3.4694,-3.4694,-3.4674,-3.4674,-3.4674,-3.4674,-3.4674,-3.4674,-3.4423,-3.4123,-3.3868,-3.3807,-3.3807,-3.3807,-3.3788,-3.3788,-3.3807,-3.3788,-3.3788,-3.3807,-3.3807,0.0,-3.2435,-3.2302,-3.232,-3.232,-3.2269,0.0,0.0,-3.2243,-3.1829,-3.0349,-3.0153,-2.9796,-2.9211,-2.8761,-2.8451,-2.8294,-2.8449,-2.8511,-2.8511,-2.791,-2.7625,-2.764,-2.8278,-2.8951,-2.9609,-2.9362,-2.9678,-3.0133,-2.8427,-2.767,-2.7604,-2.6782,-2.6533,-2.6533,-2.6533,-2.6804,-2.7356,-4.4688,-4.5417,-4.6012,-4.6068,-4.6759,-4.7298,-4.7298,-4.7298,-4.7298,-4.7298,-4.7298,-4.7105,-4.6547,-4.5951,-4.5586,-4.5586,-4.5586,-4.547,-4.5201,-4.5182,-4.4797,-4.3951,-4.3643,-4.297,-4.1816,-4.1527,-4.1104,-4.0489,-4.0508,-4.0492,-4.0492,-4.0482,-4.0482,-4.0492,-4.0492,-4.0508,-4.0489,-4.0489,-4.0489,-4.0489,-4.0489,-4.0489,-4.0489,-4.0489,-4.0335,-4.0104,-4.0104,-3.9585,-3.8892,-3.8892,-3.8315,-3.7401,-3.6396,-3.5679,-3.5155,-3.4812,-3.4832,-3.4926,-3.4734,-3.4694,-3.4694,-3.4694,-3.4694,-3.4694,-3.4694,-3.4632,-3.4464,-3.4141,-3.4068,-3.4018,-3.3842,-3.3807,-3.3807,-3.3807,-3.3807,-3.3807,-3.3807,-3.3807,-3.3689,-3.3375,-3.3328,-3.3328,-3.3328,-3.3328,-3.2925,-3.1947,-3.2017,-3.1317,-2.9502,-3.0344,-3.0427,-2.9496,-3.0025,-3.0327,-3.0269,-2.9919,-2.954,-2.9088,-2.8904,-2.8824,-2.8893,-2.9147,-2.9609,-3.0253,-3.0611,-3.0587,-3.0269,-2.969,-2.9129,-2.8492,-2.767,-2.7284,-2.7229,-2.6714,-2.6804,-2.7369,-4.6528,-4.699,-4.7355,-4.7355,-4.7778,-4.8105,-4.8105,-4.8105,-4.8105,-4.8105,-4.8105,-4.7913,-4.7413,-4.6855,-4.6278,-4.5643,-4.5586,-4.5586,-4.5586,-4.5586,-4.5355,-4.4797,-4.447,-4.3816,-4.2758,-4.2124,-4.1527,-4.0989,-4.0662,-4.0489,-4.0489,-4.0511,-4.0511,-4.0489,-4.0489,-4.0489,-4.0489,-4.0489,-4.0489,-4.0489,-4.0489,-4.0489,-4.0489,-4.0489,-4.0489,-4.0489,-4.0489,-4.0181,-3.9738,-3.9738,-3.9181,-3.8392,-3.7853,-3.7103,-3.6253,-3.5276,-3.5122,-3.5207,-3.5053,-3.4999,-3.4999,-3.4999,-3.4999,-3.4981,-3.487,-3.4851,-3.4774,-3.4445,-3.4379,-3.4288,-3.4012,-3.3935,-3.3928,-3.3815,-3.3807,-3.3807,-3.3807,-3.3807,-3.3643,-3.3299,-3.3223,-3.3223,-3.3223,-3.3223,-3.3051,-3.2639,-3.2464,-3.1795,-3.0386,-3.0723,-3.0721,-3.021,-3.0845,-3.119,-3.119,-3.0601,-3.0123,-2.9717,-2.9542,-2.9437,-2.9515,-2.9811,-3.0133,-3.0537,-3.124,-3.1219,-3.0718,-3.0389,-2.995,-2.938,-2.8556,-2.7986,-2.763,-2.7395,-2.7373,-2.767,-4.8105,-4.8144,-4.8202,-4.8202,-4.824,-4.8279,-4.8279,-4.8279,-4.8279,-4.8279,-4.8279,-4.8259,-4.8202,-4.8202,-4.7548,-4.5913,-4.572,-4.5663,-4.5586,-4.5586,-4.5586,-4.5586,-4.4816,-4.4355,-4.4297,-4.2777,-4.1931,-4.1797,-4.0931,-4.0489,-4.0489,-4.0489,-4.0489,-4.0489,-4.0489,-4.0489,-4.0489,-4.0489,-4.0489,-4.0489,-4.0489,-4.0489,-4.0489,-4.0489,-4.0489,-4.0489,-4.0489,-4.0489,-4.0489,-4.0489,-3.9988,-3.9373,-3.9315,-3.8738,-3.7777,-3.6161,-3.568,-3.568,-3.568,-3.568,-3.568,-3.568,-3.5641,-3.5489,-3.5209,-3.5122,-3.5034,-3.4774,-3.4714,-3.4632,-3.4311,-3.42,-3.4123,-3.385,-3.3815,-3.3807,-3.3807,-3.3807,-3.3449,-3.2499,-3.2385,-3.2385,-3.2385,-3.2385,-3.2773,-3.3597,-3.3325,-3.2885,-3.2382,-3.1158,-3.0723,-3.119,-3.119,-3.119,-3.119,-3.0658,-3.041,-3.0417,-2.9863,-2.9614,-2.9803,-3.0303,-3.0578,-3.0668,-3.1255,-3.1482,-3.1409,-3.0703,-3.0389,-3.0329,-2.9442,-2.862,-2.7921,-2.841,-2.8407,-2.8245,-4.8105,-4.8644,-4.9086,-4.9086,-4.9644,-5.0067,-5.0067,-5.0067,-5.0067,-5.0067,-5.0067,-4.9817,-4.9163,-4.9086,-4.8663,-4.7605,-4.6951,-4.6317,-4.5624,-4.5586,-4.5586,-4.5586,-4.5393,-4.497,-4.4316,-4.3912,-4.3085,-4.1797,-4.0931,-4.0489,-4.0489,-4.0489,-4.0489,-4.0489,-4.0489,-4.0489,-4.0489,-4.0489,-4.0489,-4.0489,-4.0489,-4.0489,-4.0489,-4.0489,-4.0489,-4.0489,-4.0489,-4.0489,-4.0489,-4.0489,-4.0354,-4.0104,-3.9488,-3.9161,-3.8777,-3.7719,-3.7411,-3.7411,-3.7411,-3.7411,-3.7411,-3.7411,-3.6911,-3.6243,-3.5566,-3.5417,-3.532,-3.507,-3.4999,-3.4926,-3.4634,-3.4379,-3.4195,-3.4123,-3.3935,-3.3807,-3.3807,-3.3807,-3.3716,-3.3449,-3.3449,-3.3449,-3.3449,-3.3449,-3.3128,-3.2396,-3.2249,-3.1847,-3.1028,-3.0662,-3.0723,-3.119,-3.119,-3.119,-3.119,-3.1055,-3.1284,-3.1799,-3.0762,-3.1053,-3.2544,-3.1706,-3.1643,-3.2081,-3.1679,-3.1482,-3.1482,-3.1278,-3.1219,-3.1146,-3.0329,-2.9889,-2.9699,-2.9665,-2.9416,-2.9203,-4.9298,-4.9663,-4.999,-4.999,-5.0375,-5.0702,-5.0702,-5.0702,-5.0702,-5.0702,-5.0702,-5.051,-5.0048,-4.999,-4.9644,-4.8779,-4.7586,-4.6701,-4.622,-4.5817,-4.5586,-4.5586,-4.5586,-4.5374,-4.4893,-4.4489,-4.3489,-4.1797,-4.1335,-4.0893,-4.0489,-4.0489,-4.0489,-4.0489,-4.0489,-4.0489,-4.0489,-4.0489,-4.0489,-4.0489,-4.0489,-4.0489,-4.0489,-4.0489,-4.0489,-4.0489,-4.0489,-4.0489,-4.0489,-4.0489,-4.0489,-4.0412,-3.9988,-3.9835,-3.9758,-3.9277,-3.8604,-3.8007,-3.8007,-3.8007,-3.8007,-3.8007,-3.7642,-3.718,-3.6738,-3.6334,-3.6017,-3.586,-3.5538,-3.5207,-3.4926,-3.4735,-3.4513,-3.4246,-3.4086,-3.3991,-3.3825,-3.3842,-3.3829,-3.3798,-3.3807,-3.3807,-3.3807,-3.3807,-3.3505,-3.2829,-3.275,-3.2449,-3.1777,-3.1742,-3.1558,-3.123,-3.119,-3.119,-3.119,-3.1512,-3.2053,-3.2797,-3.2187,-3.2425,-3.3491,-3.2828,-3.2535,-3.2602,-3.2176,-3.1796,-3.1482,-3.1482,-3.1482,-3.1467,-3.1029,-3.0819,-3.0744,-3.0871,-3.0754,-3.0548,-5.0702,-5.0702,-5.0702,-5.0702,-5.0702,-5.0702,-5.0702,-5.0702,-5.0702,-5.0702,-5.0702,-5.0702,-5.0702,-5.0702,-5.0394,-4.9663,-4.8163,-4.7182,-4.6932,-4.6086,-4.5586,-4.5586,-4.5586,-4.5586,-4.5586,-4.4739,-4.3605,-4.2181,-4.2066,-4.1546,-4.07,-4.07,-4.0623,-4.0489,-4.0489,-4.0489,-4.0489,-4.0489,-4.0489,-4.0489,-4.0489,-4.0489,-4.0489,-4.0489,-4.0489,-4.0489,-4.0489,-4.0489,-4.0489,-4.0489,-4.0489,-4.0489,-4.0489,-4.0489,-4.0489,-4.0489,-3.9488,-3.8373,-3.8373,-3.8373,-3.8354,-3.8238,-3.82,-3.8161,-3.8027,-3.743,-3.6911,-3.6911,-3.6353,-3.5758,-3.5417,-3.5312,-3.5059,-3.4377,-3.4281,-3.4162,-3.3853,-3.387,-3.3851,-3.3808,-3.3807,-3.3807,-3.3807,-3.3807,-3.3807,-3.3807,-3.3807,-3.3606,-3.3214,-3.334,-3.2826,-3.1637,-3.138,-3.1303,-3.136,-3.2087,-3.2831,-3.3575,-3.3623,-3.3727,-3.3813,-3.3761,-3.3443,-3.2895,-3.2788,-3.2327,-3.1697,-3.1697,-3.1582,-3.1482,-3.1586,-3.156,-3.1449,-3.2217,-3.2288,-3.2068,-5.0702,-5.0702,-5.0702,-5.0702,-5.0702,-5.0702,-5.0702,-5.0702,-5.0702,-5.0702,-5.0702,-5.0702,-5.0702,-5.0702,-5.0644,-5.051,-4.9586,-4.8413,-4.699,-4.6086,-4.5586,-4.5586,-4.5586,-4.5586,-4.5586,-4.4739,-4.4162,-4.3912,-4.3239,-4.245,-4.1604,-4.1604,-4.12,-4.0489,-4.0489,-4.0489,-4.0489,-4.0489,-4.0489,-4.0489,-4.0489,-4.0489,-4.0489,-4.0489,-4.0489,-4.0489,-4.0489,-4.0489,-4.0489,-4.0489,-4.0489,-4.0489,-4.0489,-4.0489,-4.0489,-4.0489,-4.0315,-4.0104,-4.0104,-4.0104,-3.995,-3.9258,-3.9104,-3.8911,-3.8161,-3.7892,-3.7796,-3.7796,-3.77,-3.7358,-3.6599,-3.6269,-3.578,-3.4785,-3.4377,-3.4142,-3.3934,-3.3851,-3.3808,-3.3807,-3.3807,-3.3807,-3.3807,-3.3807,-3.3807,-3.3807,-3.3807,-3.3606,-3.3214,-3.3846,-3.3956,-3.3336,-3.2263,-3.1836,-3.2144,-3.2848,-3.3592,-3.432,-3.4334,-3.4678,-3.5256,-3.4686,-3.4382,-3.4284,-3.3684,-3.3039,-3.2437,-3.2437,-3.2064,-3.1541,-3.2138,-3.2363,-3.2452,-3.3672,-3.3636,-3.3006,-5.0702,-5.0702,-5.0702,-5.0702,-5.0702,-5.0702,-5.0702,-5.0702,-5.0702,-5.0702,-5.0702,-5.0702,-5.0702,-5.0702,-5.0702,-5.0702,-4.9965,-4.9183,-4.8392,-4.706,-4.6086,-4.5605,-4.5586,-4.5586,-4.5586,-4.5201,-4.4759,-4.4297,-4.3932,-4.3316,-4.2508,-4.2508,-4.2047,-4.12,-4.12,-4.0931,-4.0489,-4.0489,-4.0489,-4.0489,-4.0489,-4.0489,-4.0489,-4.0489,-4.0489,-4.0489,-4.0489,-4.0489,-4.0489,-4.0489,-4.0489,-4.0489,-4.0489,-4.0489,-4.0489,-4.0489,-4.0489,-4.0489,-4.0489,-4.0489,-4.0412,-4.0027,-3.995,-3.9835,-3.9431,-3.9008,-3.87,-3.87,-3.8334,-3.7873,-3.7469,-3.7298,-3.7005,-3.6375,-3.6156,-3.5832,-3.5084,-3.4862,-3.4587,-3.4079,-3.3876,-3.3807,-3.3807,-3.4192,-3.4468,-3.4468,-3.489,-3.5072,-3.4882,-3.5217,-3.5339,-3.5119,-3.3776,-3.3223,-3.3457,-3.3812,-3.4353,-3.5098,-3.5098,-3.5284,-3.5577,-3.5253,-3.4941,-3.4576,-3.4284,-3.3735,-3.3093,-3.2749,-3.2582,-3.254,-3.2496,-3.2946,-3.3649,-3.4247,-3.4441,-3.4456,-5.0758,-5.0702,-5.0702,-5.074,-5.0758,-5.0757,-5.0791,-5.0791,-5.0791,-5.0791,-5.0791,-5.0791,-5.0791,-5.0791,-5.0791,-5.0791,-5.0274,-4.9854,-4.966,-4.8353,-4.7105,-4.6015,-4.5717,-4.5586,-4.5586,-4.5586,-4.5259,-4.4605,-4.4605,-4.4182,-4.3374,-4.3374,-4.2912,-4.2104,-4.2104,-4.1739,-4.1085,-4.0893,-4.0796,-4.0777,-4.0566,-4.0489,-4.0489,-4.0489,-4.0489,-4.0489,-4.0489,-4.0489,-4.0489,-4.0489,-4.0489,-4.0489,-4.0489,-4.0489,-4.0489,-4.0489,-4.0489,-4.0489,-4.0489,-4.0489,-4.0489,-4.0489,-4.0489,-4.0489,-4.0489,-4.0008,-3.9565,-3.9565,-3.9046,-3.8527,-3.8334,-3.8296,-3.8147,-3.77,-3.765,-3.7344,-3.6359,-3.6099,-3.5697,-3.4883,-3.4592,-3.4465,-3.4376,-3.4945,-3.5312,-3.5312,-3.5917,-3.6303,-3.6303,-3.6468,-3.6622,-3.6668,-3.5438,-3.4762,-3.4687,-3.4874,-3.5162,-3.5622,-3.5622,-3.5622,-3.5622,-3.5622,-3.5316,-3.483,-3.483,-3.4431,-3.3802,-3.3461,-3.3412,-3.3465,-3.3271,-3.3758,-3.4502,-3.4666,-3.5055,-3.5504,-5.0894,-5.0791,-5.074,-5.0848,-5.0894,-5.0932,-5.1042,-5.1063,-5.1063,-5.1063,-5.1063,-5.1063,-5.1063,-5.1063,-5.1063,-5.1063,-5.1015,-5.0656,-4.9849,-4.9664,-4.8805,-4.7068,-4.6105,-4.5586,-4.5586,-4.5586,-4.5566,-4.549,-4.549,-4.5047,-4.4201,-4.4201,-4.3778,-4.3008,-4.3008,-4.297,-4.2854,-4.2047,-4.17,-4.1643,-4.0835,-4.0489,-4.0489,-4.0489,-4.0489,-4.0489,-4.0489,-4.0489,-4.0489,-4.0489,-4.0489,-4.0489,-4.0489,-4.0489,-4.0489,-4.0489,-4.0489,-4.0489,-4.0489,-4.0489,-4.0489,-4.0489,-4.0489,-4.0489,-4.0489,-4.045,-4.0412,-4.0412,-4.0354,-4.0085,-3.9335,-3.92,-3.8867,-3.7857,-3.7637,-3.7505,-3.7247,-3.7141,-3.6942,-3.6559,-3.6509,-3.6374,-3.613,-3.6174,-3.6193,-3.6193,-3.6266,-3.6303,-3.6303,-3.7,-3.7546,-3.7781,-3.696,-3.6096,-3.5232,-3.5901,-3.6045,-3.5622,-3.5622,-3.5622,-3.5622,-3.5622,-3.5577,-3.5515,-3.5515,-3.5161,-3.4593,-3.5218,-3.4679,-3.3615,-3.4898,-3.5003,-3.4562,-3.519,-3.5459,-3.5504,-5.1008,-5.0979,-5.0953,-5.1016,-5.1008,-5.105,-5.1084,-5.1094,-5.1094,-5.1094,-5.1094,-5.1094,-5.1094,-5.1094,-5.1094,-5.1094,-5.1145,-5.1025,-5.0693,-5.0289,-4.9171,-4.7252,-4.6282,-4.577,-4.5718,-4.5718,-4.5677,-4.5586,-4.5586,-4.5432,-4.5105,-4.5105,-4.4707,-4.3979,-4.3979,-4.3718,-4.3253,-4.2923,-4.2787,-4.2748,-4.243,-4.2294,-4.2294,-4.2294,-4.1935,-4.1442,-4.1442,-4.1031,-4.0489,-4.0489,-4.0489,-4.0489,-4.0489,-4.0489,-4.0489,-4.0489,-4.0489,-4.0489,-4.0489,-4.0489,-4.0489,-4.0489,-4.0489,-4.0489,-4.0489,-4.0489,-4.0489,-4.0489,-4.0489,-4.0412,-4.0085,-4.0027,-3.9906,-3.9489,-3.9425,-3.9195,-3.8632,-3.8384,-3.8003,-3.7351,-3.7106,-3.6897,-3.6578,-3.6997,-3.7202,-3.7066,-3.7514,-3.779,-3.779,-3.8083,-3.8297,-3.8382,-3.8091,-3.7478,-3.6482,-3.6423,-3.6308,-3.6097,-3.5783,-3.5622,-3.5622,-3.5622,-3.5622,-3.5622,-3.5622,-3.5739,-3.5944,-3.5777,-3.5885,-3.62,-3.6285,-3.6432,-3.6516,-3.6245,-3.6165,-3.6117,-5.1128,-5.1122,-5.1103,-5.112,-5.1128,-5.1145,-5.1193,-5.1193,-5.1193,-5.1193,-5.1193,-5.1193,-5.1193,-5.1193,-5.1193,-5.1193,-5.1245,-5.1268,-5.1268,-5.0602,-4.9326,-4.7345,-4.6644,-4.6154,-4.5844,-4.5844,-4.5783,-4.5699,-4.5699,-4.5699,-4.5699,-4.5699,-4.5421,-4.4932,-4.4932,-4.4656,-4.4175,-4.3931,-4.3814,-4.3775,-4.3502,-4.3405,-4.3405,-4.3405,-4.3004,-4.244,-4.244,-4.1969,-4.1345,-4.1345,-4.132,-4.1316,-4.1316,-4.1316,-4.1316,-4.1316,-4.1316,-4.1316,-4.1316,-4.1316,-4.1181,-4.0642,-4.0489,-4.0489,-4.0489,-4.0489,-4.0489,-4.0489,-4.0489,-4.0489,-4.0489,-4.0489,-4.0489,-4.0489,-4.0489,-4.0296,-3.9738,-3.9512,-3.916,-3.8478,-3.8232,-3.7986,-3.7647,-3.8003,-3.8218,-3.8024,-3.8419,-3.8707,-3.8707,-3.8707,-3.8707,-3.8707,-3.8707,-3.8368,-3.7685,-3.7135,-3.6706,-3.6392,-3.6028,-3.5783,-3.5622,-3.5622,-3.5757,-3.5994,-3.5994,-3.6417,-3.7144,-3.6867,-3.7168,-3.7765,-3.753,-3.7585,-3.7748,-3.716,-3.698,-3.6919,-5.1201,-5.1152,-5.1111,-5.1191,-5.1201,-5.1242,-5.1386,-5.1406,-5.1406,-5.1406,-5.1406,-5.1406,-5.1406,-5.1406,-5.1406,-5.1406,-5.1406,-5.1406,-5.1406,-5.0644,-4.9371,-4.7498,-4.7267,-4.6803,-4.5918,-4.5899,-4.5899,-4.5899,-4.5899,-4.5899,-4.5899,-4.5899,-4.5899,-4.5899,-4.5899,-4.5899,-4.5849,-4.5051,-4.4701,-4.4642,-4.3775,-4.3424,-4.3424,-4.3424,-4.3424,-4.3405,-4.3405,-4.3326,-4.3194,-4.3194,-4.3153,-4.3085,-4.3104,-4.3104,-4.3104,-4.3104,-4.3104,-4.3104,-4.3104,-4.3104,-4.2681,-4.095,-4.0508,-4.0508,-4.0508,-4.0508,-4.0508,-4.0489,-4.0489,-4.0489,-4.0489,-4.0489,-4.0489,-4.0489,-4.0489,-4.0489,-4.0489,-4.0489,-4.0389,-4.0139,-4.0101,-3.9982,-3.9645,-3.9289,-3.9125,-3.9099,-3.8855,-3.8707,-3.8707,-3.8707,-3.8707,-3.8707,-3.8707,-3.8707,-3.8707,-3.8183,-3.7379,-3.6416,-3.6416,-3.6139,-3.5622,-3.5622,-3.6045,-3.6789,-3.6789,-3.7212,-3.7973,-3.87,-3.8539,-3.7883,-3.8628,-3.8469,-3.7822,-3.7806,-3.7822,-3.7822,-5.1343,-5.1318,-5.1313,-5.1342,-5.1343,-5.1344,-5.1386,-5.1406,-5.1406,-5.1406,-5.1406,-5.1406,-5.1406,-5.1406,-5.1406,-5.1406,-5.1406,-5.1406,-5.1406,-5.1172,-5.0546,-4.9411,-4.8155,-4.7315,-4.6961,-4.6351,-4.5995,-4.5899,-4.5899,-4.5899,-4.5899,-4.5899,-4.594,-4.6039,-4.6039,-4.6084,-4.6156,-4.5924,-4.5827,-4.5807,-4.5534,-4.5436,-4.5436,-4.5436,-4.5031,-4.4451,-4.4451,-4.3968,-4.3335,-4.3335,-4.3326,-4.3294,-4.3195,-4.3175,-4.3167,-4.3115,-4.3104,-4.3104,-4.3104,-4.3104,-4.2989,-4.245,-4.2316,-4.2162,-4.1546,-4.1412,-4.1239,-4.0623,-4.0489,-4.0489,-4.0489,-4.0489,-4.0489,-4.0489,-4.0489,-4.0489,-4.0489,-4.0489,-4.0473,-4.0389,-4.0372,-4.0267,-3.9982,-3.9859,-3.9599,-3.9152,-3.8855,-3.8707,-3.8707,-3.8707,-3.8707,-3.8707,-3.8707,-3.8707,-3.8707,-3.8183,-3.7755,-3.7452,-3.6764,-3.6585,-3.6913,-3.6582,-3.6857,-3.7567,-3.7567,-3.799,-3.8684,-3.8903,-3.9176,-3.9429,-3.9647,-3.961,-3.9332,-3.8761,-3.858,-3.8525,-5.1406,-5.1406,-5.1406,-5.1406,-5.1406,-5.1406,-5.1406,-5.1406,-5.1406,-5.1406,-5.1406,-5.1406,-5.1406,-5.1406,-5.1406,-5.1406,-5.1406,-5.1406,-5.1406,-5.1406,-5.1172,-5.0703,-4.9355,-4.8279,-4.7506,-4.6956,-4.6475,-4.6069,-4.6069,-4.6069,-4.6069,-4.6069,-4.6108,-4.6175,-4.6175,-4.6223,-4.6308,-4.6308,-4.6308,-4.6308,-4.6308,-4.6308,-4.6308,-4.6308,-4.5954,-4.5456,-4.5456,-4.5039,-4.4468,-4.4468,-4.4428,-4.4381,-4.4277,-4.4275,-4.4253,-4.4215,-4.4214,-4.42,-4.4187,-4.4157,-4.416,-4.41,-4.3585,-4.297,-4.2431,-4.2316,-4.2162,-4.1643,-4.1527,-4.1527,-4.1527,-4.1239,-4.1008,-4.1008,-4.0719,-4.0489,-4.0489,-4.0489,-4.0489,-4.0489,-4.0489,-4.0441,-4.0267,-4.0158,-3.9819,-3.9133,-3.8961,-3.8833,-3.8707,-3.8707,-3.8707,-3.8707,-3.9019,-3.9166,-3.9166,-3.9167,-3.8878,-3.8363,-3.7767,-3.7747,-3.8297,-3.7792,-3.7969,-3.8657,-3.8408,-3.8751,-3.9428,-3.9428,-3.9681,-4.007,-4.007,-4.007,-4.002,-3.9542,-3.9368,-3.9315,-5.1406,-5.1406,-5.1406,-5.1406,-5.1406,-5.1406,-5.1406,-5.1406,-5.1406,-5.1406,-5.1406,-5.1406,-5.1406,-5.1406,-5.1406,-5.1406,-5.1406,-5.1406,-5.1406,-5.1406,-5.1406,-5.1406,-5.0703,-4.9531,-4.7871,-4.7754,-4.7285,-4.6426,-4.6426,-4.6387,-4.6308,-4.6308,-4.6308,-4.6308,-4.6308,-4.6308,-4.6308,-4.6308,-4.6308,-4.6308,-4.6308,-4.6308,-4.6308,-4.6308,-4.6308,-4.6308,-4.6308,-4.6223,-4.6117,-4.6117,-4.6039,-4.5932,-4.5916,-4.5916,-4.5916,-4.5907,-4.5899,-4.59,-4.582,-4.5803,-4.5783,-4.5632,-4.4465,-4.333,-4.322,-4.3201,-4.3181,-4.3104,-4.3104,-4.3104,-4.3104,-4.245,-4.1931,-4.1931,-4.1239,-4.0719,-4.0719,-4.0719,-4.0719,-4.0719,-4.0719,-4.0719,-4.0719,-4.0479,-4.0068,-3.9462,-3.9384,-3.9231,-3.8983,-3.897,-3.894,-3.8927,-3.9625,-4.001,-4.001,-4.0744,-4.0492,-3.9298,-3.921,-3.9408,-3.9757,-3.9168,-3.9242,-3.9898,-3.9378,-3.9494,-4.007,-4.007,-4.007,-4.007,-4.007,-4.007,-4.007,-4.007,-4.007,-4.007,-5.1406,-5.1406,-5.1406,-5.1406,-5.1406,-5.1406,-5.1406,-5.1406,-5.1406,-5.1406,-5.1406,-5.1406,-5.1406,-5.1406,-5.1406,-5.1406,-5.1406,-5.1406,-5.1406,-5.1406,-5.1406,-5.1406,-5.123,-5.0664,-4.9668,-4.8965,-4.8183,-4.7324,-4.7324,-4.6973,-4.6308,-4.6308,-4.6308,-4.6308,-4.6308,-4.6308,-4.6308,-4.6308,-4.6308,-4.6308,-4.6308,-4.6308,-4.6308,-4.6308,-4.6308,-4.6308,-4.6308,-4.6289,-4.6268,-4.6268,-4.6246,-4.62,-4.6084,-4.6069,-4.6039,-4.5924,-4.5899,-4.5899,-4.5891,-4.5881,-4.5871,-4.5783,-4.5471,-4.5003,-4.4232,-4.4047,-4.3855,-4.3239,-4.3104,-4.3104,-4.3104,-4.2951,-4.2816,-4.2816,-4.2662,-4.2547,-4.2547,-4.2547,-4.2547,-4.2547,-4.2547,-4.2547,-4.2547,-4.2259,-4.2006,-4.1841,-4.1595,-4.1297,-4.0998,-4.0969,-4.0829,-4.0598,-4.0763,-4.0855,-4.0855,-4.102,-4.0936,-4.0668,-4.0254,-4.0383,-4.0971,-4.0517,-4.0394,-4.066,-4.0538,-4.0343,-4.007,-4.007,-4.007,-4.007,-4.007,-4.007,-4.007,-4.007,-4.007,-4.007,-5.1406,-5.1406,-5.1406,-5.1406,-5.1406,-5.1406,-5.1406,-5.1406,-5.1406,-5.1406,-5.1406,-5.1406,-5.1406,-5.1406,-5.1406,-5.1406,-5.1406,-5.1406,-5.1406,-5.1406,-5.1406,-5.1406,-5.1406,-5.1191,-5.0781,-5.0332,-4.9473,-4.8223,-4.8223,-4.7773,-4.6914,-4.6914,-4.6699,-4.6308,-4.6308,-4.6308,-4.6308,-4.6308,-4.6308,-4.6308,-4.6308,-4.6308,-4.6308,-4.6308,-4.6308,-4.6308,-4.6308,-4.6308,-4.6308,-4.6308,-4.6308,-4.6289,-4.6223,-4.62,-4.6175,-4.6113,-4.6084,-4.608,-4.6001,-4.5995,-4.5959,-4.582,-4.5796,-4.5659,-4.504,-4.4913,-4.4797,-4.4374,-4.4278,-4.4278,-4.4278,-4.3951,-4.3662,-4.3662,-4.3355,-4.3104,-4.3104,-4.3104,-4.3104,-4.3104,-4.3104,-4.3104,-4.3104,-4.2944,-4.2776,-4.262,-4.2436,-4.2119,-4.1614,-4.1586,-4.1468,-4.1111,-4.1479,-4.168,-4.168,-4.2047,-4.2249,-4.2249,-4.1553,-4.1667,-4.2377,-4.1872,-4.1688,-4.175,-4.1446,-4.1196,-4.0908,-4.0577,-4.0497,-4.0449,-4.0204,-4.007,-4.007,-4.007,-4.007,-4.007,-5.1406,-5.1406,-5.1406,-5.1406,-5.1406,-5.1406,-5.1406,-5.1406,-5.1406,-5.1406,-5.1406,-5.1406,-5.1406,-5.1406,-5.1406,-5.1406,-5.1406,-5.1406,-5.1406,-5.1406,-5.1406,-5.1406,-5.1406,-5.1406,-5.1406,-5.1406,-5.0644,-4.9121,-4.9121,-4.8672,-4.7812,-4.7812,-4.7441,-4.6738,-4.6738,-4.6738,-4.6738,-4.6738,-4.6738,-4.6738,-4.6738,-4.6738,-4.6738,-4.6738,-4.6738,-4.6738,-4.6738,-4.6738,-4.6738,-4.6738,-4.6641,-4.6523,-4.6523,-4.6426,-4.6308,-4.6308,-4.6308,-4.6289,-4.6153,-4.6124,-4.6099,-4.589,-4.5844,-4.5828,-4.5673,-4.5635,-4.5603,-4.5618,-4.562,-4.5586,-4.5586,-4.5009,-4.4509,-4.4509,-4.3951,-4.3528,-4.3528,-4.3528,-4.3528,-4.3528,-4.3528,-4.3528,-4.3528,-4.3528,-4.3421,-4.3139,-4.3119,-4.2851,-4.2219,-4.2137,-4.1946,-4.1627,-4.2191,-4.2506,-4.2506,-4.3167,-4.3497,-4.3479,-4.2818,-4.2837,-4.3479,-4.305,-4.2788,-4.2655,-4.2162,-4.1895,-4.175,-4.1268,-4.0995,-4.0874,-4.0417,-4.0154,-4.007,-4.007,-4.007,-4.007,-5.1406,-5.1406,-5.1406,-5.1406,-5.1406,-5.1406,-5.1406,-5.1406,-5.1406,-5.1406,-5.1406,-5.1406,-5.1406,-5.1406,-5.1406,-5.1406,-5.1406,-5.1406,-5.1406,-5.1406,-5.1406,-5.1406,-5.1406,-5.1406,-5.1406,-5.1406,-5.0957,-5.0019,-5.0019,-4.957,-4.8711,-4.8711,-4.8652,-4.8555,-4.8555,-4.8555,-4.8555,-4.8555,-4.8555,-4.8555,-4.8555,-4.8555,-4.8555,-4.8555,-4.8555,-4.8555,-4.8555,-4.8555,-4.8555,-4.8555,-4.8047,-4.7422,-4.7422,-4.6914,-4.6308,-4.6308,-4.6308,-4.6308,-4.6289,-4.6268,-4.6246,-4.6104,-4.6064,-4.6021,-4.59,-4.5717,-4.5635,-4.5747,-4.568,-4.5586,-4.5586,-4.549,-4.5413,-4.5413,-4.5316,-4.5259,-4.5259,-4.5259,-4.5259,-4.5259,-4.5259,-4.5259,-4.5259,-4.5259,-4.524,-4.5204,-4.5185,-4.5017,-4.4646,-4.4342,-4.4026,-4.3639,-4.3424,-4.3332,-4.3332,-4.3442,-4.3497,-4.3497,-4.3387,-4.3387,-4.3497,-4.341,-4.3142,-4.2711,-4.2616,-4.2302,-4.1793,-4.1707,-4.1358,-4.0903,-4.0827,-4.0497,-4.007,-4.007,-4.007,-4.007,-5.1406,-5.1406,-5.1406,-5.1406,-5.1406,-5.1406,-5.1406,-5.1406,-5.1406,-5.1406,-5.1406,-5.1406,-5.1406,-5.1406,-5.1406,-5.1406,-5.1406,-5.1406,-5.1406,-5.1406,-5.1406,-5.1406,-5.1406,-5.1406,-5.1406,-5.1406,-5.123,-5.0879,-5.0879,-5.0449,-4.9629,-4.9629,-4.9375,-4.8906,-4.8906,-4.8906,-4.8906,-4.8906,-4.8906,-4.8906,-4.8906,-4.8906,-4.8906,-4.8906,-4.8906,-4.8906,-4.8906,-4.8906,-4.8906,-4.8906,-4.8633,-4.832,-4.832,-4.8066,-4.7754,-4.7754,-4.7754,-4.7754,-4.7754,-4.7754,-4.7597,-4.6983,-4.683,-4.6689,-4.615,-4.5881,-4.5764,-4.5809,-4.5692,-4.5586,-4.5586,-4.5586,-4.5586,-4.5586,-4.5586,-4.5586,-4.5586,-4.5586,-4.5586,-4.5586,-4.5586,-4.5586,-4.5586,-4.5586,-4.5586,-4.5586,-4.5586,-4.5438,-4.5118,-4.4966,-4.4612,-4.4016,-4.3849,-4.3693,-4.3479,-4.3497,-4.3497,-4.3497,-4.3497,-4.3497,-4.3497,-4.3497,-4.3375,-4.3142,-4.3142,-4.2995,-4.2734,-4.2422,-4.2162,-4.1853,-4.1534,-4.1286,-4.103,-4.0672,-4.0528,-4.048]},{"header":{"parameterUnit":"m.s-1","parameterCategory":1,"la1":30.6,"la2":28.766,"lo1":-90.7593,"lo2":-88.6598,"dy":0.0162,"dx":0.0183,"nx":116,"ny":114,"refTime":"2023-06-29T12:00:00:Z","depth":0,"parameterNumber":3,"parameterNumberName":"V-component_of_WINDS"},"data":[0.0,0.0,0.0,0.0,0.0,0.0,0.0,0.0,0.0,0.0,0.0,0.0,0.0,0.0,0.0,0.0,0.0,0.0,0.0,0.0,0.0,0.0,0.0,0.0,0.0,0.0,0.0,0.0,0.0,0.0,0.0,0.0,0.0,0.0,0.0,0.0,0.0,0.0,0.0,0.0,0.0,0.0,0.0,0.0,0.0,0.0,0.0,0.0,0.0,0.0,0.0,0.0,0.0,0.0,0.0,0.0,0.0,0.0,0.0,0.0,0.0,0.0,0.0,0.0,0.0,0.0,0.0,0.0,0.0,0.0,0.0,0.0,0.0,0.0,0.0,0.0,0.0,0.0,0.0,0.0,0.0,0.0,0.0,0.0,0.0,0.0,0.0,0.0,0.0,0.0,0.0,0.0,0.0,0.0,0.0,0.0,0.0,0.0,0.0,0.0,0.0,0.0,0.0,0.0,0.0,0.0,0.0,0.0,0.0,0.0,0.0,0.0,0.0,0.0,0.0,0.0,0.0,0.0,0.0,0.0,0.0,0.0,0.0,0.0,0.0,0.0,0.0,0.0,0.0,0.0,0.0,0.0,0.0,0.0,0.0,0.0,0.0,0.0,0.0,0.0,0.0,0.0,0.0,0.0,0.0,0.0,0.0,0.0,0.0,0.0,0.0,0.0,0.0,0.0,0.0,0.0,0.0,0.0,0.0,0.0,0.0,0.0,0.0,0.0,0.0,0.0,0.0,0.0,0.0,0.0,0.0,0.0,0.0,0.0,0.0,0.0,0.0,0.0,0.0,0.0,0.0,0.0,0.0,0.0,0.0,0.0,0.0,0.0,0.0,0.0,0.0,0.0,0.0,0.0,0.0,0.0,0.0,0.0,0.0,0.0,0.0,0.0,0.0,0.0,0.0,0.0,0.0,0.0,0.0,0.0,0.0,0.0,0.0,0.0,0.0,0.0,0.0,0.0,0.0,0.0,0.0,0.0,0.0,0.0,0.0,0.0,0.0,0.0,0.0,0.0,0.0,0.0,0.0,0.0,0.0,0.0,0.0,0.0,0.0,0.0,0.0,0.0,0.0,0.0,0.0,0.0,0.0,0.0,0.0,0.0,0.0,0.0,0.0,0.0,0.0,0.0,0.0,0.0,0.0,0.0,0.0,0.0,0.0,0.0,0.0,0.0,0.0,0.0,0.0,0.0,0.0,0.0,0.0,0.0,0.0,0.0,0.0,0.0,0.0,0.0,0.0,0.0,0.0,0.0,0.0,0.0,0.0,0.0,0.0,0.0,0.0,0.0,0.0,0.0,0.0,0.0,0.0,0.0,0.0,0.0,0.0,0.0,0.0,0.0,0.0,0.0,0.0,0.0,0.0,0.0,0.0,0.0,0.0,0.0,0.0,0.0,0.0,0.0,0.0,0.0,0.0,0.0,0.0,0.0,0.0,0.0,0.0,0.0,0.0,0.0,0.0,0.0,0.0,0.0,0.0,0.0,0.0,0.0,0.0,0.0,0.0,0.0,0.0,0.0,0.0,0.0,0.0,0.0,0.0,0.0,0.0,0.0,0.0,0.0,0.0,0.0,0.0,0.0,0.0,0.0,0.0,0.0,0.0,0.0,0.0,0.0,0.0,0.0,0.0,0.0,0.0,0.0,0.0,0.0,0.0,0.0,0.0,0.0,0.0,0.0,0.0,0.0,0.0,0.0,0.0,0.0,0.0,0.0,0.0,0.0,0.0,0.0,0.0,0.0,0.0,0.0,0.0,0.0,0.0,0.0,0.0,0.0,0.0,0.0,0.0,0.0,0.0,0.0,0.0,0.0,0.0,0.0,0.0,0.0,0.0,0.0,0.0,0.0,0.0,0.0,0.0,0.0,0.0,0.0,0.0,0.0,0.0,0.0,0.0,0.0,0.0,0.0,0.0,0.0,0.0,0.0,0.0,0.0,0.0,0.0,0.0,0.0,0.0,0.0,0.0,0.0,0.0,0.0,0.0,0.0,0.0,0.0,0.0,0.0,0.0,0.0,0.0,0.0,0.0,0.0,0.0,0.0,0.0,0.0,0.0,0.0,0.0,0.0,0.0,0.0,0.0,0.0,0.0,0.0,0.0,0.0,0.0,0.0,0.0,0.0,0.0,0.0,0.0,0.0,0.0,0.0,0.0,0.0,0.0,0.0,0.0,0.0,0.0,0.0,0.0,0.0,0.0,0.0,0.0,0.0,0.0,0.0,0.0,0.0,0.0,0.0,0.0,0.0,0.0,0.0,0.0,0.0,0.0,0.0,0.0,0.0,0.0,0.0,0.0,0.0,0.0,0.0,0.0,0.0,0.0,0.0,0.0,0.0,0.0,0.0,0.0,0.0,0.0,0.0,0.0,0.0,0.0,0.0,0.0,0.0,0.0,0.0,0.0,0.0,0.0,0.0,0.0,0.0,0.0,0.0,0.0,0.0,0.0,0.0,0.0,0.0,0.0,0.0,0.0,0.0,0.0,0.0,0.0,0.0,0.0,0.0,0.0,0.0,0.0,0.0,0.0,0.0,0.0,0.0,0.0,0.0,0.0,0.0,0.0,0.0,0.0,0.0,0.0,0.0,0.0,0.0,0.0,0.0,0.0,0.0,0.0,0.0,0.0,0.0,0.0,0.0,0.0,0.0,0.0,0.0,0.0,0.0,0.0,0.0,0.0,0.0,0.0,0.0,0.0,0.0,0.0,0.0,0.0,0.0,0.0,0.0,0.0,0.0,0.0,0.0,0.0,0.0,0.0,0.0,0.0,0.0,0.0,0.0,0.0,0.0,0.0,0.0,0.0,0.0,0.0,0.0,0.0,0.0,0.0,0.0,0.0,0.0,0.0,0.0,0.0,0.0,0.0,0.0,0.0,0.0,0.0,0.0,0.0,0.0,0.0,0.0,0.0,0.0,0.0,0.0,0.0,0.0,0.0,0.0,0.0,0.0,0.0,0.0,0.0,0.0,0.0,0.0,0.0,0.0,0.0,0.0,0.0,0.0,0.0,0.0,0.0,0.0,0.0,0.0,0.0,0.0,0.0,0.0,0.0,0.0,0.0,0.0,0.0,0.0,0.0,0.0,0.0,0.0,0.0,0.0,0.0,0.0,0.0,0.0,0.0,0.0,0.0,0.0,0.0,0.0,0.0,0.0,0.0,0.0,0.0,0.0,0.0,0.0,0.0,0.0,0.0,0.0,0.0,0.0,0.0,0.0,0.0,0.0,0.0,0.0,0.0,0.0,0.0,0.0,0.0,0.0,0.0,0.0,0.0,0.0,0.0,0.0,0.0,0.0,0.0,0.0,0.0,0.0,0.0,0.0,0.0,0.0,0.0,0.0,0.0,0.0,0.0,0.0,0.0,0.0,0.0,0.0,0.0,0.0,0.0,0.0,0.0,0.0,0.0,0.0,0.0,0.0,0.0,0.0,0.0,0.0,0.0,0.0,0.0,0.0,0.0,0.0,0.0,0.0,0.0,0.0,0.0,0.0,0.0,0.0,0.0,0.0,0.0,0.0,0.0,0.0,0.0,0.0,0.0,0.0,0.0,0.0,0.0,0.0,0.0,0.0,0.0,0.0,0.0,0.0,0.0,0.0,0.0,0.0,0.0,0.0,0.0,0.0,0.0,0.0,0.0,0.0,0.0,0.0,0.0,0.0,0.0,0.0,0.0,0.0,0.0,0.0,0.0,0.0,0.0,0.0,0.0,0.0,0.0,0.0,0.0,0.0,0.0,0.0,0.0,0.0,0.0,0.0,0.0,0.0,0.0,0.0,0.0,0.0,0.0,0.0,0.0,0.0,0.0,0.0,0.0,0.0,0.0,0.0,0.0,0.0,0.0,0.0,0.0,0.0,0.0,0.0,0.0,0.0,0.0,0.0,0.0,0.0,0.0,0.0,0.0,0.0,0.0,0.0,0.0,0.0,0.0,0.0,0.0,0.0,0.0,0.0,0.0,0.0,0.0,0.0,0.0,0.0,0.0,0.0,0.0,0.0,0.0,0.0,0.0,0.0,0.0,0.0,0.0,0.0,0.0,0.0,0.0,0.0,0.0,0.0,0.0,0.0,0.0,0.0,0.0,0.0,0.0,0.0,0.0,0.0,0.0,0.0,0.0,0.0,0.0,0.0,0.0,0.0,0.0,0.0,0.0,0.0,0.0,0.0,0.0,0.0,0.0,0.0,0.0,0.0,0.0,0.0,0.0,0.0,0.0,0.0,0.0,0.0,0.0,0.0,0.0,0.0,0.0,0.0,0.0,0.0,0.0,0.0,0.0,0.0,0.0,0.0,0.0,0.0,0.0,0.0,0.0,0.0,0.0,0.0,0.0,0.0,0.0,0.0,0.0,0.0,0.0,0.0,0.0,0.0,0.0,0.0,0.0,0.0,0.0,0.0,0.0,0.0,0.0,0.0,0.0,0.0,0.0,0.0,0.0,0.0,0.0,0.0,0.0,0.0,0.0,0.0,0.0,0.0,0.0,0.0,0.0,0.0,0.0,0.0,0.0,0.0,0.0,0.0,0.0,0.0,0.0,0.0,0.0,0.0,0.0,0.0,0.0,0.0,0.0,0.0,0.0,0.0,0.0,0.0,0.0,0.0,0.0,0.0,0.0,0.0,0.0,0.0,0.0,0.0,0.0,0.0,0.0,0.0,0.0,0.0,0.0,0.0,0.0,0.0,0.0,0.0,0.0,0.0,0.0,0.0,0.0,0.0,0.0,0.0,0.0,0.0,0.0,0.0,0.0,0.0,0.0,0.0,0.0,0.0,0.0,0.0,0.0,0.0,0.0,0.0,0.0,0.0,0.0,0.0,0.0,0.0,0.0,0.0,0.0,0.0,0.0,0.0,0.0,0.0,0.0,0.0,0.0,0.0,0.0,0.0,0.0,0.0,0.0,0.0,0.0,0.0,0.0,0.0,0.0,0.0,0.0,0.0,0.0,0.0,0.0,0.0,0.0,0.0,0.0,0.0,0.0,0.0,0.0,0.0,0.0,0.0,0.0,0.0,0.0,0.0,0.0,0.0,0.0,0.0,0.0,0.0,0.0,0.0,0.0,0.0,0.0,0.0,0.0,0.0,0.0,0.0,0.0,0.0,0.0,0.0,0.0,0.0,0.0,0.0,0.0,0.0,0.0,0.0,0.0,0.0,0.0,0.0,0.0,0.0,0.0,0.0,0.0,0.0,0.0,0.0,0.0,0.0,0.0,0.0,0.0,0.0,0.0,0.0,0.0,0.0,0.0,0.0,0.0,0.0,0.0,0.0,0.0,0.0,0.0,0.0,0.0,0.0,0.0,0.0,0.0,0.0,0.0,0.0,0.0,0.0,0.0,0.0,0.0,0.0,0.0,0.0,0.0,0.0,0.0,0.0,0.0,0.0,0.0,0.0,0.0,0.0,0.0,0.0,0.0,0.0,0.0,0.0,0.0,0.0,0.0,0.0,0.0,0.0,0.0,0.0,0.0,0.0,0.0,0.0,0.0,0.0,0.0,0.0,0.0,0.0,0.0,0.0,0.0,0.0,0.0,0.0,0.0,0.0,0.0,0.0,0.0,0.0,0.0,0.0,0.0,0.0,0.0,0.0,0.0,0.0,0.0,0.0,0.0,0.0,0.0,0.0,0.0,0.0,0.0,0.0,0.0,0.0,0.0,0.0,0.0,0.0,0.0,0.0,0.0,0.0,0.0,0.0,0.0,0.0,0.0,0.0,0.0,0.0,0.0,0.0,0.0,0.0,0.0,0.0,0.0,0.0,0.0,0.0,0.0,0.0,0.0,0.0,0.0,0.0,0.0,0.0,0.0,0.0,0.0,0.0,0.0,0.0,0.0,0.0,0.0,0.0,0.0,0.0,0.0,0.0,0.0,0.0,0.0,0.0,0.0,0.0,0.0,0.0,0.0,0.0,0.0,0.0,0.0,0.0,0.0,0.0,0.0,0.0,0.0,0.0,0.0,0.0,0.0,0.0,0.0,0.0,0.0,0.0,0.0,0.0,0.0,0.0,0.0,0.0,0.0,0.0,0.0,0.0,0.0,0.0,0.0,0.0,0.0,0.0,0.0,0.0,0.0,0.0,0.0,0.0,0.0,0.0,0.0,0.0,0.0,0.0,0.0,0.0,-2.4013,0.0,0.0,0.0,0.0,0.0,0.0,0.0,0.0,0.0,0.0,0.0,0.0,0.0,0.0,0.0,0.0,0.0,0.0,0.0,0.0,0.0,0.0,0.0,0.0,0.0,0.0,0.0,0.0,0.0,0.0,0.0,0.0,0.0,0.0,0.0,0.0,0.0,0.0,0.0,0.0,0.0,0.0,0.0,0.0,0.0,0.0,0.0,0.0,0.0,0.0,0.0,0.0,0.0,0.0,0.0,0.0,0.0,0.0,0.0,0.0,0.0,0.0,0.0,0.0,0.0,0.0,0.0,0.0,0.0,0.0,0.0,0.0,0.0,0.0,0.0,0.0,0.0,0.0,0.0,0.0,0.0,0.0,0.0,0.0,0.0,0.0,0.0,0.0,0.0,0.0,0.0,0.0,0.0,0.0,0.0,0.0,0.0,0.0,0.0,0.0,0.0,0.0,0.0,0.0,0.0,0.0,0.0,0.0,0.0,0.0,0.0,0.0,0.0,0.0,0.0,0.0,-2.4106,0.0,0.0,0.0,0.0,0.0,0.0,0.0,0.0,0.0,0.0,0.0,0.0,0.0,0.0,0.0,0.0,0.0,0.0,0.0,0.0,0.0,0.0,0.0,0.0,0.0,0.0,0.0,0.0,0.0,0.0,0.0,0.0,0.0,0.0,0.0,0.0,0.0,0.0,0.0,0.0,0.0,0.0,0.0,0.0,0.0,0.0,0.0,0.0,0.0,0.0,0.0,0.0,0.0,0.0,0.0,0.0,0.0,0.0,0.0,0.0,0.0,0.0,0.0,0.0,0.0,0.0,0.0,0.0,0.0,0.0,0.0,0.0,0.0,0.0,0.0,0.0,0.0,0.0,0.0,0.0,0.0,0.0,0.0,0.0,0.0,0.0,0.0,0.0,0.0,0.0,0.0,0.0,0.0,0.0,0.0,0.0,0.0,0.0,0.0,0.0,0.0,0.0,0.0,0.0,0.0,0.0,0.0,0.0,-2.7424,-2.7514,-2.7509,-2.7509,-2.8051,-2.8869,-2.6483,-2.6275,-2.74,-2.4737,0.0,0.0,0.0,0.0,0.0,0.0,0.0,0.0,0.0,0.0,0.0,0.0,0.0,0.0,0.0,0.0,0.0,0.0,0.0,0.0,0.0,0.0,-0.8342,-0.8407,-0.8716,0.0,0.0,0.0,0.0,0.0,0.0,0.0,0.0,0.0,0.0,0.0,0.0,0.0,-1.9084,-1.8797,-1.8941,-1.9338,-1.7824,0.0,0.0,0.0,0.0,0.0,0.0,0.0,0.0,0.0,0.0,0.0,0.0,0.0,0.0,0.0,0.0,0.0,0.0,0.0,0.0,0.0,0.0,0.0,0.0,0.0,0.0,0.0,0.0,0.0,0.0,0.0,0.0,0.0,0.0,0.0,0.0,0.0,0.0,0.0,0.0,0.0,0.0,0.0,-2.2904,-2.445,0.0,0.0,0.0,0.0,0.0,0.0,0.0,0.0,0.0,0.0,0.0,0.0,0.0,-2.6655,-2.6873,-2.7859,-2.84,-2.8483,-2.948,-2.9941,-2.9941,-2.9941,-3.0042,-3.0151,-2.9774,0.0,-2.8407,-2.7972,0.0,0.0,0.0,0.0,0.0,0.0,0.0,0.0,0.0,0.0,0.0,0.0,0.0,0.0,0.0,0.0,0.0,0.0,0.0,0.0,0.0,0.0,-0.8635,-0.9084,-0.9421,-0.9667,0.0,0.0,0.0,0.0,0.0,0.0,0.0,0.0,0.0,0.0,-1.734,-1.8985,-2.059,-2.0703,-2.0989,-2.1297,-2.0639,-1.9429,-1.7852,-1.7049,0.0,0.0,0.0,0.0,0.0,0.0,0.0,0.0,0.0,0.0,0.0,0.0,0.0,0.0,0.0,0.0,0.0,0.0,0.0,0.0,0.0,0.0,0.0,0.0,0.0,0.0,0.0,0.0,0.0,0.0,0.0,0.0,0.0,0.0,0.0,0.0,0.0,0.0,0.0,-2.1872,-2.3234,-2.3943,-2.4053,-2.3943,0.0,0.0,0.0,0.0,0.0,0.0,0.0,0.0,0.0,-2.7843,-2.7827,-2.8149,-2.886,-2.9358,-2.964,-2.9673,-3.0151,-3.0398,-3.0398,-3.0398,-3.0398,-3.0398,-3.0398,-3.01,-2.9557,-2.8884,-2.797,-2.6914,0.0,0.0,0.0,0.0,-2.5983,-2.6134,0.0,0.0,0.0,0.0,0.0,0.0,0.0,0.0,0.0,0.0,0.0,0.0,-0.791,-0.8492,-0.9102,-0.9661,-1.0128,-1.033,-1.0157,0.0,0.0,0.0,0.0,0.0,0.0,0.0,0.0,-1.8062,-1.8818,-1.9988,-2.1628,-2.1974,-2.218,-2.231,-2.231,-2.1079,-1.9006,-1.847,-1.771,0.0,0.0,0.0,0.0,0.0,0.0,0.0,0.0,0.0,0.0,0.0,0.0,0.0,0.0,0.0,0.0,0.0,0.0,0.0,0.0,0.0,0.0,0.0,0.0,0.0,0.0,0.0,0.0,0.0,0.0,0.0,0.0,0.0,0.0,0.0,0.0,0.0,0.0,-2.3133,-2.4085,-2.397,-2.4914,-2.511,0.0,0.0,0.0,0.0,0.0,0.0,-2.7245,-2.7451,-2.8018,-2.9027,-2.906,-2.9486,-3.0379,-3.0398,-3.0398,-3.0398,-3.0398,-3.0398,-3.0398,-3.0398,-3.0513,-3.0737,-3.0737,-3.0852,-3.0936,-2.962,-2.8884,-2.8525,-2.7627,-2.7062,-2.6841,-2.7135,-2.7245,-2.7428,0.0,0.0,0.0,0.0,0.0,0.0,0.0,0.0,0.0,0.0,0.0,-0.8215,-0.8261,-0.9187,-0.9884,-1.0079,-1.0636,-1.074,-1.0215,0.0,0.0,0.0,0.0,0.0,0.0,0.0,0.0,-1.8027,-1.9512,-2.0701,-2.1582,-2.1612,-2.1869,-2.231,-2.231,-2.2364,-2.2356,-2.067,-2.0128,-2.0099,0.0,0.0,0.0,0.0,0.0,0.0,0.0,0.0,0.0,0.0,0.0,0.0,0.0,0.0,0.0,0.0,0.0,0.0,0.0,0.0,0.0,0.0,0.0,0.0,0.0,0.0,0.0,0.0,0.0,0.0,0.0,0.0,0.0,0.0,0.0,0.0,0.0,0.0,0.0,-2.6282,-2.745,0.0,0.0,0.0,0.0,-2.6693,-2.74,-2.8034,-2.8476,-2.9181,-2.9798,-3.0278,-3.0309,-3.034,-3.0398,-3.0398,-3.0398,-3.0398,-3.0398,-3.0398,-3.0398,-3.0398,-3.0852,-3.1641,-3.1641,-3.2064,-3.266,-3.0994,-2.9627,-2.8597,-2.8525,-2.7808,-2.6951,-2.8096,-2.8525,-2.8669,0.0,0.0,0.0,0.0,0.0,0.0,0.0,0.0,0.0,-0.7466,-0.7974,-0.8485,-0.8894,-0.9712,-1.0522,-1.1254,-1.1962,-1.2248,-1.2022,0.0,0.0,0.0,0.0,0.0,0.0,0.0,-1.7803,-1.9084,-2.0208,-2.0926,-2.1213,-2.1811,-2.2135,-2.231,-2.231,-2.2332,-2.2409,-2.1782,-2.1047,-2.0176,-1.9181,-1.7862,0.0,0.0,0.0,0.0,0.0,0.0,0.0,0.0,0.0,0.0,0.0,0.0,0.0,0.0,0.0,0.0,0.0,0.0,0.0,0.0,0.0,0.0,0.0,0.0,0.0,0.0,0.0,0.0,0.0,0.0,0.0,0.0,0.0,0.0,0.0,0.0,0.0,-2.6448,-2.7616,0.0,-2.6767,-2.7376,-2.7867,-2.7883,-2.8905,-2.9584,-2.9749,-3.0004,-3.0235,-3.0379,-3.0398,-3.0679,-3.1237,-3.1237,-3.1506,-3.2006,-3.2006,-3.2006,-3.2006,-3.2006,-3.2179,-3.2468,-3.2468,-3.2622,-3.2852,-3.2256,-3.1437,-3.0586,-3.0586,-2.9997,-2.9169,-2.9608,-3.0107,-3.0657,0.0,0.0,0.0,0.0,0.0,0.0,0.0,0.0,0.0,-0.778,-0.8316,-0.8918,-0.964,-1.0417,-1.1212,-1.2092,-1.2914,-1.316,-1.2639,0.0,0.0,0.0,0.0,0.0,0.0,-1.7558,-1.8717,-2.0139,-2.0698,-2.1166,-2.1462,-2.202,-2.231,-2.231,-2.231,-2.231,-2.2327,-2.2581,-2.1956,-2.0829,-2.0415,-1.9256,-1.7747,0.0,0.0,0.0,0.0,0.0,0.0,0.0,0.0,0.0,0.0,0.0,0.0,0.0,0.0,0.0,0.0,0.0,0.0,0.0,0.0,0.0,0.0,0.0,0.0,0.0,0.0,0.0,0.0,0.0,0.0,0.0,0.0,0.0,0.0,0.0,-2.7838,-2.6485,-2.7997,-2.8639,-2.7359,-2.8392,-2.9136,-2.9136,-2.9909,-3.0398,-3.0398,-3.0679,-3.0852,-3.0852,-3.1102,-3.1525,-3.2102,-3.2102,-3.2372,-3.2891,-3.2891,-3.2891,-3.2891,-3.2891,-3.3064,-3.3333,-3.3333,-3.3506,-3.3776,-3.3776,-3.3295,-3.2506,-3.2218,-3.1756,-3.1237,-3.1237,-3.1621,-3.2102,0.0,0.0,0.0,0.0,0.0,0.0,0.0,0.0,0.0,-0.8332,-0.8854,-0.9518,-1.0399,-1.1282,-1.1993,-1.2473,-1.3353,-1.3288,-1.1933,-1.2648,0.0,0.0,0.0,0.0,-1.7743,-1.7981,-1.9009,-2.0975,-2.0959,-2.1432,-2.2254,-2.2282,-2.2282,-2.231,-2.231,-2.2327,-2.2395,-2.3105,-2.3004,-2.2259,-2.0798,-2.0219,-1.9903,0.0,0.0,0.0,0.0,0.0,0.0,0.0,0.0,0.0,0.0,0.0,0.0,0.0,0.0,0.0,0.0,0.0,0.0,0.0,0.0,0.0,0.0,0.0,0.0,0.0,0.0,0.0,0.0,0.0,0.0,0.0,0.0,0.0,-2.6385,-2.7528,-2.7964,-2.6655,-2.8821,-2.9909,-2.8692,-2.9666,-3.0398,-3.0436,-3.0436,-3.0456,-3.0456,-3.1263,-3.1737,-3.1737,-3.2487,-3.291,-3.2949,-3.2968,-3.2987,-3.3026,-3.3045,-3.3064,-3.3064,-3.3064,-3.3526,-3.4314,-3.4314,-3.4795,-3.5584,-3.5584,-3.5084,-3.4218,-3.3295,-3.291,-3.2891,-3.2891,-3.291,-3.2949,0.0,0.0,0.0,0.0,0.0,0.0,0.0,0.0,-0.7503,-0.7961,-0.8553,-0.9412,-1.0654,-1.1073,-1.1678,-1.2908,-1.3191,-1.3229,-1.2988,0.0,0.0,0.0,0.0,0.0,-1.7942,-1.8783,-1.9522,-2.005,-2.0364,-2.0781,-2.1354,-2.1675,-2.1957,-2.231,-2.231,-2.2598,-2.3105,-2.3308,-2.3579,-2.3883,-2.3443,-2.293,-2.2295,0.0,0.0,0.0,0.0,0.0,0.0,0.0,0.0,0.0,0.0,0.0,0.0,0.0,0.0,0.0,0.0,0.0,0.0,0.0,0.0,0.0,0.0,0.0,0.0,0.0,0.0,0.0,0.0,0.0,0.0,0.0,0.0,-2.7426,-2.7243,-2.8555,-2.9429,-2.9052,-2.983,-3.0259,-2.9909,-3.0189,-3.058,-3.1006,-3.1239,-3.1501,-3.19,-3.2333,-3.2564,-3.2564,-3.2776,-3.3199,-3.3833,-3.4468,-3.5084,-3.5661,-3.6295,-3.6603,-3.6603,-3.6603,-3.6738,-3.6949,-3.6949,-3.7084,-3.7315,-3.7315,-3.7161,-3.6757,-3.4661,-3.3449,-3.2891,-3.2891,-3.3295,-3.393,0.0,0.0,0.0,0.0,0.0,0.0,0.0,0.0,-0.7419,-0.7829,-0.848,-0.9332,-1.0464,-1.0836,-1.1494,-1.2791,-1.2912,-1.2887,-1.2956,0.0,0.0,0.0,0.0,-1.8152,-1.8707,-1.9339,-1.9782,-1.9929,-2.0398,-2.0813,-2.1244,-2.1705,-2.2032,-2.2327,-2.2632,-2.3004,-2.3427,-2.4052,-2.456,-2.4983,-2.5287,-2.4763,-2.3705,-2.2837,-2.2257,-2.1693,-2.0317,-1.9803,-1.9662,-1.8812,0.0,0.0,0.0,0.0,0.0,0.0,0.0,0.0,0.0,0.0,0.0,0.0,0.0,0.0,0.0,0.0,0.0,0.0,0.0,0.0,0.0,0.0,0.0,0.0,-2.735,-2.832,-2.8195,-2.923,-3.0028,-3.015,-3.0209,-3.0375,-3.0745,-3.0677,-3.0944,-3.1737,-3.1953,-3.222,-3.2651,-3.3166,-3.3603,-3.3987,-3.4314,-3.4911,-3.5776,-3.6295,-3.6776,-3.7257,-3.7757,-3.8007,-3.8007,-3.8007,-3.8007,-3.8007,-3.8007,-3.8007,-3.8007,-3.8007,-3.8007,-3.7853,0.0,0.0,0.0,0.0,-3.5353,-3.5853,0.0,0.0,0.0,0.0,0.0,0.0,0.0,0.0,-0.7496,-0.7829,-0.8529,-0.9279,-1.0099,-1.0695,-1.1394,-1.2354,-1.2482,-1.2445,0.0,0.0,0.0,-1.6655,-1.7559,-1.8551,-1.969,-1.969,-1.9874,-2.0212,-2.0665,-2.1055,-2.146,-2.1869,-2.2157,-2.236,-2.303,-2.3448,-2.3731,-2.505,-2.5659,-2.5795,-2.6437,-2.5913,-2.4633,-2.3416,-2.3039,-2.3003,-2.185,-2.119,-2.0907,-2.1196,0.0,0.0,0.0,0.0,0.0,0.0,0.0,0.0,0.0,0.0,0.0,0.0,0.0,0.0,0.0,0.0,0.0,0.0,0.0,0.0,0.0,0.0,0.0,0.0,-2.8519,-2.9494,-2.9112,-2.9626,-3.0151,-3.0394,-3.0228,-3.043,-3.1309,-3.118,-3.1466,-3.2507,-3.2695,-3.2886,-3.3256,0.0,0.0,0.0,0.0,-3.7204,-3.7939,-3.8055,-3.8112,-3.8142,-3.8208,-3.8247,-3.8277,-3.8277,-3.8277,-3.8277,-3.8277,-3.8277,-3.8277,-3.8277,-3.8277,-3.8257,-3.8065,-3.8007,-3.8007,-3.8007,-3.8007,-3.8007,0.0,0.0,0.0,0.0,0.0,0.0,0.0,0.0,-0.7231,-0.7682,-0.8382,-0.9173,-1.0099,-1.0695,-1.1244,-1.1884,-1.1949,-1.2029,0.0,0.0,-1.6114,-1.6309,-1.8252,-1.9464,-1.9675,-1.969,-1.9747,-1.9818,-1.9925,-2.0174,-2.0534,-2.0634,-2.136,-2.2609,-2.2789,-2.3725,-2.5203,-2.549,-2.5947,-2.6488,-2.664,-2.6522,-2.6268,-2.6,-2.5899,-2.5832,-2.4996,-2.4828,-2.4723,-2.3095,-2.274,-2.2752,-2.1171,0.0,0.0,0.0,0.0,0.0,0.0,0.0,0.0,0.0,0.0,0.0,0.0,0.0,0.0,0.0,0.0,0.0,0.0,0.0,0.0,-2.6982,-2.8213,-2.9181,-2.931,-2.9994,-3.0506,-3.0564,-3.0659,-3.1051,-3.1864,-3.1902,-3.226,-3.3167,-3.3827,-3.4624,-3.5594,-3.6415,-3.695,-3.7122,-3.7533,-3.7686,-3.7599,-3.8286,-3.8793,-3.9046,0.0,0.0,-4.0008,-4.0008,-4.0008,-4.0008,-4.0008,-4.0008,-4.0008,-4.0008,-4.0008,-3.9873,-3.8527,-3.8007,-3.8007,-3.8007,-3.8007,-3.8007,0.0,0.0,0.0,0.0,0.0,0.0,0.0,0.0,-0.7063,-0.728,-0.8013,-0.865,-0.9044,-0.9688,-1.0361,-1.103,-1.1601,0.0,0.0,-1.4499,-1.5936,-1.6922,-1.8201,-1.9153,-1.9675,-1.969,-1.969,-1.969,-1.9909,-2.0089,-2.0314,-2.055,-2.1069,-2.1874,-2.2232,-2.2949,-2.3885,-2.4595,-2.526,-2.5882,-2.6216,-2.647,-2.6691,-2.6691,-2.6691,-2.664,-2.6285,-2.6281,-2.6243,-2.5179,-2.5079,-2.5222,-2.4265,-2.357,-2.2733,0.0,0.0,0.0,0.0,0.0,0.0,0.0,0.0,0.0,0.0,0.0,0.0,0.0,0.0,-2.5049,0.0,0.0,-2.7238,-2.7894,-2.8686,-2.9329,-2.9758,-3.0256,-3.0646,-3.0731,-3.1125,-3.1667,-3.247,-3.281,-3.3366,-3.4383,-3.5207,-3.596,-3.667,-3.7068,-3.7485,-3.7904,-3.8061,-3.829,-3.8548,-3.8965,-3.9504,-4.0062,-4.0319,-4.0821,-4.1511,-4.1511,-4.1602,-4.1797,-4.1797,-4.1797,-4.1797,-4.1797,-4.1797,-4.172,-4.0873,-4.0027,-3.9238,-3.9238,-3.9238,-3.9238,0.0,0.0,0.0,0.0,0.0,0.0,0.0,0.0,0.0,-0.6872,-0.7614,-0.8103,-0.8021,-0.8815,-0.9644,0.0,0.0,0.0,0.0,-1.4014,-1.5432,-1.7209,-1.7801,-1.8548,-1.9515,-1.9639,-1.969,-1.969,-2.0019,-2.0177,-2.0177,-2.0565,-2.0876,-2.1133,-2.1724,-2.2111,-2.2404,-2.351,-2.4259,-2.4707,-2.5379,-2.594,-2.6387,-2.6522,-2.6624,-2.6691,-2.6691,-2.6691,-2.6691,-2.6691,-2.6906,-2.7178,-2.7178,-2.6516,-2.53,-2.3047,-2.2623,0.0,0.0,0.0,0.0,0.0,0.0,0.0,0.0,0.0,-2.3374,-2.5108,-2.554,-2.5976,-2.7176,-2.7396,-2.7737,-2.8819,-2.9311,-2.9709,-3.0123,-3.066,-3.1049,-3.12,-3.1651,-3.2335,-3.3295,-3.3773,-3.4518,-3.5665,-3.6433,-3.7007,-3.7325,-3.7431,-3.7784,-3.8428,-3.8663,-3.91,-3.9731,-3.99,-4.0357,-4.1022,-4.1041,-4.1552,-4.2502,-4.2582,-4.2776,-4.3104,-4.3104,-4.3104,-4.3104,-4.3104,-4.3104,-4.3104,-4.3104,-4.2239,-4.1008,-4.1008,-4.1008,-4.1008,0.0,0.0,0.0,0.0,0.0,0.0,0.0,0.0,0.0,-0.6715,-0.7419,-0.7953,-0.7979,-0.9131,0.0,0.0,0.0,0.0,-1.1994,-1.41,-1.5558,-1.5924,-1.7313,-1.8368,-1.8991,-1.9442,-1.969,-1.969,-1.9747,-1.9782,-1.9782,-1.9818,-2.0421,-2.1467,-2.1545,-2.2137,-2.3079,-2.324,-2.3339,-2.3474,-2.4112,-2.4743,-2.526,-2.5837,-2.6332,-2.6691,-2.6691,-2.6691,-2.6691,-2.6691,-2.6725,-2.6758,-2.6758,-2.6673,-2.595,-2.2797,0.0,-2.1455,-1.833,-1.9209,-2.1478,-2.3126,-2.3608,-2.4449,0.0,0.0,-2.6464,-2.8167,-2.8523,-2.8584,-2.874,-2.8782,-2.8819,-2.8975,-2.9627,-3.0147,-3.0191,-3.1464,-3.2371,-3.2397,-3.2463,-3.3125,-3.4623,-3.4835,-3.5339,-3.6477,-3.7082,-3.7627,-3.8135,-3.8615,-3.891,-3.9003,-3.9996,-4.0428,-4.0207,-4.0971,-4.1547,-4.187,-4.1933,-4.2162,-4.2522,-4.2869,-4.3069,-4.3104,-4.3104,-4.3104,-4.3104,-4.3104,-4.3104,-4.3104,-4.3104,-4.2989,-4.2816,-4.2816,-4.2816,-4.2816,0.0,0.0,0.0,0.0,0.0,0.0,0.0,0.0,0.0,0.0,0.0,-0.7377,-0.7538,0.0,0.0,0.0,0.0,0.0,-1.1729,-1.3,-1.4158,-1.5083,-1.6145,-1.7107,-1.7946,-1.878,-1.9244,-1.9244,-1.9566,-1.969,-1.969,-1.969,-1.9969,-2.0457,-2.0457,-2.0737,-2.1177,-2.1595,-2.1911,-2.226,-2.2886,-2.3483,-2.4039,-2.4684,-2.5053,-2.528,-2.5415,-2.5493,0.0,0.0,-2.5493,-2.5619,-2.642,-2.6168,-2.511,-2.2932,-2.263,0.0,-2.265,-2.2535,0.0,0.0,-2.4951,-2.5542,-2.6943,-2.6917,-2.7074,-2.868,-2.8994,-2.8994,-2.8994,-2.8994,-2.914,0.0,-2.9989,-3.054,-3.1458,-3.2192,-3.2963,-3.3872,-3.3982,-3.4257,-3.4917,-3.5881,-3.6636,-3.7137,-3.7805,-3.8306,-3.8516,-3.9182,-3.9557,-3.9557,-4.0481,-4.0908,-4.0775,-4.1145,-4.1595,-4.2173,-4.238,-4.2949,-4.3744,-4.4109,-4.4384,-4.4547,-4.4547,-4.4547,-4.4547,-4.4547,-4.4547,-4.4547,-4.4547,-4.4547,-4.4432,-4.3451,-4.3104,-4.3104,0.0,0.0,0.0,0.0,0.0,0.0,0.0,0.0,0.0,0.0,0.0,0.0,0.0,0.0,0.0,0.0,0.0,0.0,0.0,-1.2008,-1.289,-1.4243,-1.5082,-1.5984,-1.7081,-1.8134,-1.8688,-1.8688,-1.908,-1.9332,-1.9479,-1.9479,-1.9566,-1.969,-1.969,-1.969,-1.972,-2.0228,-2.063,-2.1075,-2.1686,-2.2243,-2.2808,-2.3474,-2.3681,-2.3689,-2.4045,-2.4178,0.0,0.0,-2.3599,-2.3763,-2.4818,-2.4552,-2.3558,-2.2249,-2.2128,-2.2774,-2.4362,0.0,0.0,-2.5208,-2.6113,-2.675,-2.6816,-2.7094,-2.7637,-2.8621,-2.8929,-2.897,-2.8863,-2.9112,-2.9531,-3.0118,-3.0577,-3.1274,-3.2449,-3.2797,-3.3458,-3.4825,-3.5192,-3.5459,-3.5679,-3.678,-3.7569,-3.7808,-3.8377,-3.8799,-3.9019,-3.957,-3.9992,-4.0212,-4.102,-4.1442,-4.1442,-4.1662,-4.2047,-4.2635,-4.2977,-4.3596,-4.4447,-4.4896,-4.5263,-4.5586,-4.5586,-4.5586,-4.5586,-4.5586,-4.5586,-4.5586,-4.5586,-4.5586,-4.5451,-4.4239,-4.3797,-4.3797,0.0,0.0,0.0,0.0,0.0,0.0,0.0,0.0,0.0,0.0,0.0,0.0,0.0,0.0,0.0,0.0,0.0,0.0,0.0,-1.147,-1.2291,-1.3307,-1.4349,-1.5441,-1.6506,-1.7567,-1.8145,-1.8145,-1.8145,-1.8419,-1.893,-1.893,-1.9207,-1.969,-1.969,-1.969,-1.969,-1.9705,-1.9756,-1.9816,-2.0468,-2.1059,-2.1615,-2.2216,-2.2378,-2.2355,-2.2918,0.0,0.0,0.0,-2.1073,-2.105,-2.1212,-2.1413,0.0,-2.0301,-1.9537,0.0,0.0,0.0,-2.3939,-2.5422,-2.7091,-2.8435,-2.8827,-2.8915,-2.8827,-2.8496,-2.8725,-2.8863,-2.8471,-2.9368,-3.0173,-3.021,-3.1513,-3.2559,-3.2596,-3.3275,-3.4082,-3.4899,-3.5752,-3.656,0.0,-3.7489,-3.7808,-3.8597,-3.8689,-3.9038,-3.9808,-3.9882,-4.0267,-4.1056,-4.1846,-4.2268,-4.2268,-4.3039,-4.3424,-4.3461,-4.3812,-4.3979,-4.4028,-4.4762,-4.5263,-4.5586,-4.5586,-4.5586,-4.5586,-4.5586,-4.5586,-4.5586,-4.5586,-4.5586,-4.5586,-4.5528,-4.5509,-4.5509,0.0,0.0,0.0,0.0,0.0,0.0,0.0,0.0,0.0,0.0,0.0,0.0,0.0,0.0,0.0,0.0,0.0,0.0,0.0,-1.0355,-1.0953,-1.1669,-1.2434,-1.3502,-1.4869,-1.5994,-1.689,-1.7585,-1.7947,-1.838,-1.8893,-1.8893,-1.9006,-1.9169,-1.953,-1.9479,-1.9207,-1.9566,-1.969,-1.9705,-1.9944,-2.0128,-2.0282,-2.0075,-2.021,-2.0315,0.0,0.0,0.0,0.0,0.0,0.0,-2.0793,0.0,-1.9949,-1.9436,-2.0034,-2.1079,0.0,0.0,-2.4956,-2.6101,-2.7043,-2.7718,-2.7833,-2.8075,-2.8228,-2.8102,-2.7893,-2.7869,-2.8252,-2.8874,-2.9691,-3.0751,-3.1865,-3.2797,-3.333,-3.3623,-3.4302,-3.5697,-3.6119,0.0,0.0,0.0,0.0,-3.8689,-3.9184,-3.9606,-3.9882,-4.091,-4.1625,-4.1901,-4.2671,-4.3094,-4.3094,-4.3351,-4.3497,-4.3479,-4.3818,-4.4146,-4.4419,-4.4657,-4.4943,-4.5282,-4.5282,-4.5381,-4.5586,-4.5586,-4.5586,-4.5586,-4.5586,-4.5586,-4.5586,-4.5586,-4.5586,-4.5586,0.0,0.0,0.0,0.0,0.0,0.0,0.0,0.0,0.0,0.0,0.0,0.0,0.0,0.0,0.0,0.0,0.0,0.0,0.0,0.0,-0.9926,-1.0568,-1.1107,-1.1973,-1.3187,-1.4167,-1.5026,-1.5664,-1.6515,-1.718,-1.7651,-1.8143,-1.8419,-1.865,-1.9169,-1.9207,-1.893,-1.9281,-1.9163,-1.8777,-1.8641,-1.8355,-1.7993,-1.7821,-1.7751,0.0,0.0,0.0,0.0,0.0,0.0,0.0,0.0,-1.8836,-1.8858,-1.9404,-2.0658,-2.213,-2.3679,-2.4642,-2.5468,-2.6623,-2.7115,-2.7317,-2.747,-2.7707,-2.7869,-2.7725,-2.7544,-2.7604,-2.801,-2.8749,-2.9589,-3.0635,-3.1583,-3.2474,-3.3226,-3.3382,-3.4134,-3.6054,-3.6303,-3.6927,0.0,0.0,0.0,-3.9111,-3.9606,-4.0139,-4.0726,-4.1735,-4.2433,-4.2708,-4.3222,-4.3497,-4.3497,-4.3497,-4.3497,-4.3479,-4.3726,-4.4016,-4.4392,-4.4392,-4.458,-4.4919,-4.4919,-4.5118,-4.5419,-4.5419,-4.5495,-4.5586,-4.5586,-4.5586,-4.5586,-4.5586,-4.5586,-4.5586,0.0,0.0,0.0,0.0,0.0,0.0,0.0,0.0,0.0,0.0,0.0,0.0,0.0,0.0,0.0,0.0,0.0,0.0,0.0,0.0,0.0,-0.9996,-1.0377,-1.0906,-1.1546,-1.2271,-1.2637,-1.2704,-1.4049,-1.4901,-1.5318,-1.6528,-1.7395,-1.7906,-1.8454,-1.866,-1.866,-1.866,-1.8071,-1.7049,-1.6651,-1.5874,-1.4984,-1.5544,0.0,0.0,0.0,0.0,0.0,0.0,0.0,0.0,0.0,0.0,-1.8327,-2.0266,-2.1346,-2.2433,-2.4587,-2.5228,-2.5615,-2.6935,-2.7272,-2.7348,-2.7754,-2.784,-2.7707,-2.7317,-2.7661,-2.7928,0.0,0.0,-2.9852,-2.9928,-3.0832,-3.1765,-3.24,-3.262,-3.3597,0.0,0.0,0.0,0.0,0.0,0.0,-3.985,0.0,-4.0653,-4.2213,-4.2341,-4.2708,-4.3461,-4.3497,-4.3497,-4.3497,-4.3497,-4.3497,-4.3497,-4.3497,-4.3679,-4.3986,-4.3986,-4.4175,-4.4553,-4.4553,-4.4757,-4.5074,-4.5074,-4.5301,-4.5608,-4.5608,-4.5664,-4.5703,-4.5703,-4.572,-4.572,0.0,0.0,0.0,0.0,0.0,0.0,0.0,0.0,0.0,0.0,0.0,0.0,0.0,0.0,0.0,0.0,0.0,0.0,0.0,0.0,0.0,0.0,0.0,0.0,0.0,0.0,0.0,0.0,-1.299,-1.3465,-1.3978,-1.444,-1.4676,-1.4831,-1.5483,-1.5569,-1.5215,-1.5611,-1.5575,-1.5348,0.0,-1.5168,-1.4852,0.0,0.0,0.0,0.0,0.0,0.0,0.0,0.0,0.0,0.0,0.0,-2.1312,-2.2236,-2.3272,-2.4318,-2.4875,-2.5668,-2.6386,-2.6757,-2.6841,-2.6873,-2.6987,-2.7004,-2.6839,-2.63,-2.6455,-2.6691,0.0,0.0,0.0,-2.9978,-3.1131,0.0,-3.2441,-3.2822,0.0,0.0,0.0,-3.6772,-3.7987,-3.8465,0.0,0.0,-4.058,-4.124,-4.2249,-4.2873,-4.3277,-4.3479,-4.3497,-4.3497,-4.3497,-4.3497,-4.3497,-4.3497,-4.3497,-4.3548,-4.3631,-4.3631,-4.3804,-4.4146,-4.4146,-4.4373,-4.4726,-4.4726,-4.5136,-4.5754,-4.5754,-4.6259,-4.7016,-4.7016,-4.7221,-4.7451,0.0,0.0,0.0,0.0,0.0,0.0,0.0,0.0,0.0,0.0,0.0,0.0,0.0,0.0,0.0,0.0,0.0,0.0,0.0,0.0,0.0,0.0,0.0,0.0,0.0,0.0,0.0,0.0,0.0,0.0,-1.2349,-1.2977,-1.3268,-1.3268,-1.3922,-1.4002,-1.3726,-1.4047,0.0,0.0,0.0,0.0,0.0,0.0,0.0,0.0,0.0,0.0,0.0,0.0,0.0,-1.9123,-2.0653,-2.1627,-2.2439,-2.3529,0.0,-2.5121,-2.5631,-2.6214,-2.6691,-2.6691,-2.6691,-2.6691,-2.6612,-2.641,-2.6201,-2.6115,-2.6097,0.0,0.0,0.0,0.0,0.0,0.0,0.0,-3.1324,-3.2135,-3.3312,0.0,-3.5643,0.0,-3.7506,-3.8391,-3.9252,0.0,-4.0823,-4.1625,-4.2763,-4.324,-4.3497,-4.3497,-4.3497,-4.3497,-4.3497,-4.3497,-4.3497,-4.3497,-4.3497,-4.3681,-4.403,-4.403,-4.4315,-4.4827,-4.4827,-4.5034,-4.5406,-4.5406,-4.5773,-4.6345,-4.6486,-4.6947,-4.7514,-4.7709,-4.7913,-4.8105,0.0,0.0,0.0,0.0,0.0,0.0,0.0,0.0,0.0,0.0,0.0,0.0,0.0,0.0,0.0,0.0,0.0,0.0,0.0,0.0,0.0,0.0,0.0,0.0,0.0,0.0,0.0,0.0,0.0,0.0,0.0,0.0,0.0,0.0,0.0,0.0,0.0,0.0,0.0,0.0,0.0,0.0,0.0,0.0,0.0,0.0,0.0,0.0,0.0,0.0,-1.9552,-2.0302,-2.1226,-2.197,-2.2829,-2.446,-2.5045,-2.5341,-2.6402,-2.6691,-2.6691,-2.6691,-2.6691,-2.6638,-2.6521,-2.6,-2.575,-2.6236,0.0,-2.623,-2.7025,0.0,-2.772,-2.7816,0.0,-2.927,-2.9915,-3.1146,-3.2651,-3.45,-3.513,-3.5842,-3.6993,-3.8312,-3.9409,-4.0167,-4.0881,-4.1919,-4.3406,-4.3497,-4.3497,-4.3497,-4.3497,-4.3497,-4.3497,-4.3497,-4.3534,-4.3644,-4.3644,-4.4085,-4.4874,-4.4874,-4.5241,-4.5902,-4.5902,-4.6061,-4.6327,-4.6327,-4.6607,-4.7051,-4.7397,-4.7604,-4.7815,-4.8218,-4.8395,-4.8452,0.0,0.0,0.0,0.0,0.0,0.0,0.0,0.0,0.0,0.0,0.0,0.0,0.0,0.0,0.0,0.0,0.0,0.0,0.0,0.0,0.0,0.0,0.0,0.0,0.0,0.0,0.0,0.0,0.0,0.0,0.0,0.0,0.0,0.0,0.0,0.0,0.0,0.0,0.0,0.0,0.0,0.0,0.0,0.0,0.0,0.0,0.0,0.0,0.0,0.0,-1.9795,-2.1245,-2.3197,-2.4222,-2.4789,-2.557,-2.5819,-2.5964,-2.6539,-2.6691,-2.6691,-2.6691,-2.6691,-2.6638,-2.6389,-2.5962,0.0,0.0,0.0,-2.5892,-2.6032,-2.6856,0.0,-2.7996,0.0,0.0,0.0,0.0,-3.2453,0.0,0.0,0.0,0.0,0.0,0.0,0.0,0.0,-4.2506,-4.3442,-4.3497,-4.3497,-4.3497,-4.3497,-4.3497,-4.3497,-4.3497,-4.3828,-4.4488,-4.4488,-4.4911,-4.5681,-4.5681,-4.5773,-4.5902,-4.5902,0.0,-4.5973,-4.5973,-4.6414,-4.7111,-4.7495,-4.8262,-4.9183,-4.9586,-4.9961,-5.024,0.0,0.0,0.0,0.0,0.0,0.0,0.0,0.0,0.0,0.0,0.0,0.0,0.0,0.0,0.0,0.0,0.0,0.0,0.0,0.0,0.0,0.0,0.0,0.0,0.0,0.0,0.0,0.0,0.0,0.0,0.0,0.0,0.0,0.0,0.0,0.0,0.0,0.0,0.0,0.0,0.0,0.0,0.0,0.0,0.0,0.0,0.0,0.0,0.0,0.0,-1.8777,-2.1114,-2.3585,-2.4776,-2.5259,-2.5503,-2.5762,-2.6049,-2.6262,-2.6505,-2.6691,-2.6691,-2.6691,-2.6617,-2.6252,0.0,0.0,0.0,0.0,-2.5257,-2.5712,0.0,0.0,0.0,0.0,0.0,0.0,0.0,0.0,0.0,0.0,0.0,0.0,0.0,0.0,0.0,0.0,-4.2467,-4.3461,-4.3497,-4.3497,-4.3497,-4.3497,-4.3497,-4.3497,-4.392,-4.4323,-4.4727,-4.5131,-4.5755,-4.6526,-4.6526,-4.6764,-4.715,-4.715,-4.715,-4.715,-4.715,-4.7388,-4.7756,-4.8169,-4.8674,-4.9265,-4.9879,-5.0206,-5.0421,0.0,0.0,0.0,0.0,0.0,0.0,0.0,0.0,0.0,0.0,0.0,0.0,0.0,0.0,0.0,0.0,0.0,0.0,0.0,0.0,0.0,0.0,0.0,0.0,0.0,0.0,0.0,0.0,0.0,0.0,0.0,0.0,0.0,0.0,0.0,0.0,0.0,0.0,0.0,0.0,0.0,0.0,0.0,0.0,0.0,0.0,0.0,0.0,0.0,0.0,-1.7418,-2.0041,-2.2651,-2.3999,-2.4625,-2.4673,-2.5057,-2.547,-2.5762,-2.6175,-2.6505,-2.6385,-2.647,-2.6435,-2.5985,-2.4943,0.0,0.0,-2.468,-2.4726,-2.5575,0.0,0.0,0.0,0.0,0.0,0.0,0.0,0.0,0.0,0.0,0.0,0.0,0.0,0.0,0.0,0.0,-4.2185,-4.3105,-4.3142,-4.3196,-4.3321,-4.3339,-4.3375,-4.3497,-4.4305,-4.48,-4.4984,-4.5773,-4.6581,-4.737,-4.737,-4.7719,-4.8306,-4.8306,-4.8306,-4.8306,-4.8306,-4.8306,-4.8326,-4.8744,-4.8897,-4.8996,-4.9719,-4.9974,-5.0019,0.0,0.0,0.0,0.0,0.0,0.0,0.0,0.0,0.0,0.0,0.0,0.0,0.0,0.0,0.0,0.0,0.0,0.0,0.0,0.0,0.0,0.0,0.0,0.0,0.0,0.0,0.0,0.0,0.0,0.0,0.0,0.0,0.0,0.0,0.0,0.0,0.0,0.0,0.0,0.0,0.0,0.0,0.0,0.0,0.0,0.0,0.0,0.0,0.0,0.0,0.0,-1.7676,-1.9767,-2.1471,-2.2772,-2.2952,0.0,0.0,-2.4957,-2.5652,-2.5961,-2.5449,-2.5689,-2.5918,-2.5319,0.0,0.0,0.0,-2.4437,-2.4554,-2.5283,-2.63,0.0,0.0,0.0,0.0,0.0,0.0,0.0,0.0,0.0,0.0,0.0,0.0,0.0,0.0,0.0,-4.1853,-4.1961,-4.1979,-4.2203,-4.275,-4.2788,-4.3014,-4.3497,-4.4305,-4.5076,-4.5792,-4.6617,-4.7425,-4.8196,-4.8196,-4.8233,-4.8306,-4.8306,-4.8306,-4.8306,-4.8306,-4.8306,-4.8326,-4.8744,-4.8897,-4.8945,-4.9386,-4.958,-4.9561,0.0,0.0,0.0,0.0,0.0,0.0,0.0,0.0,0.0,0.0,0.0,0.0,0.0,0.0,0.0,0.0,0.0,0.0,0.0,0.0,0.0,0.0,0.0,0.0,0.0,0.0,0.0,0.0,0.0,0.0,0.0,0.0,0.0,0.0,0.0,0.0,0.0,0.0,0.0,0.0,0.0,0.0,0.0,0.0,0.0,0.0,0.0,0.0,0.0,0.0,0.0,0.0,-1.7716,-1.9196,0.0,0.0,-2.2878,-2.3518,-2.444,-2.5105,-2.5449,-2.5259,-2.5134,-2.5044,-2.509,0.0,0.0,-2.3737,-2.4016,-2.4289,-2.4646,-2.5994,-2.7004,0.0,0.0,0.0,0.0,0.0,0.0,0.0,0.0,0.0,0.0,0.0,0.0,0.0,-4.0298,-4.0767,-4.0767,-4.142,-4.1895,-4.2162,-4.2162,-4.2422,-4.3014,-4.4286,-4.5276,-4.592,-4.7223,-4.7994,-4.8306,-4.8306,-4.8306,-4.8306,-4.8306,-4.8306,-4.8306,-4.8306,-4.8306,-4.8306,-4.8495,-4.855,-4.8604,-4.8996,-4.9139,-4.9171,0.0,0.0,0.0,0.0,0.0,0.0,0.0,0.0,0.0,0.0,0.0,0.0,0.0,0.0,0.0,0.0,0.0,0.0,0.0,0.0,0.0,0.0,0.0,0.0,0.0,0.0,0.0,0.0,0.0,0.0,0.0,0.0,0.0,0.0,0.0,0.0,0.0,0.0,0.0,0.0,0.0,0.0,0.0,0.0,0.0,0.0,0.0,0.0,0.0,0.0,0.0,0.0,0.0,0.0,0.0,0.0,-2.2016,-2.2833,-2.3634,-2.4415,-2.495,-2.4792,-2.4449,-2.4304,0.0,0.0,-2.278,-2.3385,-2.3972,-2.4334,-2.4487,-2.5885,-2.7003,-2.7078,0.0,-2.7661,0.0,0.0,0.0,0.0,0.0,0.0,0.0,0.0,0.0,0.0,-4.007,-4.007,-4.007,-4.0861,-4.1375,-4.1534,-4.1534,-4.1895,-4.2711,-4.4303,-4.5376,-4.592,-4.7535,-4.8306,-4.8306,-4.8306,-4.8306,-4.8306,-4.8306,-4.8306,-4.8306,-4.8306,-4.8306,-4.8306,-4.8306,-4.8306,-4.8326,-4.864,-4.8709,-4.8744,0.0,0.0,0.0,0.0,0.0,0.0,0.0,0.0,0.0,0.0,0.0,0.0,0.0,0.0,0.0,0.0,0.0,0.0,0.0,0.0,0.0,0.0,0.0,0.0,0.0,0.0,0.0,-0.8421,-0.8646,-0.8857,0.0,0.0,0.0,0.0,0.0,0.0,0.0,0.0,0.0,0.0,0.0,0.0,0.0,0.0,0.0,0.0,0.0,0.0,0.0,0.0,0.0,0.0,0.0,0.0,0.0,0.0,-2.018,-2.1335,-2.2253,-2.3448,-2.4266,-2.3752,-2.3679,-2.3776,0.0,0.0,-2.2797,-2.3703,-2.438,-2.4808,-2.4966,-2.6084,-2.6951,-2.6832,-2.713,0.0,0.0,0.0,0.0,0.0,0.0,0.0,0.0,0.0,0.0,0.0,-4.007,0.0,-4.007,-4.0121,-4.0368,-4.0903,-4.0903,-4.149,-4.2711,-4.4303,-4.5376,-4.592,-4.7535,-4.8306,-4.8306,-4.8306,-4.8306,-4.8306,-4.8306,-4.8306,-4.8306,-4.8306,-4.8306,-4.8306,-4.8306,-4.8306,-4.8306,-4.8306,-4.8306,-4.8306,0.0,0.0,0.0,0.0,0.0,0.0,0.0,0.0,0.0,0.0,0.0,0.0,0.0,0.0,0.0,0.0,0.0,0.0,0.0,0.0,0.0,0.0,0.0,0.0,0.0,0.0,-0.8221,-0.8275,-0.8427,-0.8533,-0.8586,-0.8738,0.0,0.0,0.0,0.0,0.0,0.0,0.0,0.0,0.0,0.0,0.0,0.0,0.0,0.0,0.0,0.0,0.0,0.0,0.0,0.0,0.0,0.0,0.0,0.0,0.0,0.0,-2.1239,-2.1904,-2.2275,-2.2303,-2.2132,-2.2233,-2.321,-2.2688,-2.2245,-2.3362,-2.3946,-2.4448,-2.4822,-2.57,-2.65,-2.6899,-2.7144,0.0,0.0,0.0,0.0,0.0,0.0,0.0,0.0,0.0,0.0,-3.9276,-3.98,-4.007,-4.007,-4.007,-4.0154,-4.0319,-4.0368,-4.072,-4.1446,-4.2931,-4.424,-4.5355,-4.6815,-4.7774,-4.8306,-4.8306,-4.8306,-4.8306,-4.8306,-4.8306,-4.8306,-4.8306,-4.8306,-4.8306,-4.8306,-4.8306,-4.8306,-4.8306,-4.8306,-4.8306,0.0,0.0,0.0,0.0,0.0,0.0,0.0,0.0,0.0,0.0,0.0,0.0,0.0,0.0,0.0,0.0,0.0,0.0,0.0,0.0,0.0,0.0,0.0,0.0,0.0,-0.8062,-0.8115,-0.8221,-0.8268,-0.8374,-0.8421,-0.8474,-0.8527,-0.8527,0.0,0.0,0.0,0.0,0.0,0.0,0.0,0.0,-0.9895,0.0,0.0,0.0,0.0,0.0,0.0,0.0,0.0,0.0,0.0,0.0,0.0,0.0,-1.7767,0.0,0.0,-2.0962,-2.1363,-2.1649,-2.1518,0.0,0.0,-2.2618,-2.2467,-2.3424,-2.4003,-2.4504,-2.4887,-2.5518,-2.6179,-2.6674,-2.6922,0.0,0.0,0.0,0.0,0.0,0.0,0.0,0.0,0.0,-3.821,-3.8937,-3.9665,-4.007,-4.007,-4.007,-4.007,-4.007,-4.007,-4.0368,-4.0903,-4.2083,-4.334,-4.4646,-4.6106,-4.7161,-4.7865,-4.8159,-4.8306,-4.8306,-4.8306,-4.8306,0.0,-4.8306,-4.8306,-4.8306,-4.8306,-4.8306,-4.8306,-4.8306,-4.8306,-4.8306,0.0,0.0,0.0,0.0,0.0,0.0,0.0,0.0,0.0,0.0,0.0,0.0,0.0,0.0,0.0,0.0,0.0,0.0,0.0,0.0,0.0,0.0,0.0,0.0,0.0,-0.7901,-0.8008,-0.8168,-0.8168,-0.8221,-0.8368,-0.8374,-0.8374,-0.8374,-0.8368,0.0,0.0,0.0,0.0,0.0,0.0,0.0,0.0,0.0,0.0,0.0,0.0,0.0,0.0,0.0,0.0,0.0,0.0,0.0,0.0,0.0,0.0,0.0,0.0,0.0,0.0,0.0,0.0,0.0,0.0,-2.2876,0.0,-2.3761,-2.4305,-2.4794,-2.5104,-2.5564,-2.5948,-2.6233,0.0,0.0,0.0,0.0,0.0,0.0,0.0,0.0,0.0,0.0,-3.8176,-3.887,-3.9631,-4.007,-4.007,-4.007,-4.007,-4.007,-4.007,-4.0319,-4.0827,-4.1665,-4.2678,-4.3804,-4.5364,-4.6426,-4.7056,-4.7846,-4.8251,0.0,-4.8306,-4.8306,-4.8306,-4.8306,-4.8306,-4.8306,-4.8306,-4.8306,-4.8306,-4.8306,-4.8306,-4.8306,0.0,0.0,0.0,0.0,0.0,0.0,0.0,0.0,0.0,0.0,0.0,0.0,0.0,0.0,0.0,0.0,0.0,0.0,0.0,0.0,0.0,0.0,0.0,0.0,0.0,-0.7955,-0.7901,-0.7955,-0.7955,-0.8008,-0.8002,-0.8168,-0.8275,-0.8268,-0.8374,0.0,0.0,0.0,0.0,0.0,0.0,0.0,0.0,0.0,0.0,0.0,-1.1728,-1.2419,0.0,0.0,0.0,0.0,0.0,0.0,0.0,0.0,-1.6885,-1.7744,-1.8548,0.0,-1.9631,-1.9991,0.0,0.0,0.0,0.0,0.0,0.0,0.0,0.0,0.0,0.0,0.0,0.0,0.0,0.0,0.0,0.0,0.0,0.0,0.0,0.0,0.0,0.0,-3.7973,-3.8159,-3.9343,-4.007,-4.007,-4.007,-4.007,-4.007,-4.007,-4.0171,-4.0286,-4.0892,-4.1679,-4.2612,-4.3859,-4.5178,-4.6513,-4.7088,-4.7737,-4.8306,-4.8306,-4.8306,-4.8306,-4.8306,-4.8306,-4.8306,-4.8306,-4.8306,-4.8306,-4.8306,-4.8306,-4.8306,0.0,0.0,0.0,0.0,0.0,0.0,0.0,0.0,0.0,0.0,0.0,0.0,0.0,0.0,0.0,0.0,0.0,0.0,0.0,0.0,0.0,0.0,0.0,0.0,-0.8268,-0.8115,-0.8062,-0.8062,-0.7955,-0.7955,-0.8062,-0.8168,-0.8221,-0.8268,-0.8374,0.0,0.0,0.0,0.0,0.0,-1.0051,0.0,0.0,0.0,0.0,0.0,-1.1778,-1.2364,0.0,-1.358,-1.4063,-1.4594,0.0,0.0,0.0,0.0,-1.6938,-1.759,-1.8139,-1.8572,-1.8999,-1.946,-2.0238,-2.1019,0.0,0.0,0.0,0.0,0.0,0.0,0.0,0.0,0.0,0.0,0.0,0.0,0.0,0.0,0.0,0.0,0.0,0.0,0.0,-3.6569,-3.7905,-3.7905,-3.9259,-4.007,-4.007,-4.007,-4.007,-4.007,-4.007,-4.007,-4.007,-4.0368,-4.0879,-4.1626,-4.2644,-4.3828,-4.5206,-4.6248,-4.7085,-4.7774,-4.8141,-4.8306,-4.8306,-4.8306,-4.8306,-4.8306,-4.8306,-4.8306,-4.8306,-4.8306,-4.8306,-4.8306,0.0,0.0,0.0,0.0,0.0,0.0,0.0,0.0,0.0,0.0,0.0,0.0,0.0,0.0,0.0,0.0,0.0,0.0,0.0,0.0,0.0,0.0,0.0,-0.8421,-0.8421,-0.8321,-0.8221,-0.8268,-0.8062,-0.8062,-0.8268,-0.8268,-0.8321,-0.8474,-0.8474,-0.8527,0.0,0.0,0.0,0.0,-1.0154,0.0,0.0,0.0,0.0,0.0,0.0,0.0,0.0,-1.3357,-1.389,-1.4418,-1.5161,0.0,0.0,0.0,0.0,0.0,-1.7975,-1.8518,-1.9064,-1.9559,-2.0415,-2.125,0.0,0.0,0.0,0.0,0.0,0.0,0.0,0.0,0.0,0.0,0.0,0.0,0.0,0.0,0.0,0.0,0.0,0.0,-3.5121,-3.6878,-3.7905,-3.7905,-3.9259,-4.007,-4.007,-4.007,-4.007,-4.007,-4.007,-4.007,-4.007,-4.007,-4.0336,-4.0797,-4.1613,-4.258,-4.3701,-4.5215,-4.6245,-4.6835,-4.7736,-4.8122,-4.8141,-4.8251,-4.8306,-4.8306,-4.8306,-4.8306,-4.8306,-4.8306,-4.8306,-4.8306,0.0,0.0,0.0,0.0,0.0,0.0,0.0,0.0,0.0,0.0,0.0,0.0,0.0,0.0,0.0,0.0,0.0,0.0,0.0,0.0,0.0,0.0,-0.8633,-0.8573,-0.8573,-0.8421,-0.8421,-0.8521,-0.8368,-0.8421,-0.8521,-0.8521,-0.8586,-0.8752,-0.8752,-0.885,-0.9106,-0.9413,-0.9673,-0.9991,-1.0316,0.0,0.0,0.0,0.0,0.0,0.0,0.0,0.0,-1.3552,-1.4282,-1.5192,-1.5199,0.0,0.0,0.0,0.0,0.0,-1.7975,-1.8833,-1.9602,-1.9878,-2.0588,-2.1405,0.0,0.0,0.0,0.0,0.0,0.0,0.0,0.0,0.0,0.0,0.0,0.0,0.0,0.0,0.0,0.0,0.0,-3.4124,-3.3948,-3.6323,-3.7905,-3.7905,-3.9259,-4.007,-4.007,-4.007,-4.007,-4.007,-4.007,-4.007,-4.007,-4.007,-4.0121,-4.0254,-4.0823,-4.1598,-4.2492,-4.3734,-4.4668,-4.5475,-4.6722,-4.7297,-4.7352,-4.8031,-4.8306,-4.8306,-4.8306,-4.8306,-4.8306,-4.8306,-4.8306,-4.8306,0.0,0.0,0.0,0.0,0.0,0.0,0.0,0.0,0.0,0.0,0.0,0.0,0.0,0.0,0.0,0.0,0.0,0.0,0.0,0.0,0.0,-0.8791,-0.8745,-0.8692,-0.8692,-0.8639,-0.8639,-0.8692,-0.8639,-0.8692,-0.8791,-0.8791,-0.8798,-0.8804,-0.8804,-0.891,-0.9106,-0.9465,-0.9725,-0.9955,0.0,0.0,0.0,0.0,0.0,0.0,0.0,0.0,0.0,0.0,-1.4424,-1.5202,-1.5288,0.0,0.0,0.0,0.0,0.0,-1.8084,-1.8709,-1.9454,-2.0329,-2.1232,-2.197,0.0,0.0,0.0,0.0,0.0,0.0,0.0,0.0,0.0,0.0,0.0,0.0,0.0,0.0,0.0,0.0,0.0,-3.4208,-3.4655,-3.6279,-3.7466,-3.7872,-3.8886,-3.9665,-4.0054,-4.007,-4.007,-4.007,-4.007,-4.007,-4.007,-4.007,-4.007,-4.0121,-4.0319,-4.0814,-4.1522,-4.2537,-4.3494,-4.4484,-4.5537,-4.6446,-4.715,-4.7517,-4.7921,-4.8306,-4.8306,-4.8306,-4.8306,-4.8306,-4.8306,-4.8306,0.0,0.0,0.0,0.0,0.0,0.0,0.0,0.0,0.0,0.0,0.0,0.0,0.0,0.0,0.0,0.0,0.0,0.0,0.0,0.0,-0.849,-0.8732,-0.8804,-0.8804,-0.8804,-0.8857,-0.8857,-0.891,-0.891,-0.8962,-0.9061,-0.9061,-0.9008,-0.891,-0.891,-0.8962,-0.9106,-0.9465,-0.9732,-0.9903,0.0,0.0,0.0,0.0,0.0,0.0,0.0,0.0,0.0,0.0,0.0,0.0,0.0,0.0,0.0,-1.6511,-1.688,-1.7335,-1.7947,-1.8531,-1.923,-2.0341,0.0,-2.2199,-2.2656,0.0,0.0,0.0,0.0,0.0,0.0,0.0,0.0,0.0,0.0,0.0,0.0,0.0,0.0,0.0,-3.2812,-3.4143,-3.5448,-3.6315,-3.7009,-3.7601,-3.8481,-3.9242,-3.9783,-3.9986,-4.007,-4.007,-4.007,-4.007,-4.007,-4.007,-4.007,-4.007,-4.007,-4.0336,-4.072,-4.1514,-4.2359,-4.3274,-4.4186,-4.5273,-4.6356,-4.6539,-4.7183,-4.8031,-4.8031,-4.8141,-4.8306,-4.8306,-4.8306,-4.8306,0.0,0.0,0.0,0.0,0.0,0.0,0.0,0.0,0.0,0.0,0.0,0.0,0.0,0.0,0.0,0.0,0.0,0.0,0.0,0.0,-0.8535,-0.8613,-0.8745,-0.8804,-0.8804,-0.891,-0.9061,-0.9159,-0.9159,-0.9159,-0.9159,-0.9159,-0.9159,-0.9159,-0.9159,-0.9263,-0.9413,-0.9688,-0.9844,-0.9999,-1.036,0.0,0.0,0.0,0.0,0.0,0.0,0.0,0.0,0.0,0.0,0.0,0.0,0.0,-1.5948,-1.6121,-1.6622,-1.7203,-1.7258,-1.837,-1.949,-1.9579,0.0,0.0,-2.2855,0.0,0.0,0.0,0.0,0.0,0.0,0.0,0.0,0.0,0.0,0.0,0.0,0.0,0.0,-3.2216,-3.3123,-3.4143,-3.5448,-3.6315,-3.6806,-3.6857,-3.8193,-3.9005,-3.9073,-3.9715,-4.007,-4.007,-4.007,-4.007,-4.007,-4.007,-4.007,-4.007,-4.007,-4.0121,-4.0171,-4.0724,-4.1036,-4.1209,-4.2547,-4.3513,-4.418,-4.4943,-4.6018,-4.7205,-4.7205,-4.7645,-4.8306,-4.8306,-4.8306,-4.8306,0.0,0.0,0.0,0.0,0.0,0.0,0.0,0.0,0.0,0.0,0.0,0.0,0.0,0.0,0.0,0.0,0.0,0.0,0.0,0.0,-0.8388,-0.8461,-0.858,-0.8685,-0.8685,-0.8949,-0.9211,-0.9309,-0.9413,-0.9465,-0.9465,-0.9465,-0.9413,-0.9309,-0.9309,-0.9413,-0.9517,-0.974,-0.9955,-1.0213,-1.0522,-1.0667,0.0,0.0,0.0,0.0,0.0,0.0,0.0,0.0,-1.4779,-1.5147,-1.5264,-1.5604,-1.6032,-1.5949,-1.6524,-1.7192,-1.7308,-1.8426,-1.962,-1.962,0.0,0.0,0.0,0.0,0.0,0.0,0.0,0.0,0.0,0.0,0.0,0.0,0.0,0.0,0.0,0.0,-3.0047,-3.1164,-3.2671,-3.3988,-3.4875,-3.5631,-3.6265,-3.6738,-3.7297,-3.7821,-3.8294,-3.9005,-3.9411,-3.9411,-3.9834,-4.007,-4.007,-4.007,-4.007,-4.007,-4.007,-4.007,-4.0121,-4.0336,-4.0577,-4.092,-4.1475,-4.2326,-4.3382,-4.4093,-4.4947,-4.5924,-4.678,-4.7609,-4.8306,-4.8306,-4.8306,-4.8306,0.0,0.0,0.0,0.0,0.0,0.0,0.0,0.0,0.0,0.0,0.0,0.0,0.0,0.0,0.0,0.0,0.0,0.0,0.0,-0.84,-0.8436,-0.8415,-0.8527,-0.8626,-0.8685,-0.9001,-0.9263,-0.9413,-0.951,-0.9614,-0.9673,-0.9673,-0.9621,-0.9577,0.0,0.0,0.0,-0.9844,-1.0058,-1.0316,-1.0411,-1.0514,0.0,0.0,0.0,0.0,0.0,0.0,0.0,0.0,-1.4784,-1.5156,-1.5215,-1.5556,-1.5918,-1.5673,-1.6414,-1.7291,-1.7525,-1.8414,-1.9362,0.0,0.0,0.0,0.0,0.0,0.0,0.0,0.0,0.0,0.0,0.0,0.0,0.0,0.0,0.0,0.0,-2.8373,-2.9369,-3.0452,-3.1788,-3.3191,-3.4477,-3.5005,-3.558,-3.6366,-3.6637,-3.7009,-3.7533,-3.8244,-3.865,-3.865,-3.936,-3.9732,-3.9732,-3.9969,-4.007,-4.007,-4.007,-4.007,-4.007,-4.007,-4.0286,-4.0655,-4.0655,-4.1308,-4.2353,-4.2761,-4.3537,-4.4551,-4.5747,-4.6764,-4.767,-4.767,-4.7952,-4.8306,0.0,0.0,0.0,0.0,0.0,0.0,0.0,0.0,0.0,0.0,0.0,0.0,0.0,0.0,0.0,0.0,0.0,0.0,0.0,-0.8586,-0.8699,-0.8427,-0.8527,-0.8685,-0.8804,-0.9061,-0.9263,-0.9413,-0.951,-0.9673,-0.9799,-0.9799,-0.9895,-0.9999,0.0,0.0,0.0,0.0,-1.011,-1.0265,-1.0102,-1.0205,-1.0522,0.0,0.0,0.0,0.0,0.0,0.0,0.0,-1.4556,-1.5029,-1.5156,-1.5449,-1.5651,-1.5259,-1.6258,-1.7477,-1.7796,-1.8078,0.0,0.0,0.0,0.0,0.0,0.0,0.0,0.0,0.0,0.0,0.0,0.0,0.0,0.0,0.0,0.0,-2.738,-2.7625,-2.8344,-3.0339,-3.0612,-3.1634,-3.4331,-3.4576,-3.4894,-3.556,-3.6332,-3.6772,-3.6772,-3.7483,-3.7889,-3.7889,-3.8599,-3.8988,-3.8988,-3.9698,-4.0054,-4.007,-4.007,-4.007,-4.007,-4.007,-4.007,-4.007,-4.007,-4.0417,-4.0903,-4.0903,-4.1705,-4.3058,-4.3899,-4.505,-4.6272,-4.6272,-4.7106,-4.8249,0.0,0.0,0.0,0.0,0.0,0.0,0.0,0.0,0.0,0.0,0.0,0.0,0.0,0.0,0.0,0.0,0.0,0.0,0.0,-0.8856,-0.8699,-0.8427,-0.8527,-0.8573,-0.8533,-0.8949,-0.9309,-0.9562,-0.9681,-0.9792,-0.9947,-1.011,-1.0162,-1.0213,0.0,0.0,0.0,0.0,-1.011,-1.0265,-1.0265,-1.0368,-1.0624,0.0,0.0,0.0,0.0,0.0,0.0,0.0,0.0,0.0,-1.4902,-1.5128,-1.539,-1.4949,-1.5802,-1.6847,-1.6784,0.0,0.0,0.0,0.0,0.0,0.0,0.0,0.0,0.0,0.0,0.0,0.0,0.0,0.0,-2.5458,-2.5619,-2.6063,-2.738,-2.7625,-2.7991,-2.907,-3.0043,-3.131,-3.2998,-3.4039,-3.4894,-3.556,-3.5825,-3.596,-3.596,-3.6705,-3.711,-3.711,-3.7838,-3.8227,-3.8227,-3.8447,-3.8802,-3.9326,-3.9326,-3.958,-4.007,-4.007,-4.007,-4.007,-4.007,-4.0204,-4.0368,-4.0733,-4.1705,-4.3005,-4.3235,-4.3952,-4.4821,-4.4821,-4.5068,-4.5569,0.0,0.0,0.0,0.0,0.0,0.0,0.0,0.0,0.0,0.0,0.0,0.0,0.0,0.0,0.0,0.0,0.0,0.0,0.0,0.0,-0.9001,-0.8738,-0.8784,-0.8837,-0.8784,-0.9099,-0.9477,-0.9917,-0.9844,-0.9836,-0.9947,-1.0265,-1.0368,-1.0368,0.0,-1.0316,0.0,0.0,-1.0213,-1.0265,-1.0213,-1.0411,-1.0683,0.0,0.0,0.0,0.0,0.0,0.0,0.0,0.0,0.0,-1.4547,0.0,-1.5177,-1.5537,-1.6141,-1.6981,-1.8101,0.0,0.0,0.0,0.0,0.0,0.0,0.0,0.0,0.0,0.0,0.0,0.0,0.0,0.0,-2.5404,-2.5616,-2.6063,-2.738,-2.7625,-2.7829,-2.8517,-2.931,-3.0459,-3.206,-3.3159,-3.4184,-3.5128,-3.547,-3.5622,-3.5622,-3.6062,-3.6315,-3.6315,-3.706,-3.7449,-3.7449,-3.7753,-3.8125,-3.8565,-3.8565,-3.8937,-3.9648,-3.9952,-4.007,-4.007,-4.007,-4.007,-4.0121,-4.0449,-4.1056,-4.183,-4.183,-4.2503,-4.3416,-4.3416,-4.3729,-4.4316,0.0,0.0,0.0,0.0,0.0,0.0,0.0,0.0,0.0,0.0,0.0,0.0,0.0,0.0,0.0,0.0,0.0,0.0,0.0,0.0,-0.9517,-0.9263,-0.9211,-0.9256,-0.9361,-0.9361,-0.9676,-1.0329,-1.0016,-0.9888,-0.9941,0.0,-1.0498,-1.0466,0.0,-1.0443,0.0,-1.0296,-1.0311,-1.0267,-1.0135,-1.035,-1.0753,-1.0923,0.0,0.0,0.0,0.0,0.0,0.0,0.0,0.0,-1.4189,-1.4419,-1.4982,-1.6357,-1.6806,-1.751,0.0,0.0,0.0,0.0,0.0,0.0,0.0,0.0,0.0,0.0,0.0,0.0,0.0,0.0,0.0,-2.5297,-2.5615,-2.6063,-2.738,-2.7625,-2.785,-2.8427,-2.8562,-2.9357,-3.1217,-3.2013,-3.3031,-3.4379,-3.5061,-3.5448,-3.556,-3.5622,-3.5622,-3.5622,-3.6299,-3.6671,-3.6671,-3.7364,-3.7736,-3.7804,-3.7804,-3.8193,-3.892,-3.9648,-4.002,-4.007,-4.007,-4.007,-4.007,-4.007,-4.007,-4.007,-4.007,-4.0861,-4.2029,-4.2029,-4.2806,-4.3827,0.0,0.0,0.0,0.0,0.0,0.0,0.0,0.0,0.0,0.0,0.0,0.0,0.0,0.0,0.0,0.0,0.0,0.0,0.0,0.0,-0.9829,-0.9666,-0.9361,-0.9159,-0.9113,-0.8956,-0.9159,-0.968,-1.0046,-1.0421,0.0,0.0,0.0,-1.0317,0.0,-1.0121,0.0,-1.0052,-1.0225,-1.0316,-1.0557,-1.0829,-1.1075,-1.104,-1.1614,0.0,0.0,0.0,0.0,0.0,0.0,0.0,-1.395,-1.424,-1.4765,-1.4963,-1.5894,-1.6984,0.0,0.0,0.0,0.0,0.0,0.0,0.0,0.0,0.0,0.0,0.0,0.0,0.0,0.0,-2.3896,-2.5344,-2.5615,-2.6063,-2.738,-2.7625,-2.7619,-2.7784,-2.8263,-2.8994,-2.9921,-3.0619,-3.1801,-3.367,-3.3938,-3.4497,-3.5543,-3.5622,-3.5622,-3.5622,-3.5774,-3.5876,-3.5876,-3.6028,-3.6417,-3.7026,-3.7026,-3.7415,-3.8159,-3.8903,-3.9529,-4.007,-4.007,-4.007,-4.007,-4.007,-4.007,-4.007,-4.007,-4.0273,-4.0542,-4.0542,-4.0726,-4.1128,0.0,0.0,0.0,0.0,0.0,0.0,0.0,0.0,0.0,0.0,0.0,0.0,0.0,0.0,0.0,0.0,0.0,0.0,0.0,0.0,0.0,-1.0138,-0.9732,-0.942,-0.9316,-0.9358,-0.9644,-1.0009,-1.045,0.0,0.0,0.0,0.0,-1.0617,0.0,-1.0637,0.0,-1.0604,-1.0632,-1.0654,-1.0763,-1.0944,-1.1195,-1.1233,-1.1752,-1.2522,-1.2517,0.0,0.0,0.0,0.0,0.0,0.0,0.0,-1.4565,-1.5566,-1.6148,-1.6891,0.0,0.0,0.0,0.0,0.0,0.0,0.0,0.0,0.0,0.0,0.0,0.0,0.0,-2.3595,-2.3939,-2.4971,-2.5405,-2.5959,-2.6961,-2.743,-2.7625,-2.7625,-2.7889,-2.8372,-2.9068,-2.9743,-3.0694,-3.2063,-3.2747,-3.3508,-3.4593,-3.4931,-3.525,-3.5605,-3.5622,-3.5622,-3.5622,-3.5622,-3.5825,-3.6231,-3.6231,-3.662,-3.7398,-3.8497,-3.9191,-3.958,-3.9935,-4.007,-4.007,-4.007,-4.007,-4.007,-4.007,-4.007,-4.007,-4.007,-4.007,-4.0172,0.0,0.0,0.0,0.0,0.0,0.0,0.0,0.0,0.0,0.0,0.0,0.0,0.0,0.0,0.0,0.0,0.0,0.0,0.0,0.0,0.0,0.0,-1.0051,-0.9814,-0.9754,-0.9911,-1.0239,-1.0675,0.0,0.0,0.0,0.0,0.0,-1.1035,0.0,0.0,0.0,-1.1249,-1.1157,-1.1042,-1.0987,-1.1068,-1.1264,-1.1472,-1.1929,-1.2511,-1.2639,-1.2867,-1.2989,-1.2989,0.0,0.0,0.0,0.0,-1.4474,-1.6491,-1.6688,-1.695,0.0,0.0,0.0,0.0,0.0,0.0,0.0,0.0,0.0,0.0,0.0,0.0,0.0,-2.3595,-2.3819,-2.4462,-2.5091,-2.5704,-2.6482,-2.7066,-2.744,-2.761,-2.7625,-2.7799,-2.8368,-2.8915,-2.9562,-3.0394,-3.1389,-3.243,-3.3383,-3.3857,-3.4553,-3.5402,-3.5419,-3.5487,-3.5622,-3.5622,-3.5622,-3.5622,-3.5622,-3.596,-3.662,-3.799,-3.8684,-3.8853,-3.958,-3.9884,-3.9901,-4.002,-4.007,-4.007,-4.007,-4.007,-4.007,-4.007,-4.007,-4.007,0.0,0.0,0.0,0.0,0.0,0.0,0.0,0.0,0.0,0.0,0.0,0.0,0.0,0.0,0.0,0.0,0.0,0.0,-1.0102,0.0,0.0,-1.0522,-1.0154,-1.0076,-1.0309,-0.9926,-1.0179,-1.1011,0.0,0.0,0.0,0.0,0.0,-1.1071,0.0,0.0,0.0,0.0,0.0,-1.1271,-1.1563,-1.1621,-1.1559,-1.1727,-1.1989,-1.2304,-1.2351,-1.2613,-1.2989,-1.2989,-1.3224,0.0,0.0,0.0,-1.4611,-1.5425,-1.6186,0.0,0.0,0.0,0.0,0.0,0.0,0.0,0.0,0.0,0.0,0.0,0.0,0.0,-2.3595,-2.3595,-2.3819,-2.4462,-2.4657,-2.5196,-2.6422,-2.6662,-2.6931,-2.755,-2.7625,-2.7655,-2.7694,-2.7795,-2.8404,-2.963,-2.9873,-3.0783,-3.255,-3.2734,-3.3351,-3.4624,-3.4641,-3.4962,-3.556,-3.5622,-3.5622,-3.5622,-3.5622,-3.5673,-3.5808,-3.6688,-3.7432,-3.8091,-3.8819,-3.914,-3.9191,-3.9817,-4.007,-4.007,-4.007,-4.007,-4.007,-4.007,-4.007,-4.007,0.0,0.0,0.0,0.0,0.0,0.0,0.0,0.0,0.0,0.0,0.0,0.0,0.0,0.0,0.0,-0.9784,-0.9895,-1.0007,-1.0162,-1.0419,-1.0522,-1.0368,-1.0436,-1.044,-1.0376,-1.0632,-1.085,0.0,0.0,0.0,0.0,-1.1685,-1.1603,0.0,0.0,0.0,0.0,0.0,0.0,0.0,0.0,0.0,0.0,-1.2151,-1.2371,-1.2813,-1.2515,-1.2594,-1.2744,-1.2683,-1.285,-1.3216,-1.3329,0.0,0.0,0.0,0.0,0.0,0.0,0.0,0.0,0.0,0.0,0.0,0.0,0.0,0.0,0.0,0.0,0.0,-2.3054,-2.3377,-2.3699,-2.3999,-2.4328,-2.4837,-2.542,-2.5809,-2.6288,-2.6946,-2.7021,-2.7171,-2.758,-2.7625,-2.7831,-2.8454,-2.8799,-2.9515,-3.0815,-3.1175,-3.1974,-3.3334,-3.3395,-3.3896,-3.4979,-3.4979,-3.5199,-3.5622,-3.5622,-3.5622,-3.5639,-3.5977,-3.6552,-3.7313,-3.8058,-3.8379,-3.8447,-3.9174,-3.9462,-3.9512,-3.9918,-4.007,-4.007,-4.007,-4.007,-4.007,0.0,0.0,0.0,0.0,0.0,0.0,0.0,0.0,0.0,0.0,0.0,0.0,0.0,0.0,0.0,0.0,-0.9895,-1.0089,-1.0493,-1.0605,-1.0637,-1.068,-1.0863,-1.0872,-1.0799,-1.1295,0.0,0.0,0.0,0.0,-1.1498,-1.1685,-1.1802,0.0,-1.2058,0.0,0.0,0.0,0.0,0.0,0.0,0.0,0.0,0.0,-1.2917,-1.3302,-1.2767,-1.2641,-1.2683,-1.2469,-1.2749,-1.3182,-1.3411,-1.3717,0.0,0.0,0.0,0.0,0.0,0.0,0.0,0.0,0.0,0.0,0.0,0.0,0.0,0.0,0.0,-2.1629,-2.2128,-2.2875,-2.3421,-2.3551,-2.4029,-2.4433,-2.4567,-2.5046,-2.56,-2.6258,-2.6348,-2.6602,-2.726,-2.732,-2.7445,-2.761,-2.7993,-2.8583,-2.9273,-2.9754,-3.0587,-3.1958,-3.1974,-3.2668,-3.3967,-3.4344,-3.4776,-3.5334,-3.552,-3.5622,-3.5622,-3.5622,-3.5943,-3.6535,-3.7297,-3.7618,-3.7686,-3.8413,-3.8819,-3.9039,-3.9597,-3.9918,-4.007,-4.007,-4.007,-4.007,0.0,0.0,0.0,0.0,0.0,0.0,0.0,0.0,0.0,0.0,0.0,0.0,-0.9413,-0.9413,-0.9361,-0.9263,-0.9584,-1.0188,-1.11,-1.1024,-1.1223,-1.1711,-1.1399,0.0,-1.1897,-1.1531,0.0,0.0,0.0,0.0,-1.1129,-1.1622,-1.174,-1.1622,-1.174,-1.1802,-1.1802,0.0,0.0,0.0,0.0,0.0,0.0,0.0,0.0,0.0,0.0,-1.2842,-1.2944,-1.2806,-1.3108,-1.3609,-1.3861,-1.4292,-1.4943,0.0,0.0,0.0,0.0,0.0,0.0,0.0,0.0,0.0,0.0,0.0,0.0,0.0,0.0,-2.0845,-2.0894,-2.1894,-2.292,-2.3508,-2.3625,-2.3879,-2.4492,-2.4612,-2.4881,-2.5585,-2.5659,-2.5914,-2.6572,-2.6632,-2.6901,-2.7565,-2.7625,-2.791,-2.851,-2.8573,-2.9234,-3.0555,-3.0617,-3.1248,-3.259,-3.3856,-3.4506,-3.4556,-3.5284,-3.5622,-3.5622,-3.5622,-3.5639,-3.5723,-3.6502,-3.684,-3.6891,-3.7652,-3.8379,-3.8988,-3.9039,-3.9462,-4.007,-4.007,-4.007,-4.007,0.0,0.0,0.0,0.0,0.0,0.0,0.0,0.0,0.0,0.0,0.0,0.0,0.0,-1.0181,-1.0346,-1.0409,-1.0856,-1.124,-1.1589,-1.1542,-1.1487,-1.1487,-1.1775,-1.19,-1.1842,-1.1941,0.0,0.0,0.0,-1.1498,-1.1247,-1.1615,-1.1747,-1.1622,-1.1747,-1.1677,-1.149,-1.1247,0.0,0.0,0.0,0.0,0.0,0.0,0.0,0.0,0.0,0.0,0.0,-1.2383,-1.2819,-1.3372,-1.3915,-1.425,-1.4716,-1.5833,0.0,0.0,0.0,0.0,0.0,0.0,0.0,0.0,0.0,0.0,0.0,0.0,0.0,-2.0295,-2.0696,-2.15,-2.2146,-2.2363,-2.2363,-2.2601,-2.3285,-2.3374,-2.3759,-2.4851,-2.4986,-2.5241,-2.5899,-2.5959,-2.6243,-2.6901,-2.6946,-2.7225,-2.7879,-2.7894,-2.833,-2.9171,-2.9234,-2.9878,-3.1216,-3.2557,-3.3223,-3.3223,-3.4347,-3.4895,-3.4912,-3.5402,-3.5622,-3.5639,-3.591,-3.6028,-3.6096,-3.6857,-3.7347,-3.7618,-3.8108,-3.8734,-3.9377,-3.9377,-3.9681,-4.007,0.0,0.0,0.0,0.0,0.0,0.0,0.0,0.0,0.0,-1.0622,0.0,0.0,0.0,0.0,-1.1035,-1.1156,-1.1439,-1.172,-1.1955,-1.1849,-1.1783,-1.1728,-1.2083,-1.2082,-1.1842,-1.2127,0.0,0.0,0.0,0.0,0.0,-1.149,-1.1553,-1.1435,-1.1428,-1.136,0.0,0.0,0.0,-1.1819,0.0,0.0,-1.3819,0.0,0.0,0.0,0.0,0.0,0.0,0.0,-1.326,-1.3716,-1.4204,0.0,0.0,0.0,0.0,0.0,0.0,0.0,0.0,0.0,0.0,0.0,0.0,0.0,0.0,0.0,-1.9798,-1.9952,-2.0396,-2.0769,-2.1183,-2.1649,-2.1697,-2.1852,-2.23,-2.2346,-2.2747,-2.385,-2.3954,-2.4311,-2.5164,-2.527,-2.5555,-2.6213,-2.6258,-2.6557,-2.72,-2.7245,-2.7534,-2.8174,-2.8367,-2.8951,-2.98,-3.1154,-3.1847,-3.1847,-3.2994,-3.3627,-3.3877,-3.4376,-3.4835,-3.5253,-3.5253,-3.5407,-3.5656,-3.618,-3.6552,-3.6823,-3.733,-3.7973,-3.865,-3.8903,-3.9292,-3.9749,0.0,0.0,0.0,0.0,0.0,0.0,0.0,0.0,-1.0952,-1.1275,0.0,0.0,0.0,0.0,0.0,-1.1357,-1.1357,-1.1621,-1.2313,-1.2043,-1.2075,-1.2613,-1.2313,-1.2058,-1.1802,-1.2112,-1.1996,0.0,0.0,0.0,0.0,0.0,-1.1247,-1.1059,-1.087,-1.0907,-1.1193,0.0,-1.1187,-1.1585,0.0,-1.2246,-1.2822,0.0,0.0,0.0,-1.334,-1.3482,0.0,-1.4122,0.0,0.0,0.0,0.0,0.0,0.0,0.0,0.0,0.0,0.0,0.0,0.0,0.0,0.0,0.0,0.0,0.0,0.0,-1.9759,-1.9747,-1.9798,-1.9798,-2.0181,-2.1459,-2.1649,-2.1649,-2.1649,-2.1649,-2.1899,-2.2603,-2.2694,-2.3182,-2.4432,-2.4552,-2.4821,-2.554,-2.5585,-2.5869,-2.6527,-2.6572,-2.6886,-2.7565,-2.8174,-2.8463,-2.8463,-2.9784,-3.0445,-3.0461,-3.1213,-3.1919,-3.2528,-3.2576,-3.3307,-3.4543,-3.4576,-3.4941,-3.5515,-3.5577,-3.6062,-3.6738,-3.6738,-3.7212,-3.7956,-3.8667,-3.8954,-3.9089,0.0,0.0,0.0,0.0,0.0,0.0,-1.1759,-1.1443,-1.1264,0.0,0.0,0.0,-1.1289,-1.1715,-1.2137,-1.2497,-1.2506,-1.2718,-1.3117,-1.3014,-1.2951,-1.3111,-1.2867,-1.2674,-1.2552,-1.2367,-1.211,0.0,0.0,0.0,0.0,0.0,0.0,0.0,-1.0744,-1.0835,-1.1086,-1.0743,0.0,0.0,-1.1062,-1.1731,0.0,0.0,0.0,0.0,0.0,-1.1761,-1.2151,0.0,-1.3006,-1.403,0.0,0.0,0.0,0.0,0.0,0.0,-1.7304,0.0,0.0,0.0,0.0,0.0,0.0,0.0,0.0,0.0,-1.9335,-1.915,-1.9695,-1.9798,-1.9901,-2.0283,-2.032,-2.0471,-2.0966,-2.1077,-2.1307,-2.1899,-2.2406,-2.2857,-2.3182,-2.3615,-2.4163,0.0,-2.4896,-2.5196,-2.5839,-2.6333,-2.6677,-2.6856,-2.7504,-2.786,-2.786,-2.8633,-2.9061,-2.9061,-3.0242,-3.0908,-3.1101,-3.2127,-3.2787,-3.3193,-3.3661,-3.3987,-3.4252,-3.5207,-3.574,-3.5943,-3.5943,-3.6417,-3.711,-3.7313,-3.8075,-3.9022,0.0,0.0,0.0,0.0,0.0,0.0,-1.1935,-1.1699,-1.1524,0.0,0.0,0.0,-1.2255,-1.2662,-1.3052,-1.3369,-1.323,-1.3194,-1.331,-1.3001,-1.2744,-1.2683,-1.249,-1.2305,-1.212,-1.2182,-1.1962,0.0,0.0,0.0,-1.1125,-1.0889,0.0,0.0,0.0,0.0,0.0,0.0,0.0,0.0,-1.0722,0.0,0.0,-1.1009,-1.1014,0.0,0.0,0.0,-1.1804,-1.2123,-1.2922,0.0,0.0,0.0,0.0,0.0,0.0,0.0,0.0,0.0,0.0,0.0,0.0,0.0,-1.8459,-1.843,-1.8632,0.0,-1.8941,-1.8939,-1.9643,-1.9798,-1.9798,-1.9798,-1.9798,-1.9952,-2.0346,-2.0396,-2.0633,-2.1245,-2.169,-2.2128,-2.2649,-2.277,-2.3096,-2.3746,-2.3835,-2.4221,-2.512,-2.5824,-2.6303,-2.6572,-2.6961,-2.734,-2.7625,-2.7944,-2.814,-2.814,-2.8931,-2.9451,-2.973,-3.0541,-3.1416,-3.2222,-3.2582,-3.3069,-3.3633,-3.4447,-3.4958,-3.5207,-3.547,-3.5893,-3.6332,-3.6671,-3.733,-3.8159,0.0,0.0,0.0,-1.1353,-1.1549,-1.1689,-1.1663,-1.1788,-1.1914,0.0,-1.2432,-1.299,-1.3486,-1.3659,-1.3792,-1.38,-1.3567,-1.3316,-1.318,-1.2547,-1.2111,-1.1987,-1.1762,-1.156,-1.1247,-1.1747,-1.17,0.0,-1.1416,-1.15,-1.103,-1.0839,-1.0659,0.0,0.0,0.0,0.0,0.0,0.0,-1.1027,-1.0621,-1.056,0.0,0.0,-1.0795,-1.1086,-1.1593,-1.1898,-1.2156,-1.2726,-1.3355,0.0,0.0,0.0,0.0,0.0,-1.6237,0.0,0.0,0.0,0.0,0.0,0.0,0.0,-1.8208,-1.8296,-1.8452,-1.8728,-1.8767,-1.9,-1.9713,-1.9883,-1.9935,-1.9935,-1.9885,-1.9874,-1.9811,-1.9798,-2.0003,-2.0597,-2.0746,-2.1224,-2.2374,-2.2007,-2.1946,-2.2543,-2.2649,-2.3182,-2.4343,-2.509,-2.5764,-2.6363,-2.6512,-2.6871,-2.7455,-2.758,-2.7625,-2.7625,-2.7625,-2.7889,-2.8487,-2.8562,-2.9591,-3.1257,-3.1411,-3.2154,-3.3264,-3.3395,-3.3937,-3.4688,-3.5253,-3.5515,-3.5707,-3.64,-3.6705,-3.6975,-1.1155,0.0,0.0,0.0,-1.1876,-1.2028,-1.2292,-1.2336,-1.2402,-1.2602,-1.2728,-1.2863,-1.2923,-1.2998,-1.3065,-1.3199,-1.3271,-1.3431,-1.3679,-1.3171,-1.2925,-1.2981,-1.2453,-1.212,-1.2058,-1.1934,-1.174,-1.1546,-1.1221,-1.1015,-1.085,-1.0374,0.0,0.0,0.0,0.0,0.0,0.0,0.0,-1.0785,-1.0539,0.0,-1.0502,-1.0453,-1.0555,-1.0722,-1.0846,-1.1111,-1.1542,-1.2196,-1.2365,-1.2533,0.0,0.0,0.0,-1.5809,0.0,0.0,0.0,0.0,0.0,0.0,0.0,0.0,-1.8384,-1.8332,-1.8459,0.0,-1.916,-1.9298,-2.0193,-2.0499,-2.0611,-2.0767,-2.0506,-2.0154,-1.9861,-1.9798,-1.985,-2.0003,-2.0446,-2.0894,-2.1126,-2.1486,-2.1744,-2.1899,-2.2406,-2.2797,-2.3064,-2.4177,-2.4881,-2.5016,-2.6033,-2.6647,-2.6782,-2.7355,-2.7625,-2.7625,-2.7625,-2.7685,-2.7784,-2.8353,-2.8832,-2.9237,-3.0262,-3.083,-3.1201,-3.2338,-3.3495,-3.4624,-3.4736,-3.5098,-3.5639,-3.5791,-3.6231,-3.6823,-1.0999,0.0,0.0,0.0,-1.2144,-1.2328,-1.2497,-1.2661,-1.2796,-1.2796,-1.3142,-1.3378,-1.3546,-1.3638,-1.3708,-1.3708,-1.3615,-1.365,-1.3846,-1.3263,-1.2953,-1.2879,-1.245,-1.2093,-1.1833,-1.1746,-1.1489,-1.1179,-1.0916,-1.073,-1.0602,0.0,0.0,0.0,0.0,0.0,0.0,0.0,-0.9818,-1.0319,-1.0338,0.0,-1.0654,-1.0857,-1.0916,-1.0995,-1.0995,-1.1149,-1.137,-1.1723,-1.2173,0.0,0.0,-1.3631,-1.418,0.0,-1.5617,-1.5575,0.0,0.0,0.0,-1.8008,0.0,0.0,0.0,-1.8243,-1.8394,-1.917,-1.9302,-1.9502,-2.0344,-2.0701,-2.0929,-2.0974,-2.0329,-2.0086,-2.08,-2.0267,-1.9798,-1.9798,-2.0105,-2.0446,-2.0746,-2.0769,-2.0904,-2.1245,-2.1547,-2.2035,-2.2649,-2.33,-2.3939,-2.4567,-2.527,-2.5929,-2.6572,-2.6916,-2.7245,-2.7625,-2.7625,-2.7625,-2.7625,-2.7934,-2.8278,-2.8652,-2.9624,-3.0223,-3.0552,-3.1622,-3.268,-3.3649,-3.3987,-3.4496,-3.5098,-3.5098,-3.5551,-3.6265,-1.083,0.0,0.0,0.0,-1.2272,-1.2431,-1.2557,-1.2846,-1.299,-1.2922,-1.3216,-1.3505,-1.3784,-1.3667,-1.3558,-1.3415,-1.3164,-1.3115,-1.3469,-1.2892,-1.2444,-1.2308,-1.2241,-1.1873,-1.12,-1.1363,-1.1274,-1.081,-1.0728,-1.0552,-1.0356,0.0,0.0,0.0,0.0,0.0,0.0,0.0,0.0,-1.006,0.0,-1.0492,-1.0608,-1.1025,-1.1201,-1.1217,-1.1354,-1.1423,-1.143,-1.143,-1.2199,-1.3046,-1.2902,-1.3416,0.0,0.0,0.0,0.0,0.0,0.0,0.0,0.0,0.0,-1.818,0.0,0.0,0.0,-1.9127,-1.9486,0.0,0.0,0.0,0.0,0.0,0.0,0.0,0.0,-2.1046,0.0,-2.0281,-1.9976,-2.0093,-2.0817,-2.0425,-2.0271,-2.056,-2.0951,-2.1491,-2.2282,-2.2558,-2.3182,-2.4178,-2.4462,-2.5196,-2.6393,-2.6527,-2.6916,-2.7625,-2.7625,-2.7625,-2.7625,-2.7625,-2.7874,-2.8442,-2.9101,-2.9744,-3.0372,-3.1061,-3.1732,-3.2437,-3.313,-3.3836,-3.4431,-3.4431,-3.4847,-3.5508,-1.1438,-1.1716,0.0,0.0,0.0,0.0,-1.2746,-1.2715,-1.2795,-1.3092,-1.2342,-1.1766,-1.1806,0.0,0.0,0.0,0.0,0.0,-1.1868,0.0,-1.1458,-1.1458,-1.1955,-1.1634,-1.0359,-1.1047,-1.1376,-1.1308,-1.0725,-1.0348,0.0,0.0,0.0,0.0,-0.9943,0.0,0.0,0.0,-1.017,0.0,-1.0541,-1.0177,0.0,-1.0318,-1.0526,-1.0667,-1.1217,-1.1423,-1.1423,0.0,-1.186,-1.2279,0.0,-1.2964,-1.2807,-1.5295,0.0,0.0,0.0,0.0,0.0,0.0,-1.793,0.0,0.0,0.0,-1.917,-1.9717,0.0,0.0,0.0,0.0,0.0,0.0,0.0,0.0,-2.2369,-2.2018,-2.1854,-2.2057,-2.0717,-2.0142,-2.0964,-2.129,-2.0979,-1.999,-2.1409,-2.1925,-2.1068,-2.2081,-2.2783,-2.29,-2.4029,-2.4986,-2.5719,-2.6303,-2.6916,-2.7625,-2.7625,-2.7625,-2.7625,-2.7625,-2.767,-2.7724,-2.8412,-2.9086,-2.9729,-3.0357,-3.1027,-3.1697,-3.2422,-3.3145,-3.3735,-3.3735,-3.4137,-3.4752,-1.1506,-1.1537,0.0,0.0,0.0,0.0,-1.3025,-1.3119,-1.3266,-1.3702,-1.3208,-1.2834,0.0,0.0,0.0,0.0,0.0,-1.1075,0.0,0.0,-1.1618,-1.2203,-1.2216,-1.1942,-1.1249,-1.1422,-1.1543,-1.1543,-1.0736,-1.0359,0.0,0.0,0.0,0.0,-0.9857,0.0,-1.0092,0.0,-1.0306,0.0,0.0,0.0,0.0,-1.0942,-1.1531,-1.1572,-1.1859,-1.1931,-1.1937,0.0,-1.2437,0.0,0.0,0.0,0.0,0.0,0.0,0.0,0.0,0.0,0.0,0.0,0.0,0.0,-1.8405,0.0,-1.9341,0.0,0.0,0.0,0.0,0.0,0.0,0.0,-2.1485,0.0,0.0,0.0,-2.1511,0.0,0.0,0.0,-2.1131,-2.0378,-1.988,-1.9823,-2.0129,-2.045,-2.0759,-2.1321,-2.1941,-2.2694,-2.2833,-2.3572,-2.4985,-2.5328,-2.6026,-2.7006,-2.738,-2.7625,-2.7625,-2.7625,-2.7625,-2.7655,-2.8308,-2.8966,-2.9624,-3.0253,-3.0911,-3.1524,-3.1853,-3.2367,-3.3039,-3.3039,-3.3684,-3.4576,-1.1742,0.0,0.0,0.0,0.0,0.0,0.0,0.0,0.0,0.0,0.0,0.0,-1.3127,-1.251,0.0,0.0,-1.0262,-1.0222,0.0,0.0,-1.1046,0.0,0.0,0.0,0.0,-1.1398,-1.1552,-1.1552,-1.0828,-1.0391,0.0,0.0,0.0,0.0,0.0,-0.9894,-1.0183,0.0,0.0,-1.0218,-1.0738,-1.0657,-1.0271,-1.1552,-1.2157,-1.2305,-1.2305,-1.2305,-1.2305,-1.2378,-1.2826,-1.3273,-1.2673,-1.3112,-1.384,0.0,0.0,0.0,-1.6464,0.0,0.0,0.0,0.0,0.0,0.0,0.0,0.0,0.0,0.0,0.0,0.0,0.0,-2.2123,-2.2123,0.0,-2.1704,0.0,-2.2455,0.0,0.0,0.0,0.0,0.0,-2.0345,-1.9728,-2.0193,-1.958,-1.9587,-2.0459,-2.0696,-2.1224,-2.2128,-2.1866,-2.2489,-2.408,-2.4278,-2.4962,-2.6,-2.6878,-2.7306,-2.7306,-2.7524,-2.7625,-2.7655,-2.8098,-2.8801,-2.9609,-3.0058,-3.0761,-3.1482,-3.1482,-3.1853,-3.2272,-3.2272,-3.3024,-3.4037,-1.2476,-1.2228,0.0,0.0,0.0,0.0,0.0,0.0,0.0,0.0,0.0,0.0,0.0,0.0,0.0,0.0,0.0,-0.652,-0.785,0.0,-0.9036,0.0,0.0,-1.1199,0.0,0.0,-1.1397,-1.1397,-1.0801,0.0,0.0,0.0,0.0,0.0,0.0,-0.9453,-0.9685,-1.0067,-1.0738,-1.1632,-1.1484,-1.1706,-1.215,0.0,-1.1781,-1.2305,-1.2305,-1.2305,-1.2305,-1.2526,-1.2746,-1.2973,-1.3119,-1.3046,0.0,0.0,0.0,0.0,0.0,-1.5833,-1.6044,-1.695,0.0,0.0,0.0,0.0,-1.9341,0.0,0.0,0.0,0.0,-2.1663,-2.1925,-2.1925,-2.2285,0.0,0.0,0.0,0.0,0.0,0.0,0.0,0.0,-2.2027,-2.1619,-2.1368,-2.0765,-2.0248,-1.9875,-2.0459,-2.0795,-2.0845,-2.139,-2.2048,-2.2734,-2.3335,-2.3931,-2.4565,-2.5916,-2.6563,-2.6563,-2.7255,-2.7625,-2.7625,-2.764,-2.8404,-2.9579,-2.9609,-3.0372,-3.1482,-3.1482,-3.1524,-3.1539,-3.1539,-3.2007,-3.2641,0.0,0.0,0.0,0.0,0.0,0.0,0.0,-1.3267,0.0,0.0,0.0,0.0,0.0,-0.9654,-0.8827,0.0,0.0,-0.7455,-0.7752,-0.8937,0.0,0.0,0.0,-1.1483,0.0,0.0,0.0,0.0,0.0,0.0,0.0,0.0,0.0,0.0,0.0,-0.9834,0.0,0.0,0.0,0.0,0.0,-1.1335,-1.1558,0.0,-1.215,-1.2305,-1.2305,-1.2305,-1.2305,-1.2378,-1.2599,-1.29,-1.2673,-1.29,-1.3346,-1.3615,-1.3753,-1.397,-1.4824,-1.4681,-1.4609,-1.5965,-1.6035,-1.6237,-1.8094,0.0,0.0,0.0,0.0,0.0,0.0,-2.1737,-2.1987,-2.2173,-2.2359,-2.2726,0.0,0.0,0.0,0.0,0.0,0.0,0.0,0.0,-2.0964,-2.1368,-2.0092,-1.9426,-1.9759,-2.0003,-2.0346,-2.0795,-2.0584,-2.0947,-2.2014,-2.2644,-2.3268,-2.3958,-2.5678,-2.651,-2.651,-2.7255,-2.7625,-2.7625,-2.7625,-2.8338,-2.9579,-2.9579,-3.0357,-3.1482,-3.1482,-3.1482,-3.1482,-3.1482,-3.1951,-3.2641,-1.3561,0.0,0.0,0.0,0.0,0.0,0.0,0.0,0.0,0.0,-1.1763,0.0,-1.0106,0.0,-0.8975,0.0,-0.7685,-0.7569,-0.7953,-0.8622,0.0,-0.888,-1.0253,0.0,0.0,0.0,0.0,0.0,0.0,-1.0319,0.0,0.0,0.0,0.0,0.0,0.0,-1.0712,0.0,-1.1121,0.0,0.0,-1.1558,0.0,0.0,-1.215,-1.1929,-1.2224,-1.2305,-1.2305,-1.2305,-1.2452,-1.2673,-1.2378,-1.2673,-1.3046,-1.3105,-1.3244,-1.3528,-1.4034,-1.389,-1.3818,-1.5046,-1.5117,-1.5455,-1.7531,-1.8152,-1.8633,0.0,0.0,0.0,0.0,-2.1049,-2.1788,-2.1592,-2.2002,-2.2604,0.0,-2.3839,0.0,0.0,0.0,0.0,0.0,-2.212,-2.1085,-2.1368,-1.9877,-1.919,-1.9747,-1.9798,-2.0003,-2.0446,-2.0055,-2.0181,-2.1037,-2.1629,-2.2233,-2.2871,-2.4583,-2.568,-2.6122,-2.6878,-2.7357,-2.7625,-2.7625,-2.8338,-2.9579,-2.9579,-3.0357,-3.1482,-3.1482,-3.1482,-3.1482,-3.1482,-3.1796,-3.2327,0.0,0.0,0.0,0.0,-1.3048,0.0,0.0,0.0,-1.2972,0.0,-1.1934,-1.1398,-0.9943,-0.8816,-0.8043,-0.8003,-0.6938,-0.6783,-0.8032,-0.7888,0.0,0.0,-0.8653,-0.8556,-0.7484,0.0,0.0,0.0,0.0,0.0,0.0,0.0,0.0,0.0,-0.9096,0.0,-1.0506,-1.0495,-1.1194,-1.2305,-1.2305,-1.2305,-1.2224,-1.2305,-1.1781,-1.1186,-1.2003,-1.2305,-1.2305,-1.2305,-1.2305,-1.2305,-1.2305,-1.2305,-1.2305,-1.2305,-1.2305,-1.2445,-1.3244,-1.3462,-1.36,-1.4386,-1.4681,-1.5242,-1.6688,-1.7229,-1.7629,-1.8026,-1.941,0.0,0.0,-1.9543,-2.125,-2.0287,-2.1381,-2.2604,-2.3017,-2.3497,-2.3852,0.0,0.0,0.0,0.0,-2.2828,-2.1927,-2.1446,-2.0139,-1.9503,0.0,-1.985,-1.985,-1.9798,-1.9798,-1.9798,-1.9798,-2.0376,-2.0941,-2.1493,-2.2786,-2.4077,-2.5342,-2.6122,-2.6826,-2.7575,-2.7575,-2.8338,-2.9579,-2.9579,-3.0357,-3.1482,-3.1482,-3.1482,-3.1482,-3.1482,-3.1482,-3.1582,-1.3724,-1.3737,-1.3776,0.0,-1.3251,-1.3212,0.0,0.0,0.0,0.0,-0.9817,-0.8741,-0.7414,-0.7006,-0.6761,-0.6795,-0.649,0.0,0.0,0.0,0.0,-0.6858,-0.8407,-0.87,-0.7561,-0.885,0.0,-0.9409,0.0,0.0,-0.9989,0.0,0.0,0.0,0.0,0.0,-1.0674,-1.0567,-1.1194,-1.2305,-1.2305,-1.1929,-1.1484,-1.2077,-1.1781,-1.1186,-1.2003,-1.2305,-1.2305,-1.2305,-1.2305,-1.2305,-1.2305,-1.2305,-1.2305,-1.2305,-1.2305,-1.2378,-1.2519,-1.2592,-1.2806,-1.3608,-1.3818,-1.4243,-1.5553,-1.5896,-1.6166,-1.678,-1.726,-1.7803,-1.8502,-1.9194,-2.0073,-2.1428,-2.2211,-2.2739,-2.3078,0.0,0.0,-2.4176,0.0,0.0,-2.4123,-2.3057,-2.2193,-2.1822,-2.0822,-2.0144,-1.9798,-2.0156,-2.0207,-1.9798,-1.9798,-1.9798,-1.9798,-2.0376,-2.0941,-2.1493,-2.2786,-2.3811,-2.4624,-2.5342,-2.6054,-2.6774,-2.6774,-2.7836,-2.9579,-2.9579,-3.0357,-3.1482,-3.1482,-3.1482,-3.1482,-3.1482,-3.1482,-3.1524,-1.3652,0.0,0.0,-1.3737,0.0,0.0,-1.3033,-1.2667,0.0,-1.0243,-0.9447,0.0,-0.7263,-0.669,-0.6454,-0.6454,-0.6454,0.0,-0.7346,0.0,0.0,-0.735,-0.7926,-0.7889,-0.7164,-0.8128,0.0,-0.8882,0.0,0.0,-0.9942,0.0,0.0,0.0,0.0,-0.9433,0.0,-1.0751,-1.1254,-1.1872,-1.1745,-1.1626,0.0,-1.1626,-1.1626,-1.1706,-1.215,-1.2305,-1.2305,-1.2305,-1.2305,-1.2305,-1.2305,-1.2305,-1.2305,-1.2305,-1.2305,-1.2305,-1.2305,-1.2305,-1.2445,-1.2886,-1.2952,-1.331,-1.4498,-1.4838,-1.498,-1.5325,-1.6018,-1.6417,-1.6243,-1.7678,-1.9597,-2.1639,-2.2371,-2.2739,0.0,0.0,0.0,0.0,-2.3412,0.0,-2.3959,-2.2589,-2.185,-2.2115,-2.147,-2.1106,-2.1238,-2.0965,-2.0784,-2.0669,-2.013,-1.9798,-1.9798,-2.0376,-2.0941,-2.1493,-2.2475,-2.3371,-2.4292,-2.4738,-2.5508,-2.651,-2.651,-2.7676,-2.9579,-2.9579,-3.0357,-3.1482,-3.1482,-3.1482,-3.1482,-3.1482,-3.1482,-3.1482,-1.3568,0.0,0.0,0.0,0.0,0.0,0.0,-1.2073,0.0,-0.9886,0.0,-0.9183,-0.8032,-0.7195,-0.6702,-0.6702,0.0,-0.7166,-0.8392,-0.7351,-0.7253,-0.8396,-0.7348,-0.6702,-0.6702,-0.7156,-0.7726,0.0,0.0,0.0,0.0,0.0,0.0,0.0,0.0,0.0,0.0,-1.0746,-1.1182,-1.1159,-1.0744,-1.1093,-1.1774,-1.0938,-1.1168,-1.1922,-1.2077,-1.2224,-1.2305,-1.2305,-1.2305,-1.2305,-1.2305,-1.2305,-1.2305,-1.2305,-1.2305,-1.2305,-1.2305,-1.2305,-1.2305,-1.2305,-1.2305,-1.2586,-1.3578,-1.3924,-1.3988,-1.3787,-1.4972,-1.5246,-1.3004,-1.5904,-1.9259,-2.1037,-2.1678,0.0,0.0,0.0,0.0,0.0,0.0,0.0,-2.3692,-2.2161,-2.1546,-2.243,-2.2102,-2.2205,-2.2789,-2.1799,-2.1329,-2.1548,-2.0476,-1.9911,-1.9911,-2.0489,-2.1054,-2.1606,-2.2083,-2.2949,-2.4118,-2.4118,-2.4951,-2.6336,-2.6336,-2.7569,-2.9579,-2.9579,-3.0357,-3.1482,-3.1482,-3.1482,-3.1482,-3.1482,-3.1482,-3.1482,0.0,0.0,0.0,0.0,0.0,-1.1155,-1.0412,-0.9649,-0.9052,-0.8901,-0.7959,-0.7224,-0.695,-0.6781,-0.6702,-0.6702,-0.6702,0.0,0.0,0.0,0.0,-0.7069,-0.6795,-0.6702,-0.6702,-0.7293,-0.7797,0.0,0.0,0.0,-0.945,0.0,0.0,0.0,0.0,0.0,-0.9304,-1.0121,0.0,-0.9829,-0.9611,-0.9669,-0.9825,-0.9593,-0.9669,-0.99,-1.0789,-1.162,-1.2305,-1.2305,-1.2305,-1.2305,-1.2305,-1.2305,-1.2305,-1.2305,-1.2305,-1.2305,-1.2305,-1.2305,-1.2305,-1.2305,-1.2305,-1.2378,-1.2512,-1.2659,-1.2652,-1.2586,-1.2799,-1.3288,-1.3988,-1.5904,-1.7755,-1.9017,-1.8624,0.0,0.0,0.0,0.0,0.0,0.0,-2.085,0.0,-2.3527,0.0,0.0,0.0,-2.2602,-2.1497,-2.1771,-2.1378,-2.0207,-2.0418,-2.0567,-2.0567,-2.1066,-2.1619,-2.2171,-2.2272,-2.2657,-2.3305,-2.3305,-2.415,-2.5563,-2.5563,-2.7107,-2.9579,-2.9579,-3.0357,-3.1482,-3.1482,-3.1482,-3.1482,-3.1482,-3.1482,-3.1482,0.0,0.0,0.0,0.0,0.0,0.0,0.0,-0.846,-0.7964,-0.8462,-0.8025,-0.764,-0.7808,-0.7393,-0.7048,-0.7048,-0.7048,-0.7014,-0.6936,-0.6929,-0.6929,-0.6929,-0.6929,-0.6929,-0.6929,-0.7097,-0.7561,-0.8253,0.0,-0.9026,-0.9461,-0.9181,0.0,0.0,0.0,-0.8185,0.0,0.0,-0.9318,-0.9131,-0.8852,-0.9018,-0.9386,-0.8845,-0.8933,-0.9372,-0.982,-1.0346,-1.0875,-1.1929,-1.2305,-1.2305,-1.2305,-1.2305,-1.2305,-1.2305,-1.2305,-1.2305,-1.2305,-1.2305,-1.2305,-1.2305,-1.2305,-1.2305,-1.2305,-1.2305,-1.2305,-1.2305,-1.2305,-1.2725,-1.4132,-1.5704,-1.694,-1.7571,-1.8024,0.0,0.0,0.0,0.0,0.0,0.0,0.0,0.0,0.0,0.0,0.0,0.0,0.0,-2.2037,-2.2537,-2.2485,-2.1663,-2.1297,-2.1091,-2.1091,-2.1644,-2.2046,-2.2309,-2.2598,-2.2874,-2.3078,-2.3078,-2.3695,-2.4865,-2.5118,-2.6651,-2.9072,-3.0131,-3.0971,-3.1482,-3.1482,-3.1482,-3.1482,-3.1482,-3.1482,-3.1482,0.0,-1.3027,0.0,0.0,-1.0461,-0.95,-0.8947,-0.8048,-0.7605,-0.8047,-0.822,-0.8352,-0.8485,-0.7869,-0.7421,-0.7421,-0.7421,-0.7356,-0.72,-0.719,-0.7173,-0.7143,-0.7139,-0.7139,-0.7139,-0.7031,-0.7292,0.0,0.0,-0.8656,-0.9274,-0.9033,-0.8778,0.0,0.0,0.0,-0.767,-0.8303,-0.853,-0.8344,-0.7994,-0.832,-0.8815,-0.8024,-0.8151,-0.8755,-0.8985,-0.9032,-0.9221,-1.1025,-1.1774,-1.2003,-1.2224,-1.2305,-1.2305,-1.2305,-1.2305,-1.2305,-1.2305,-1.2305,-1.2305,-1.2305,-1.2305,-1.2305,-1.2305,-1.2305,-1.2305,-1.2305,-1.2305,-1.2725,-1.406,-1.5018,-1.5774,-1.6122,-1.7067,-1.7388,-1.6542,0.0,0.0,0.0,0.0,0.0,-2.0688,-2.2491,0.0,0.0,0.0,-2.3487,-2.2716,-2.3063,-2.3218,-2.2949,-2.2232,-2.1868,-2.1924,-2.2266,-2.2485,-2.2498,-2.2924,-2.3078,-2.3078,-2.3078,-2.3543,-2.4319,-2.484,-2.6403,-2.8756,-3.073,-3.1482,-3.1482,-3.1482,-3.1482,-3.1482,-3.1482,-3.1482,-3.1497,0.0,0.0,0.0,0.0,0.0,-0.914,-0.9229,-0.8314,-0.7567,-0.7633,-0.764,-0.7653,-0.7667,-0.767,-0.758,-0.758,-0.758,-0.7512,-0.736,-0.735,-0.7288,-0.7146,-0.7139,-0.7139,-0.7139,-0.7129,-0.7305,0.0,0.0,-0.8281,-0.8398,-0.8547,-0.8354,-0.7781,-0.8106,-0.7839,-0.7243,-0.7595,-0.7432,-0.7083,-0.6927,-0.6854,-0.6922,-0.684,-0.6827,-0.6846,-0.7786,-0.8074,-0.8084,-0.9221,-1.019,-1.1087,-1.1996,-1.2305,-1.2305,-1.2305,-1.2305,-1.2305,-1.2305,-1.2305,-1.2305,-1.2305,-1.2305,-1.2305,-1.2305,-1.2305,-1.2305,-1.2305,-1.2305,-1.2725,-1.406,-1.3426,-1.307,-1.4339,-1.3628,-1.2931,-1.2785,0.0,-1.3404,-1.5047,0.0,0.0,-1.8339,-1.8833,-1.9233,-1.9688,-2.2063,-2.318,-2.2311,-2.2502,-2.2316,-2.1516,-2.2528,-2.3093,-2.3191,-2.3114,-2.3002,-2.3002,-2.3053,-2.3078,-2.3078,-2.3078,-2.3543,-2.4319,-2.484,-2.6663,-2.9348,-3.0865,-3.1482,-3.1482,-3.1482,-3.1482,-3.1482,-3.1482,-3.1482,-3.1556,0.0,0.0,0.0,-0.9983,-0.9374,-0.8863,-0.8475,-0.8006,-0.776,-0.7851,-0.7709,-0.7631,-0.7719,-0.7726,-0.7726,-0.7726,-0.7726,-0.7665,-0.7516,-0.7509,-0.7441,-0.7285,-0.7278,-0.7238,-0.7143,-0.7139,-0.7231,0.0,0.0,-0.8165,-0.8442,-0.8251,-0.7942,-0.7454,-0.7616,-0.7435,-0.7182,-0.7274,-0.7225,-0.7051,-0.699,-0.6912,-0.6837,-0.6837,-0.6742,-0.6692,-0.7093,-0.7148,-0.7163,-0.8173,-0.9168,-1.0045,-1.1093,-1.1019,-1.0726,-1.1929,-1.1842,-1.1539,-1.215,-1.2305,-1.2305,-1.2305,-1.2305,-1.2305,-1.2305,-1.2305,-1.2305,-1.2305,-1.2305,-1.2445,-1.3004,-1.3222,-1.3295,-1.315,-1.3222,-1.3084,-1.2372,0.0,0.0,-1.3266,0.0,0.0,0.0,-1.778,-1.8739,-1.9051,0.0,-2.1801,-2.2266,-2.1989,-2.1884,-2.2055,-2.1801,-2.1692,-2.174,-2.2189,-2.2384,-2.2384,-2.2884,-2.3078,-2.3078,-2.3078,-2.3624,-2.4666,-2.5694,-2.7317,-2.9228,-3.0348,-3.1087,-3.1482,-3.1482,-3.1482,-3.1482,-3.1482,-3.1482,-3.1616,-1.0509,-1.0365,-0.9972,-0.9072,-0.8813,-0.856,-0.7976,-0.7879,-0.7916,-0.8024,-0.7858,-0.7767,-0.7868,-0.7879,-0.7879,-0.7879,-0.7879,-0.7818,-0.7672,-0.7662,-0.7594,-0.7444,-0.7397,-0.7319,-0.721,-0.7163,-0.7231,-0.7415,-0.7588,-0.794,-0.8285,-0.7997,-0.7707,-0.7344,-0.7286,-0.7246,-0.7163,-0.7095,-0.7139,-0.7139,-0.7139,-0.7082,-0.699,-0.699,-0.6898,-0.6766,-0.6766,-0.6668,-0.6697,-0.7415,-0.8011,-0.8688,-0.9986,-0.9895,-0.9599,-1.1025,-1.0944,-1.049,-1.1248,-1.1397,-1.1397,-1.1397,-1.1397,-1.1397,-1.1397,-1.1626,-1.1922,-1.2224,-1.2305,-1.2305,-1.2305,-1.2945,-1.323,-1.2445,-1.3011,-1.323,-1.2445,-1.2305,0.0,-1.3063,-1.4419,-1.5356,-1.5356,-1.6742,0.0,0.0,0.0,-1.9553,-2.1164,-2.0818,-2.0963,-2.1944,-2.1232,-2.0876,-2.0928,-2.1542,-2.1877,-2.1877,-2.2702,-2.3078,-2.3078,-2.3314,-2.3916,-2.4845,-2.6322,-2.7568,-2.8684,-2.9827,-3.0644,-3.1161,-3.1409,-3.1482,-3.1482,-3.1482,-3.1601,-3.1988,-0.8804,-0.8756,-0.8683,-0.7907,-0.7936,-0.8035,-0.8035,-0.8035,-0.8038,-0.8038,-0.8035,-0.8035,-0.8035,-0.8035,-0.8035,-0.8035,-0.8035,-0.797,-0.7818,-0.7811,-0.7746,-0.7604,-0.7451,-0.737,-0.7366,-0.7217,-0.7139,-0.7139,-0.7415,-0.7507,-0.7507,-0.7764,-0.7764,-0.7499,-0.7503,-0.7319,-0.7136,-0.7139,-0.7139,-0.7139,-0.7139,-0.7139,-0.7139,-0.7139,-0.7051,-0.6926,-0.6926,-0.6827,-0.6698,-0.6698,-0.6597,-0.6839,-0.8751,-0.9296,-0.9296,-0.9296,-0.9296,-0.9296,-0.9296,-0.9372,-0.9372,-0.9372,-0.9372,-0.9372,-0.9372,-1.0115,-1.1087,-1.2077,-1.2305,-1.2305,-1.2305,-1.2298,-1.2298,-1.2305,-1.2298,-1.2298,-1.2305,-1.2305,0.0,-1.4782,-1.4977,-1.4985,-1.4985,-1.5047,0.0,0.0,-1.5379,-1.6218,-1.8507,-1.875,-1.935,-2.0359,-2.1088,-2.1537,-2.1711,-2.183,-2.1877,-2.1877,-2.2702,-2.3078,-2.309,-2.3728,-2.4293,-2.4845,-2.6322,-2.7195,-2.7855,-2.9566,-3.0329,-3.0389,-3.1219,-3.1482,-3.1482,-3.1482,-3.1943,-3.2602,-0.8282,-0.8315,-0.8424,-0.8227,-0.8245,-0.834,-0.834,-0.834,-0.834,-0.834,-0.834,-0.8306,-0.8208,-0.8102,-0.8038,-0.8038,-0.8038,-0.8018,-0.797,-0.7967,-0.7899,-0.775,-0.7695,-0.7577,-0.7373,-0.7322,-0.7248,-0.7139,-0.7143,-0.7231,-0.7231,-0.7503,-0.7503,-0.7231,-0.7231,-0.7143,-0.7139,-0.7139,-0.7139,-0.7139,-0.7139,-0.7139,-0.7139,-0.7139,-0.7112,-0.7071,-0.7071,-0.698,-0.6858,-0.6858,-0.6756,-0.6763,-0.724,-0.734,-0.7553,-0.8922,-0.8846,-0.8466,-0.9145,-0.9296,-0.9296,-0.9296,-0.9296,-0.9296,-0.9296,-0.9523,-1.0045,-1.1093,-1.1316,-1.1465,-1.215,-1.2305,-1.2305,-1.2305,-1.2305,-1.2305,-1.2305,-1.2305,-1.2512,-1.3063,-1.3128,-1.3128,-1.3128,-1.3128,-1.3807,-1.5409,-1.5443,-1.6652,-1.9619,-1.8777,-1.8829,-2.0083,-1.9498,-1.9135,-1.9191,-1.9803,-2.0398,-2.1037,-2.129,-2.1918,-2.288,-2.4027,-2.4845,-2.5385,-2.626,-2.7061,-2.7736,-2.8298,-2.8876,-2.9504,-3.0329,-3.0703,-3.0777,-3.1278,-3.1943,-3.2617,-0.8204,-0.8286,-0.835,-0.835,-0.8425,-0.8482,-0.8482,-0.8482,-0.8482,-0.8482,-0.8482,-0.8448,-0.836,-0.8262,-0.816,-0.8048,-0.8038,-0.8038,-0.8038,-0.8038,-0.7997,-0.7899,-0.7841,-0.7726,-0.7539,-0.7428,-0.7322,-0.7227,-0.717,-0.7139,-0.7139,-0.7234,-0.7234,-0.7139,-0.7139,-0.7139,-0.7139,-0.7139,-0.7139,-0.7139,-0.7139,-0.7139,-0.7139,-0.7139,-0.7139,-0.7139,-0.7139,-0.7085,-0.7007,-0.7007,-0.6909,-0.677,-0.6675,-0.6542,-0.6637,-0.7821,-0.7706,-0.7403,-0.8012,-0.8161,-0.8161,-0.8161,-0.8161,-0.8237,-0.8613,-0.877,-0.8993,-1.004,-1.0265,-1.0565,-1.1545,-1.1768,-1.1848,-1.2224,-1.2305,-1.2305,-1.2305,-1.2305,-1.2579,-1.3201,-1.3339,-1.3339,-1.3339,-1.3339,-1.3606,-1.4277,-1.4624,-1.5852,-1.8258,-1.8188,-1.8459,-1.9246,-1.8442,-1.8008,-1.8008,-1.8844,-1.9562,-2.0139,-2.0975,-2.1882,-2.275,-2.4357,-2.5285,-2.5624,-2.6214,-2.6782,-2.7297,-2.7604,-2.8051,-2.862,-2.9442,-3.0011,-3.0418,-3.11,-3.205,-3.2976,-0.8482,-0.8489,-0.8499,-0.8499,-0.8506,-0.8513,-0.8513,-0.8513,-0.8513,-0.8513,-0.8513,-0.8509,-0.8499,-0.8499,-0.8384,-0.8096,-0.8062,-0.8052,-0.8038,-0.8038,-0.8038,-0.8038,-0.7902,-0.7821,-0.7811,-0.7543,-0.7394,-0.737,-0.7217,-0.7139,-0.7139,-0.7139,-0.7139,-0.7139,-0.7139,-0.7139,-0.7139,-0.7139,-0.7139,-0.7139,-0.7139,-0.7139,-0.7139,-0.7139,-0.7139,-0.7139,-0.7139,-0.7139,-0.7139,-0.7139,-0.7051,-0.6943,-0.6932,-0.6831,-0.6661,-0.6376,-0.6291,-0.6291,-0.6291,-0.6291,-0.6291,-0.6291,-0.6285,-0.6578,-0.7484,-0.7706,-0.8008,-0.8993,-0.9221,-0.9523,-1.049,-1.0783,-1.1087,-1.207,-1.2224,-1.2305,-1.2305,-1.2305,-1.2924,-1.464,-1.4844,-1.4844,-1.4844,-1.4844,-1.4165,-1.2645,-1.3295,-1.4299,-1.5359,-1.7271,-1.8188,-1.8008,-1.8008,-1.8008,-1.8008,-1.8787,-1.9187,-1.9285,-2.1499,-2.2621,-2.2663,-2.4649,-2.5544,-2.5619,-2.6226,-2.6533,-2.6589,-2.7284,-2.7604,-2.767,-2.8556,-2.938,-3.0205,-3.0869,-3.2108,-3.3513,-0.8482,-0.8577,-0.8655,-0.8655,-0.8754,-0.8828,-0.8828,-0.8828,-0.8828,-0.8828,-0.8828,-0.8784,-0.8669,-0.8655,-0.8581,-0.8394,-0.8279,-0.8167,-0.8045,-0.8038,-0.8038,-0.8038,-0.8004,-0.7929,-0.7814,-0.7743,-0.7597,-0.737,-0.7217,-0.7139,-0.7139,-0.7139,-0.7139,-0.7139,-0.7139,-0.7139,-0.7139,-0.7139,-0.7139,-0.7139,-0.7139,-0.7139,-0.7139,-0.7139,-0.7139,-0.7139,-0.7139,-0.7139,-0.7139,-0.7139,-0.7115,-0.7071,-0.6963,-0.6905,-0.6837,-0.6651,-0.6597,-0.6597,-0.6597,-0.6597,-0.6597,-0.6597,-0.6508,-0.6472,-0.6592,-0.6644,-0.6945,-0.7936,-0.8161,-0.8466,-0.9442,-1.0265,-1.0864,-1.1087,-1.1768,-1.2305,-1.2305,-1.2305,-1.2439,-1.2924,-1.2924,-1.2924,-1.2924,-1.2924,-1.3469,-1.4678,-1.4952,-1.5791,-1.7465,-1.8061,-1.8188,-1.8008,-1.8008,-1.8008,-1.8008,-1.8202,-1.8428,-1.8825,-2.0651,-2.1643,-2.1745,-2.3676,-2.4723,-2.5177,-2.6114,-2.6533,-2.6533,-2.6714,-2.6782,-2.6837,-2.767,-2.8117,-2.843,-2.9665,-3.1133,-3.2576,-0.8693,-0.8757,-0.8815,-0.8815,-0.8882,-0.894,-0.894,-0.894,-0.894,-0.894,-0.894,-0.8906,-0.8825,-0.8815,-0.8754,-0.8601,-0.8391,-0.8235,-0.815,-0.8079,-0.8038,-0.8038,-0.8038,-0.8001,-0.7916,-0.7845,-0.7668,-0.737,-0.7288,-0.721,-0.7139,-0.7139,-0.7139,-0.7139,-0.7139,-0.7139,-0.7139,-0.7139,-0.7139,-0.7139,-0.7139,-0.7139,-0.7139,-0.7139,-0.7139,-0.7139,-0.7139,-0.7139,-0.7139,-0.7139,-0.7139,-0.7126,-0.7051,-0.7024,-0.701,-0.6926,-0.6807,-0.6702,-0.6702,-0.6702,-0.6702,-0.6702,-0.6637,-0.6556,-0.6478,-0.6407,-0.6513,-0.7133,-0.715,-0.7403,-0.8466,-0.9064,-0.9734,-1.0634,-1.1987,-1.2709,-1.2311,-1.2991,-1.3241,-1.2385,-1.2305,-1.2305,-1.2305,-1.2305,-1.2778,-1.3935,-1.407,-1.4703,-1.6104,-1.6173,-1.678,-1.794,-1.8008,-1.8008,-1.8008,-1.8193,-1.8506,-1.8936,-2.0505,-2.136,-2.1439,-2.3093,-2.4295,-2.5016,-2.5594,-2.6094,-2.6533,-2.6533,-2.6533,-2.6521,-2.6973,-2.7507,-2.8172,-2.9295,-3.062,-3.2051,-0.894,-0.894,-0.894,-0.894,-0.894,-0.894,-0.894,-0.894,-0.894,-0.894,-0.894,-0.894,-0.894,-0.894,-0.8886,-0.8757,-0.8492,-0.8319,-0.8275,-0.8126,-0.8038,-0.8038,-0.8038,-0.8038,-0.8038,-0.7889,-0.7689,-0.7438,-0.7417,-0.7326,-0.7177,-0.7177,-0.7163,-0.7139,-0.7139,-0.7139,-0.7139,-0.7139,-0.7139,-0.7139,-0.7139,-0.7139,-0.7139,-0.7139,-0.7139,-0.7139,-0.7139,-0.7139,-0.7139,-0.7139,-0.7139,-0.7139,-0.7139,-0.7139,-0.7139,-0.7139,-0.6963,-0.6766,-0.6766,-0.6766,-0.6763,-0.6742,-0.6736,-0.6729,-0.6705,-0.66,-0.6508,-0.6508,-0.641,-0.6627,-0.7447,-0.7748,-0.8498,-1.0674,-1.214,-1.3028,-1.2742,-1.377,-1.4022,-1.2472,-1.2305,-1.2305,-1.2305,-1.2305,-1.2305,-1.2305,-1.2305,-1.2732,-1.3673,-1.3725,-1.496,-1.7536,-1.7754,-1.7891,-1.8105,-1.8525,-1.8955,-1.9385,-2.0604,-2.1177,-2.1334,-2.2665,-2.3745,-2.4564,-2.4707,-2.537,-2.6245,-2.6245,-2.6383,-2.6533,-2.6622,-2.7314,-2.8441,-2.9136,-3.0241,-3.1513,-0.894,-0.894,-0.894,-0.894,-0.894,-0.894,-0.894,-0.894,-0.894,-0.894,-0.894,-0.894,-0.894,-0.894,-0.893,-0.8906,-0.8743,-0.8537,-0.8286,-0.8126,-0.8038,-0.8038,-0.8038,-0.8038,-0.8038,-0.7889,-0.7787,-0.7743,-0.7624,-0.7485,-0.7336,-0.7336,-0.7265,-0.7139,-0.7139,-0.7139,-0.7139,-0.7139,-0.7139,-0.7139,-0.7139,-0.7139,-0.7139,-0.7139,-0.7139,-0.7139,-0.7139,-0.7139,-0.7139,-0.7139,-0.7139,-0.7139,-0.7139,-0.7139,-0.7139,-0.7139,-0.7109,-0.7071,-0.7071,-0.7071,-0.7044,-0.6922,-0.6895,-0.6861,-0.6729,-0.6681,-0.6664,-0.6664,-0.6647,-0.6671,-0.6701,-0.7379,-0.8838,-1.1386,-1.1502,-1.2006,-1.423,-1.3505,-1.264,-1.2305,-1.2305,-1.2305,-1.2305,-1.2305,-1.2305,-1.2305,-1.2305,-1.2732,-1.3673,-1.3933,-1.4677,-1.59,-1.6528,-1.7376,-1.8465,-1.8965,-1.9394,-1.9814,-2.0023,-2.0325,-2.0767,-2.178,-2.2328,-2.2478,-2.3368,-2.4337,-2.5229,-2.5229,-2.5734,-2.6584,-2.6967,-2.7276,-2.7594,-2.8632,-2.9628,-3.0645,-0.894,-0.894,-0.894,-0.894,-0.894,-0.894,-0.894,-0.894,-0.894,-0.894,-0.894,-0.894,-0.894,-0.894,-0.894,-0.894,-0.8025,-0.746,-0.734,-0.7875,-0.8126,-0.8041,-0.8038,-0.8038,-0.8038,-0.797,-0.7892,-0.7811,-0.7746,-0.7638,-0.7495,-0.7495,-0.7414,-0.7265,-0.7265,-0.7217,-0.7139,-0.7139,-0.7139,-0.7139,-0.7139,-0.7139,-0.7139,-0.7139,-0.7139,-0.7139,-0.7139,-0.7139,-0.7139,-0.7139,-0.7139,-0.7139,-0.7139,-0.7139,-0.7139,-0.7139,-0.7139,-0.7139,-0.7139,-0.7139,-0.7126,-0.7058,-0.7044,-0.7024,-0.6953,-0.6878,-0.6824,-0.6824,-0.6759,-0.6678,-0.6607,-0.6997,-0.7866,-0.9662,-1.0453,-1.1126,-1.191,-1.2603,-1.2674,-1.1651,-1.1996,-1.2305,-1.2305,-1.2445,-1.2545,-1.2545,-1.2699,-1.2939,-1.339,-1.3607,-1.3831,-1.4278,-1.6201,-1.7851,-1.9316,-1.9521,-1.9834,-2.0264,-2.0264,-2.0371,-2.0644,-2.1078,-2.1517,-2.2027,-2.2478,-2.3294,-2.4264,-2.4791,-2.5456,-2.6233,-2.7026,-2.7645,-2.8235,-2.8737,-2.9415,-3.0085,-0.838,-0.8712,-0.8826,-0.8491,-0.838,-0.8266,-0.7931,-0.7931,-0.7931,-0.7931,-0.7931,-0.7931,-0.7931,-0.7931,-0.7931,-0.7931,-0.673,-0.6011,-0.5988,-0.6796,-0.7355,-0.7494,-0.7856,-0.8038,-0.8038,-0.8038,-0.798,-0.7865,-0.7865,-0.779,-0.7648,-0.7648,-0.7567,-0.7424,-0.7424,-0.736,-0.7244,-0.721,-0.7193,-0.719,-0.7153,-0.7139,-0.7139,-0.7139,-0.7139,-0.7139,-0.7139,-0.7139,-0.7139,-0.7139,-0.7139,-0.7139,-0.7139,-0.7139,-0.7139,-0.7139,-0.7139,-0.7139,-0.7139,-0.7139,-0.7139,-0.7139,-0.7139,-0.7139,-0.7139,-0.7054,-0.6976,-0.6976,-0.6885,-0.6793,-0.6759,-0.6753,-0.7242,-0.8617,-0.9649,-1.0269,-1.0169,-1.1642,-1.2291,-1.1082,-1.1658,-1.2205,-1.2512,-1.2719,-1.2852,-1.2852,-1.3073,-1.3213,-1.3213,-1.3273,-1.342,-1.3801,-1.5963,-1.7904,-1.9525,-1.963,-1.9995,-2.0566,-2.0566,-2.0566,-2.0566,-2.0566,-2.1011,-2.1659,-2.1659,-2.2253,-2.3231,-2.4089,-2.495,-2.5912,-2.6943,-2.7952,-2.895,-2.9089,-2.9415,-2.9792,-0.6813,-0.7931,-0.8491,-0.7146,-0.6813,-0.6366,-0.5027,-0.4804,-0.4804,-0.4804,-0.4804,-0.4804,-0.4804,-0.4804,-0.4804,-0.4804,-0.4688,-0.4543,-0.4361,-0.4454,-0.5022,-0.6092,-0.7302,-0.8038,-0.8038,-0.8038,-0.8035,-0.8021,-0.8021,-0.7943,-0.7794,-0.7794,-0.7719,-0.7584,-0.7584,-0.7577,-0.7556,-0.7414,-0.7353,-0.7343,-0.72,-0.7139,-0.7139,-0.7139,-0.7139,-0.7139,-0.7139,-0.7139,-0.7139,-0.7139,-0.7139,-0.7139,-0.7139,-0.7139,-0.7139,-0.7139,-0.7139,-0.7139,-0.7139,-0.7139,-0.7139,-0.7139,-0.7139,-0.7139,-0.7139,-0.7132,-0.7126,-0.7126,-0.7115,-0.7068,-0.6936,-0.6912,-0.7731,-1.0321,-0.9384,-0.9264,-1.1833,-1.0913,-1.0332,-1.1352,-1.1511,-1.1994,-1.3061,-1.3166,-1.3173,-1.3173,-1.32,-1.3213,-1.3213,-1.3467,-1.4131,-1.5457,-1.5499,-1.645,-1.8439,-1.8888,-1.9571,-2.0566,-2.0566,-2.0566,-2.0566,-2.0566,-2.0644,-2.0712,-2.0712,-2.1231,-2.2145,-2.2653,-2.4058,-2.591,-2.69,-2.7968,-2.9001,-2.9528,-2.9754,-2.9792,-0.5361,-0.5808,-0.6031,-0.5475,-0.5361,-0.514,-0.4582,-0.447,-0.447,-0.447,-0.447,-0.447,-0.447,-0.447,-0.447,-0.447,-0.3576,-0.3009,-0.299,-0.2086,-0.2577,-0.4654,-0.5273,-0.5924,-0.6731,-0.6731,-0.7132,-0.8038,-0.8038,-0.8011,-0.7953,-0.7953,-0.7381,-0.6475,-0.6475,-0.595,-0.5119,-0.508,-0.5064,-0.506,-0.4928,-0.4912,-0.4912,-0.4912,-0.5428,-0.6009,-0.6009,-0.6499,-0.7139,-0.7139,-0.7139,-0.7139,-0.7139,-0.7139,-0.7139,-0.7139,-0.7139,-0.7139,-0.7139,-0.7139,-0.7139,-0.7139,-0.7139,-0.7139,-0.7139,-0.7139,-0.7139,-0.7139,-0.7139,-0.7126,-0.7068,-0.7058,-0.7396,-0.8394,-0.7932,-0.7885,-0.883,-0.895,-0.9036,-0.9399,-1.0029,-1.0842,-1.2062,-1.2289,-1.2719,-1.34,-1.3654,-1.3754,-1.3754,-1.3861,-1.4129,-1.4734,-1.4622,-1.5524,-1.7695,-1.8559,-1.9204,-1.9599,-2.0245,-2.0566,-2.0566,-2.0566,-2.0566,-2.0566,-2.0566,-2.0947,-2.1597,-2.2356,-2.3527,-2.488,-2.5882,-2.6713,-2.7517,-2.8445,-2.8767,-2.8858,-0.3799,-0.4136,-0.4359,-0.3911,-0.3799,-0.3576,-0.3131,-0.3131,-0.3131,-0.3131,-0.3131,-0.3131,-0.3131,-0.3131,-0.3131,-0.3131,-0.2125,-0.1454,-0.1454,-0.0552,-0.0969,-0.3311,-0.3773,-0.4444,-0.5325,-0.5325,-0.5824,-0.6728,-0.6728,-0.6728,-0.6728,-0.6728,-0.6182,-0.5219,-0.5219,-0.4694,-0.3768,-0.365,-0.3641,-0.3637,-0.3615,-0.3607,-0.3607,-0.3607,-0.4141,-0.4835,-0.4835,-0.5619,-0.6641,-0.6641,-0.6915,-0.7285,-0.7285,-0.7285,-0.7285,-0.7285,-0.7285,-0.7285,-0.7285,-0.7285,-0.7261,-0.7166,-0.7139,-0.7139,-0.7139,-0.7139,-0.7139,-0.7139,-0.7139,-0.7139,-0.7139,-0.7139,-0.7139,-0.7139,-0.7139,-0.7105,-0.7007,-0.7591,-0.8056,-0.8354,-0.9002,-0.9912,-1.1062,-1.1709,-1.2326,-1.3093,-1.3794,-1.4088,-1.4088,-1.4088,-1.4088,-1.4088,-1.4088,-1.4824,-1.6288,-1.7415,-1.8301,-1.9045,-1.9766,-2.0245,-2.0566,-2.0566,-2.0644,-2.0781,-2.0781,-2.1025,-2.1445,-2.2261,-2.3225,-2.4291,-2.5077,-2.5831,-2.6554,-2.7371,-2.7614,-2.7695,-0.2235,-0.3465,-0.4023,-0.2459,-0.2235,-0.1677,-0.0224,0.0,0.0,0.0,0.0,0.0,0.0,0.0,0.0,0.0,0.0,0.0,0.0,0.0,-0.0646,-0.197,-0.3305,-0.3992,-0.4017,-0.4016,-0.4016,-0.4016,-0.4016,-0.4016,-0.4016,-0.4016,-0.4016,-0.4016,-0.4016,-0.4016,-0.391,-0.3842,-0.3813,-0.3808,-0.3637,-0.3608,-0.3608,-0.3608,-0.3608,-0.3607,-0.3607,-0.4458,-0.5591,-0.5591,-0.6449,-0.7597,-0.76,-0.76,-0.76,-0.76,-0.76,-0.76,-0.76,-0.76,-0.7526,-0.7221,-0.7143,-0.7143,-0.7143,-0.7143,-0.7143,-0.7139,-0.7139,-0.7139,-0.7139,-0.7139,-0.7139,-0.7139,-0.7139,-0.7139,-0.7139,-0.7139,-0.7577,-0.8715,-0.889,-0.9323,-1.0438,-1.1638,-1.2242,-1.2328,-1.3379,-1.4088,-1.4088,-1.4088,-1.4088,-1.4088,-1.4088,-1.4088,-1.4088,-1.5137,-1.6838,-1.8957,-1.8957,-1.952,-2.0566,-2.0566,-2.081,-2.124,-2.124,-2.1484,-2.1924,-2.2344,-2.3157,-2.4251,-2.4609,-2.5462,-2.6483,-2.6472,-2.6483,-2.6483,-0.0672,-0.1008,-0.1232,-0.0784,-0.0672,-0.056,-0.0112,0.0,0.0,0.0,0.0,0.0,0.0,0.0,0.0,0.0,0.0,0.0,0.0,0.0,-0.0221,-0.0539,-0.0946,-0.1652,-0.2564,-0.2632,-0.3015,-0.4016,-0.4016,-0.4016,-0.4016,-0.4016,-0.3515,-0.2614,-0.2614,-0.2113,-0.1209,-0.1102,-0.11,-0.11,-0.1093,-0.1091,-0.1091,-0.1091,-0.1573,-0.233,-0.233,-0.3171,-0.4173,-0.4173,-0.4458,-0.4933,-0.5879,-0.6164,-0.6355,-0.7312,-0.76,-0.76,-0.76,-0.76,-0.758,-0.7485,-0.7461,-0.7434,-0.7326,-0.7302,-0.7272,-0.7163,-0.7139,-0.7139,-0.7139,-0.7139,-0.7139,-0.7139,-0.7139,-0.7139,-0.7139,-0.7139,-0.7228,-0.7577,-0.7665,-0.8101,-0.9323,-0.9753,-1.0611,-1.2157,-1.3379,-1.4088,-1.4088,-1.4088,-1.4088,-1.4088,-1.4088,-1.4088,-1.4088,-1.5137,-1.6026,-1.6675,-1.823,-1.935,-1.9938,-2.0697,-2.1279,-2.1689,-2.1689,-2.1934,-2.2334,-2.2461,-2.2847,-2.3458,-2.3587,-2.38,-2.4221,-2.5052,-2.5294,-2.5378,0.0,0.0,0.0,0.0,0.0,0.0,0.0,0.0,0.0,0.0,0.0,0.0,0.0,0.0,0.0,0.0,0.0,0.0,0.0,0.0,0.0,0.0,0.0,-0.0421,-0.114,-0.123,-0.1623,-0.2414,-0.2414,-0.2414,-0.2414,-0.2414,-0.2013,-0.1209,-0.1209,-0.0807,0.0,0.0,0.0,0.0,0.0,0.0,0.0,0.0,-0.0501,-0.1091,-0.1091,-0.1868,-0.3012,-0.3012,-0.3302,-0.3883,-0.4751,-0.4947,-0.514,-0.5919,-0.6214,-0.631,-0.6801,-0.6994,-0.7093,-0.7578,-0.7685,-0.7577,-0.7482,-0.7461,-0.7434,-0.7343,-0.7322,-0.7322,-0.7322,-0.7272,-0.7231,-0.7231,-0.718,-0.7139,-0.7139,-0.7139,-0.7139,-0.7139,-0.7139,-0.7404,-0.8101,-0.8627,-0.9836,-1.2151,-1.2942,-1.3561,-1.4088,-1.4088,-1.4088,-1.4088,-1.4202,-1.4255,-1.4255,-1.5035,-1.5609,-1.589,-1.7211,-1.8309,-1.9094,-2.02,-2.0938,-2.1428,-2.1952,-2.2373,-2.2764,-2.2764,-2.291,-2.3135,-2.3135,-2.3135,-2.3222,-2.3877,-2.4125,-2.4211,0.0,0.0,0.0,0.0,0.0,0.0,0.0,0.0,0.0,0.0,0.0,0.0,0.0,0.0,0.0,0.0,0.0,0.0,0.0,0.0,0.0,0.0,0.0,0.0,0.0,0.0,0.0,0.0,0.0,0.0,0.0,0.0,0.0,0.0,0.0,0.0,0.0,0.0,0.0,0.0,0.0,0.0,0.0,0.0,0.0,0.0,0.0,-0.0807,-0.1812,-0.1812,-0.2614,-0.3615,-0.3815,-0.3815,-0.3815,-0.3915,-0.4016,-0.4218,-0.5525,-0.5827,-0.6129,-0.7534,-0.7641,-0.7445,-0.7621,-0.7617,-0.7614,-0.76,-0.76,-0.76,-0.76,-0.7485,-0.7394,-0.7394,-0.7272,-0.718,-0.718,-0.718,-0.718,-0.718,-0.718,-0.718,-0.718,-0.8236,-0.9805,-1.1877,-1.2135,-1.2747,-1.39,-1.3992,-1.4077,-1.4168,-1.4422,-1.4563,-1.4563,-1.483,-1.5341,-1.5977,-1.6141,-1.6829,-1.8118,-1.9316,-2.0211,-2.077,-2.194,-2.2687,-2.3135,-2.3135,-2.3135,-2.3135,-2.3135,-2.3135,-2.3135,-2.3135,-2.3135,-2.3135,0.0,0.0,0.0,0.0,0.0,0.0,0.0,0.0,0.0,0.0,0.0,0.0,0.0,0.0,0.0,0.0,0.0,0.0,0.0,0.0,0.0,0.0,0.0,0.0,0.0,0.0,0.0,0.0,0.0,0.0,0.0,0.0,0.0,0.0,0.0,0.0,0.0,0.0,0.0,0.0,0.0,0.0,0.0,0.0,0.0,0.0,0.0,-0.0202,-0.0404,-0.0404,-0.0605,-0.1008,-0.2113,-0.2414,-0.2614,-0.3715,-0.4016,-0.4016,-0.4318,-0.4418,-0.472,-0.6129,-0.6391,-0.6625,-0.7501,-0.7767,-0.7733,-0.7624,-0.76,-0.76,-0.76,-0.7573,-0.755,-0.755,-0.7522,-0.7502,-0.7502,-0.7502,-0.7502,-0.7502,-0.7502,-0.7502,-0.7502,-0.8502,-0.9409,-0.9949,-1.0854,-1.1939,-1.3123,-1.3213,-1.376,-1.4776,-1.4836,-1.487,-1.487,-1.493,-1.5102,-1.5205,-1.606,-1.6831,-1.7497,-1.8571,-1.992,-2.1166,-2.1441,-2.2133,-2.3135,-2.3135,-2.3135,-2.3135,-2.3135,-2.3135,-2.3135,-2.3135,-2.3135,-2.3135,0.0,0.0,0.0,0.0,0.0,0.0,0.0,0.0,0.0,0.0,0.0,0.0,0.0,0.0,0.0,0.0,0.0,0.0,0.0,0.0,0.0,0.0,0.0,0.0,0.0,0.0,0.0,0.0,0.0,0.0,0.0,0.0,0.0,0.0,0.0,0.0,0.0,0.0,0.0,0.0,0.0,0.0,0.0,0.0,0.0,0.0,0.0,0.0,0.0,0.0,0.0,-0.0101,-0.0807,-0.1008,-0.1209,-0.1913,-0.2113,-0.2213,-0.2914,-0.3015,-0.3516,-0.5525,-0.6029,-0.6315,-0.7638,-0.7919,-0.7899,-0.7824,-0.7807,-0.7807,-0.7807,-0.775,-0.7699,-0.7699,-0.7645,-0.76,-0.76,-0.76,-0.76,-0.76,-0.76,-0.76,-0.76,-0.8153,-0.8703,-0.9254,-0.9895,-1.1089,-1.2922,-1.3012,-1.3574,-1.4963,-1.5097,-1.517,-1.517,-1.5304,-1.5378,-1.5378,-1.5847,-1.6203,-1.6586,-1.7774,-1.8779,-1.9579,-2.0215,-2.0764,-2.1409,-2.2031,-2.2217,-2.2306,-2.2862,-2.3135,-2.3135,-2.3135,-2.3135,-2.3135,0.0,0.0,0.0,0.0,0.0,0.0,0.0,0.0,0.0,0.0,0.0,0.0,0.0,0.0,0.0,0.0,0.0,0.0,0.0,0.0,0.0,0.0,0.0,0.0,0.0,0.0,0.0,0.0,0.0,0.0,0.0,0.0,0.0,0.0,0.0,0.0,0.0,0.0,0.0,0.0,0.0,0.0,0.0,0.0,0.0,0.0,0.0,0.0,0.0,0.0,0.0,0.0,0.0,0.0,0.0,0.0,0.0,-0.0202,-0.1309,-0.1611,-0.2214,-0.4722,-0.5325,-0.5627,-0.703,-0.7637,-0.7939,-0.7736,-0.7839,-0.8038,-0.8038,-0.7936,-0.7848,-0.7848,-0.775,-0.7675,-0.7675,-0.7675,-0.7675,-0.7675,-0.7675,-0.7675,-0.7675,-0.7675,-0.8048,-0.8973,-0.9067,-1.009,-1.2406,-1.2682,-1.3427,-1.4741,-1.5252,-1.5471,-1.5471,-1.5712,-1.5832,-1.5825,-1.5585,-1.5591,-1.5825,-1.685,-1.7505,-1.7777,-1.8772,-1.9314,-1.9579,-2.0576,-2.1114,-2.1391,-2.2403,-2.295,-2.3135,-2.3135,-2.3135,-2.3135,0.0,0.0,0.0,0.0,0.0,0.0,0.0,0.0,0.0,0.0,0.0,0.0,0.0,0.0,0.0,0.0,0.0,0.0,0.0,0.0,0.0,0.0,0.0,0.0,0.0,0.0,0.0,0.0,0.0,0.0,0.0,0.0,0.0,0.0,0.0,0.0,0.0,0.0,0.0,0.0,0.0,0.0,0.0,0.0,0.0,0.0,0.0,0.0,0.0,0.0,0.0,0.0,0.0,0.0,0.0,0.0,0.0,0.0,-0.0202,-0.0303,-0.0605,-0.2114,-0.2515,-0.2916,-0.4218,-0.6323,-0.7637,-0.6531,-0.7235,-0.8038,-0.8038,-0.8021,-0.8007,-0.8007,-0.7991,-0.798,-0.798,-0.798,-0.798,-0.798,-0.798,-0.798,-0.798,-0.798,-0.7977,-0.8174,-0.8171,-0.8852,-1.0307,-1.1468,-1.2624,-1.3969,-1.5164,-1.5772,-1.5772,-1.5812,-1.5832,-1.5832,-1.5792,-1.5792,-1.5832,-1.6015,-1.6669,-1.7692,-1.787,-1.8503,-1.9488,-1.967,-2.0395,-2.1293,-2.148,-2.2217,-2.3135,-2.3135,-2.3135,-2.3135,0.0,0.0,0.0,0.0,0.0,0.0,0.0,0.0,0.0,0.0,0.0,0.0,0.0,0.0,0.0,0.0,0.0,0.0,0.0,0.0,0.0,0.0,0.0,0.0,0.0,0.0,0.0,0.0,0.0,0.0,0.0,0.0,0.0,0.0,0.0,0.0,0.0,0.0,0.0,0.0,0.0,0.0,0.0,0.0,0.0,0.0,0.0,0.0,0.0,0.0,0.0,0.0,0.0,0.0,0.0,0.0,0.0,0.0,0.0,0.0,-0.0312,-0.1641,-0.2045,-0.2141,-0.2722,-0.4418,-0.5822,-0.5929,-0.7033,-0.8038,-0.8038,-0.8038,-0.8038,-0.8038,-0.8038,-0.8038,-0.8038,-0.8038,-0.8038,-0.8038,-0.8038,-0.8038,-0.8038,-0.8038,-0.8038,-0.8038,-0.8038,-0.8627,-0.9899,-1.0485,-1.1745,-1.3878,-1.4459,-1.5045,-1.5825,-1.5832,-1.5832,-1.5832,-1.5832,-1.5832,-1.5832,-1.5832,-1.6109,-1.6669,-1.6669,-1.6936,-1.7483,-1.8226,-1.8772,-1.9405,-2.0034,-2.0584,-2.1132,-2.1854,-2.212,-2.2208]}]]